     2              OBSERVATION DATA    GPS                 RINEX VERSION / TYPE
teqc 2000Jul20 Karen Wendt 20040107 20:22:28UTC             PGM / RUN BY / DATE
                                                            COMMENT
L2: 1 -> 1; 150 -> 5; 250 -> 9                              COMMENT
L2: 1 -> 1; 150 -> 5; 250 -> 9                              COMMENT
L2: 1 -> 1; 150 -> 5; 250 -> 9                              COMMENT
L2: 1 -> 1; 150 -> 5; 250 -> 9                              COMMENT
L2: 1 -> 1; 150 -> 5; 250 -> 9                              COMMENT
L2: 1 -> 1; 150 -> 5; 250 -> 9                              COMMENT
L2: 1 -> 1; 150 -> 5; 250 -> 9                              COMMENT
L2: 1 -> 1; 150 -> 5; 250 -> 9                              COMMENT
L2: 1 -> 1; 150 -> 5; 250 -> 9                              COMMENT
L2: 1 -> 1; 150 -> 5; 250 -> 9                              COMMENT
L2: 1 -> 1; 150 -> 5; 250 -> 9                              COMMENT
L2: 1 -> 1; 150 -> 5; 250 -> 9                              COMMENT
L2: 1 -> 1; 150 -> 5; 250 -> 9                              COMMENT
L2: 1 -> 1; 150 -> 5; 250 -> 9                              COMMENT
Original Marker Name: 2068 2068_smtpd_SLO_046_PM00.33       COMMENT
Campaign Name: USGS San Simeon 2003-2004                    COMMENT
4-Character Station Name: 2068                              COMMENT
6-Character Antenna Code: DMRCHT                            COMMENT
Vertical Measurement Point: BCR                             COMMENT
Vertical Offset to Rinex Ref. Point: 0.0348                 COMMENT
Radial Measurement Point: ECF                               COMMENT
Radial Offset to Rinex Ref. Point: 0.1897                   COMMENT
Antenna Height from Field Measurement: 1.4430 m             COMMENT
Additional Antenna Identification Info.:                    COMMENT
Turborogue and Ashtech Choke Ring                           COMMENT
Original XYZ: -2679707.4220 -4452324.8357 3685855.2095      COMMENT
New XYZ position is based on association with SCEC monument COMMENT
E1F0J5C2+0011. Position of that monument is believed to be  COMMENT
valid to within 1 m horizontally; vertical accuracy         COMMENT
should be no worse than 3-times this value.                 COMMENT
                                                            COMMENT
Revised Rinex header created by UCSD GPS archive for        COMMENT
GSAC on 20-Apr-2005 (2005:110) 16:27:14 GMT                 COMMENT
For assistance contact dagnew@ucsd.edu                      COMMENT
or anderson@python.ucsd.edu                                 COMMENT
                                                            COMMENT
SLO 046 PM00.33                                             MARKER NAME
JLS US GEOLOGICAL SURVEY                                    OBSERVER / AGENCY
ZE1200331018 ASHTECH UZ-12 ZE00                             REC # / TYPE / VERS
CR14330 DORNE-MARGOL. TYPE T                                ANT # / TYPE
 -2679720.0000 -4452299.0000  3685834.0000                  APPROX POSITION XYZ
        1.3957        0.0000        0.0000                  ANTENNA: DELTA H/E/N
     1     1     0                                          WAVELENGTH FACT L1/2
     5    C1    L1    L2    P1    P2                        # / TYPES OF OBSERV
    30                                                      INTERVAL
  2003    12    30     0     0    0.000000                  TIME OF FIRST OBS
  2003    12    30    23    59   30.000000                  TIME OF LAST OBS
                                                            END OF HEADER
 03 12 30  0  0  0.0000000  0  6G24G17G30G 5G 6G10
  21431776.962    15099143.12543  11768449.85742  21431778.727    21431777.394
  20551628.760     2709502.60344   2117360.10142  20551630.194    20551628.291
  20603604.329    -2932932.46643  -2273185.29442  20603606.909    20603604.426
  20385988.539     7832031.73444   6108484.89342  20385990.222    20385987.701
  22834478.516    -9507634.08443  -7366628.84542  22834481.175    22834478.073
  21584699.899   -14514386.18043 -10546975.80142  21584701.428    21584699.664
 03 12 30  0  0 30.0000000  0  6G24G17G30G 5G 6G10
  21444186.286    15164354.74543  11819264.11142  21444188.022    21444186.735
  20550340.665     2702733.52144   2112085.50942  20550342.097    20550340.133
  20594706.872    -2979688.77444  -2309618.76542  20594709.431    20594707.003
  20391949.435     7863356.48844   6132893.79242  20391951.098    20391948.605
  22822012.307    -9573143.22843  -7417674.86642  22822014.959    22822012.084
  21573519.795   -14573137.54243 -10592756.04942  21573521.442    21573519.508
 03 12 30  0  1  0.0000000  0  6G24G17G30G 5G 6G10
  21456644.687    15229823.95443  11870279.07842  21456646.370    21456645.070
  20549131.297     2696378.20044   2107133.32742  20549132.726    20549130.778
  20585900.457    -3025966.92344  -2345679.63942  20585903.007    20585900.523
  20398009.111     7895200.51644   6157707.32142  20398010.786    20398008.272
  22809556.464    -9638597.77743  -7468678.36042  22809559.084    22809556.576
  21562434.136   -14631392.43243 -10638149.43842  21562435.758    21562433.899
 03 12 30  0  1 30.0000000  0  6G24G17G30G 5G 6G10
  21469152.559    15295553.35343  11921496.79842  21469154.237    21469152.941
  20548001.421     2690440.85144   2102506.83742  20548002.872    20548000.980
  20577186.350    -3071759.93444  -2381362.48442  20577188.909    20577186.329
  20404168.481     7927568.31144   6182928.97942  20404170.153    20404167.649
  22797112.324    -9703992.36643  -7519635.11542  22797114.700    22797112.491
  21551444.508   -14689143.20543 -10683149.99242  21551446.075    21551444.301
 03 12 30  0  2  0.0000000  0  6G24G17G30G 5G 6G10
  21481709.407    15361540.29643  11972915.18542  21481711.064    21481709.873
  20546950.894     2684920.51544   2098205.28942  20546952.380    20546950.496
  20568564.823    -3117066.17744  -2416666.02442  20568567.391    20568564.715
  20410427.327     7960458.90644   6208558.01442  20410429.006    20410426.550
  22784679.473    -9769326.99543  -7570545.15942  22784681.766    22784679.701
  21540551.319   -14746387.92743 -10727756.22442  21540552.873    21540551.003
 03 12 30  0  2 30.0000000  0  6G24G17G30G 5G 6G10
  21494315.362    15427785.26943  12024534.64642  21494317.064    21494315.883
  20545980.146     2679819.01944   2094230.11242  20545981.620    20545979.686
  20560036.744    -3161881.37644  -2451586.93242  20560039.328    20560036.542
  20416786.090     7993874.22944   6234595.93342  20416787.746    20416785.294
  22772258.662    -9834598.76243  -7621406.22742  22772260.948    22772258.755
  21529755.389   -14803121.38343 -10771964.07342  21529757.034    21529754.917
 03 12 30  0  3  0.0000000  0  6G24G17G30G 5G 6G10
  21506969.312    15494281.72544  12076350.07142  21506971.051    21506969.748
  20545088.034     2675131.16844   2090577.25842  20545089.520    20545087.544
  20551601.839    -3206207.64844  -2486126.85742  20551604.393    20551601.459
  20423243.846     8027809.86544   6261039.28642  20423245.523    20423243.061
  22759849.118    -9899811.57743  -7672221.33742  22759851.437    22759848.974
  21519056.231   -14859345.38643 -10815774.93742  21519057.975    21519055.761
 03 12 30  0  3 30.0000000  0  6G24G17G30G 5G 6G10
  21519671.688    15561033.49643  12128364.42942  21519673.476    21519672.139
  20544275.669     2670862.21344   2087250.82242  20544277.148    20544275.131
  20543261.354    -3250037.16844  -2520279.71242  20543263.938    20543260.957
  20429801.595     8062270.89044   6287892.04042  20429803.231    20429800.820
  22747451.789    -9964959.25043  -7722985.70842  22747454.140    22747451.620
  21508455.587   -14915051.43743 -10859182.20842  21508457.325    21508455.200
 03 12 30  0  4  0.0000000  0  6G24G17G30G 5G 6G10
  21532420.623    15628029.30643  12180568.95742  21532422.382    21532420.951
  20543541.154     2667002.22644   2084243.06042  20543542.605    20543540.626
  20535014.071    -3293376.88644  -2554050.89542  20535016.683    20535013.726
  20436457.424     8097247.72544   6315146.71942  20436459.064    20436456.753
  22735065.208   -10030050.30743  -7773705.96942  22735067.624    22735065.155
  21497952.504   -14970246.14643 -10902191.02742  21497954.143    21497952.007
 03 12 30  0  4 30.0000000  0  6G24G17G30G 5G 6G10
  21545216.420    15695271.69743  12232965.62442  21545218.209    21545216.685
  20542885.237     2663555.48644   2081557.30242  20542886.680    20542884.804
  20526861.227    -3336220.27544  -2587435.33142  20526863.831    20526860.943
  20443212.255     8132744.56744   6342806.59842  20443213.859    20443211.604
  22722690.305   -10095079.48343  -7824378.00842  22722692.706    22722690.435
  21487548.174   -15024922.10043 -10944795.62142  21487549.785    21487547.521
 03 12 30  0  5  0.0000000  0  6G24G17G30G 5G 6G10
  21558059.429    15762762.19743  12285555.62242  21558061.195    21558059.670
  20542308.384     2660524.30544   2079195.35342  20542309.827    20542308.038
  20518803.798    -3378562.13744  -2620428.95942  20518806.464    20518803.546
  20450066.498     8168763.70244   6370873.46042  20450068.096    20450065.844
  22710327.978   -10160043.13243  -7874998.99442  22710330.255    22710328.008
  21477243.315   -15079073.81643 -10986991.71942  21477245.049    21477242.800
 03 12 30  0  5 30.0000000  0  6G24G17G30G 5G 6G10
  21570948.401    15830494.29143  12338333.87042  21570950.130    21570948.693
  20541809.834     2657904.29944   2077153.80842  20541811.246    20541809.447
  20510841.503    -3420404.43944  -2653033.32742  20510844.186    20510841.161
  20457019.338     8205301.21144   6399344.24942  20457020.951    20457018.681
  22697977.559   -10224944.70843  -7925571.57642  22697979.784    22697977.398
  21467038.019   -15132702.56643 -11028780.31142  21467039.743    21467037.596
 03 12 30  0  6  0.0000000  0  6G24G17G30G 5G 6G10
  21583882.758    15898464.57243  12391297.72142  21583884.466    21583883.011
  20541389.059     2655692.90144   2075430.66542  20541390.454    20541388.559
  20502974.355    -3461746.56944  -2685247.94842  20502977.037    20502973.935
  20464070.477     8242355.04444   6428217.36542  20464072.092    20464069.796
  22685638.829   -10289785.21843  -7976096.60042  22685641.099    22685638.458
  21456932.569   -15185807.55643 -11070160.76842  21456934.159    21456932.134
 03 12 30  0  6 30.0000000  0  6G24G17G30G 5G 6G10
  21596862.602    15966673.87343  12444447.82042  21596864.287    21596862.713
  20541046.378     2653892.39544   2074027.69042  20541047.793    20541045.903
  20495203.389    -3502583.56844  -2717068.96142  20495206.042    20495202.861
  20471220.278     8279927.39344   6457494.51142  20471221.904    20471219.532
  22673312.273   -10354561.13943  -8026571.28342  22673314.589    22673311.981
  21446927.715   -15238383.07043 -11111128.65642  21446929.342    21446927.476
 03 12 30  0  7  0.0000000  0  6G24G17G30G 5G 6G10
  21609886.413    16035114.66443  12497778.30142  21609888.143    21609886.507
  20540780.784     2652496.87344   2072940.28342  20540782.167    20540780.337
  20487527.843    -3542919.02544  -2748499.16342  20487530.497    20487527.232
  20478467.571     8318012.19544   6487170.98042  20478469.242    20478466.774
  22660997.237   -10419277.52843  -8076999.58542  22660999.429    22660996.810
  21437023.109   -15290432.01843 -11151686.23042  21437024.754    21437022.925
 03 12 30  0  7 30.0000000  0  6G24G17G30G 5G 6G10
  21622955.537    16103793.54244  12551294.30342  21622957.342    21622955.753
  20540593.727     2651513.55844   2072174.07742  20540595.069    20540593.266
  20479949.636    -3582742.82044  -2779530.67242  20479952.309    20479948.965
  20485813.874     8356617.07444   6517252.70242  20485815.548    20485812.995
  22648695.099   -10483925.63043  -8127374.66942  22648697.326    22648694.676
  21427220.665   -15341944.01843 -11191825.39642  21427222.313    21427220.431
 03 12 30  0  8  0.0000000  0  6G24G17G30G 5G 6G10
  21636068.538    16172702.89744  12604989.90642  21636070.381    21636068.779
  20540483.921     2650936.64044   2071724.55242  20540485.279    20540483.507
  20472468.170    -3622058.24444  -2810166.04342  20472470.872    20472467.431
  20493258.044     8395736.46444   6547735.34342  20493259.734    20493257.143
  22636405.089   -10548510.03043  -8177700.10242  22636407.335    22636404.806
  21417519.930   -15392921.84443 -11231548.33242  21417521.531    21417519.609
 03 12 30  0  8 30.0000000  0  6G24G17G30G 5G 6G10
  21649225.327    16241842.24444  12658864.72742  21649227.148    21649225.461
  20540451.598     2650766.86644   2071592.27642  20540452.961    20540451.199
  20465084.148    -3660861.75044  -2840402.52142  20465086.881    20465083.369
  20500800.253     8435371.11744   6578619.48842  20500801.965    20500799.359
  22624127.569   -10613028.61143  -8227974.26842  22624129.842    22624127.431
  21407921.621   -15443361.26343 -11270851.72442  21407923.203    21407921.321
 03 12 30  0  9  0.0000000  0  6G24G17G30G 5G 6G10
  21662424.721    16311205.41743  12712913.94842  21662426.533    21662424.811
  20540495.825     2650999.49944   2071773.55942  20540497.222    20540495.451
  20457797.157    -3699155.42444  -2870241.72842  20457799.908    20457796.304
  20508439.630     8475516.41944   6609901.53442  20508441.351    20508438.746
  22611861.924   -10677484.82943  -8278199.82542  22611864.219    22611862.001
  21398425.335   -15493264.05443 -11309736.96842  21398426.973    21398425.149
 03 12 30  0  9 30.0000000  0  6G24G17G30G 5G 6G10
  21675667.957    16380799.24243  12767142.90042  21675669.765    21675668.109
  20540618.175     2651642.37244   2072274.51442  20540619.590    20540617.767
  20450609.171    -3736928.67744  -2899675.41342  20450611.897    20450608.282
  20516177.666     8516180.29044   6641587.65842  20516179.374    20516176.814
  22599609.818   -10741869.51643  -8328369.64842  22599612.157    22599610.097
  21389033.254   -15542619.17343 -11348195.46242  21389034.931    21389033.109
 03 12 30  0 10  0.0000000  0  6G24G17G30G 5G 6G10
  21688953.360    16450614.12544  12821544.09742  21688955.086    21688953.437
  20540816.905     2652686.78044   2073088.34842  20540818.338    20540816.502
  20443519.040    -3774187.63744  -2928708.34742  20443521.780    20443518.093
  20524012.718     8557353.82944   6673670.92842  20524014.410    20524011.880
  22587369.994   -10806190.11543  -8378489.53042  22587372.245    22587370.236
  21379744.415   -15591432.27143 -11386231.59442  21379746.071    21379744.167
 03 12 30  0 10 30.0000000  0  6G24G17G30G 5G 6G10
  21702280.198    16520646.45444  12876114.74342  21702281.901    21702280.187
  20541091.670     2654130.85744   2074213.61642  20541093.155    20541091.289
  20436526.859    -3810931.58644  -2957339.97642  20436529.634    20436525.915
  20531944.535     8599035.60844   6706150.23042  20531946.203    20531943.632
  22575142.342   -10870447.10343  -8428559.83342  22575144.586    22575142.341
  21370559.056   -15639701.90543 -11423844.24742  21370560.668    21370558.769
 03 12 30  0 11  0.0000000  0  6G24G17G30G 5G 6G10
  21715648.829    16590898.88544  12930856.88942  21715650.589    21715648.849
  20541443.282     2655978.53344   2075653.37342  20541444.760    20541442.854
  20429634.025    -3847153.69844  -2985564.97642  20429636.755    20429633.022
  20539973.718     8641229.53744   6739028.60842  20539975.400    20539972.869
  22562927.939   -10934634.86643  -8478576.20142  22562930.191    22562927.574
  21361478.224   -15687420.91043 -11461027.84942  21361479.884    21361478.242
 03 12 30  0 11 30.0000000  0  6G24G17G30G 5G 6G10
  21729058.809    16661368.87443  12985768.56142  21729060.580    21729058.836
  20541871.365     2658228.26844   2077406.42742  20541872.852    20541870.992
  20422840.633    -3882853.18344  -3013382.73942  20422843.347    20422839.625
  20548100.068     8683933.88444   6772304.71842  20548101.734    20548099.254
  22550726.393   -10998753.79243  -8528538.92142  22550728.738    22550725.876
  21352502.531   -15734588.14243 -11497781.50242  21352504.094    21352502.695
 03 12 30  0 12  0.0000000  0  6G24G17G30G 5G 6G10
  21742509.499    16732052.59443  13040846.78242  21742511.272    21742509.416
  20542375.475     2660877.47744   2079470.75642  20542376.977    20542375.141
  20416146.753    -3918029.78644  -3040793.05742  20416149.464    20416145.762
  20556323.162     8727146.44044   6805976.83242  20556324.795    20556322.393
  22538537.698   -11062804.84043  -8578448.77042  22538540.072    22538537.158
  21343632.013   -15781202.99943 -11534104.71542  21343633.503    21343632.095
 03 12 30  0 12 30.0000000  0  6G24G17G30G 5G 6G10
  21756000.630    16802949.02743  13096090.74742  21756002.374    21756000.543
  20542955.614     2663926.17944   2081846.38042  20542957.105    20542955.313
  20409552.776    -3952680.98544  -3067793.97042  20409555.483    20409551.913
  20564643.018     8770867.37744   6840045.09742  20564644.601    20564642.247
  22526362.245   -11126786.78943  -8628304.77442  22526364.524    22526361.630
  21334867.127   -15827262.14043 -11569994.91242  21334868.655    21334867.110
 03 12 30  0 13  0.0000000  0  6G24G17G30G 5G 6G10
  21769531.463    16874054.06443  13151497.26442  21769533.175    21769531.408
  20543611.278     2667371.66844   2084531.18142  20543612.738    20543610.961
  20403058.747    -3986806.72344  -3094385.43742  20403061.432    20403058.052
  20573058.962     8815093.65044   6874507.12542  20573060.578    20573058.246
  22514199.824   -11190700.86443  -8678107.89642  22514202.033    22514199.094
  21326207.963   -15872765.27943 -11605451.87442  21326209.501    21326207.931
 03 12 30  0 13 30.0000000  0  6G24G17G30G 5G 6G10
  21783101.659    16945365.48543  13207064.61042  21783103.342    21783101.539
  20544342.133     2671212.73244   2087524.22742  20544343.622    20544341.891
  20396665.026    -4020405.65144  -3120566.40842  20396667.641    20396664.390
  20581570.997     8859824.38344   6909362.24442  20581572.587    20581570.237
  22502050.370   -11254546.78843  -8727857.90642  22502052.561    22502049.602
  21317655.087   -15917710.55843 -11640474.14242  21317656.539    21317655.079
 03 12 30  0 14  0.0000000  0  6G24G17G30G 5G 6G10
  21796711.356    17016885.11743  13262794.18742  21796713.030    21796711.173
  20545148.849     2675452.07444   2090827.62342  20545150.328    20545148.640
  20390372.526    -4053472.50044  -3146332.76442  20390375.122    20390371.967
  20590179.489     8905062.07544   6944612.38342  20590181.062    20590178.712
  22489914.676   -11318320.31943  -8777551.53142  22489916.887    22489913.934
  21309209.515   -15962092.33643 -11675057.31242  21309210.908    21309209.487
 03 12 30  0 14 30.0000000  0  6G24G17G30G 5G 6G10
  21810359.751    17088608.49643  13318682.53042  21810361.348    21810359.612
  20546030.823     2680086.54644   2094438.91442  20546032.281    20546030.565
  20384181.236    -4086007.82944  -3171684.95542  20384183.790    20384180.663
  20598883.882     8950803.65644   6980255.17742  20598885.436    20598883.090
  22477792.265   -11382023.09543  -8827190.02542  22477794.573    22477791.785
  21300871.107   -16005910.63443 -11709201.41542  21300872.555    21300871.149
 03 12 30  0 15  0.0000000  0  6G24G17G30G 5G 6G10
  21824046.864    17160534.27943  13374728.59142  21824048.353    21824046.654
  20546987.913     2685115.82244   2098357.84042  20546989.366    20546987.609
  20378091.494    -4118009.38044  -3196621.21742  20378094.063    20378090.951
  20607683.996     8997048.80944   7016290.35842  20607685.646    20607683.248
  22465683.636   -11445653.80043  -8876772.35742  22465685.892    22465683.290
  21292640.397   -16049162.99143 -11742904.52442  21292641.848    21292640.502
 03 12 30  0 15 30.0000000  0  6G24G17G30G 5G 6G10
  21837771.339    17232656.77343  13430927.93542  21837772.854    21837771.075
  20548019.109     2690535.07844   2102580.64442  20548020.574    20548018.862
  20372102.883    -4149479.28444  -3221143.20442  20372105.456    20372102.441
  20616579.004     9043792.53244   7052714.03142  20616580.689    20616578.285
  22453588.071   -11509215.74143  -8926301.11542  22453590.321    22453587.773
  21284517.240   -16091850.96643 -11776167.85042  21284518.657    21284517.286
 03 12 30  0 16  0.0000000  0  6G24G17G30G 5G 6G10
  21851533.179    17304975.68643  13487280.32942  21851534.659    21851532.847
  20549124.781     2696345.69144   2107108.40842  20549126.268    20549124.542
  20366216.252    -4180413.80644  -3245248.01242  20366218.768    20366215.807
  20625569.224     9091036.28444   7089527.33642  20625570.877    20625568.450
  22441506.214   -11572706.12343  -8975774.11442  22441508.357    22441505.893
  21276502.304   -16133970.31343 -11808988.08142  21276503.726    21276502.328
 03 12 30  0 16 30.0000000  0  6G24G17G30G 5G 6G10
  21865332.575    17377491.84343  13543786.43742  21865334.090    21865332.216
  20550305.312     2702549.32644   2111942.42542  20550306.831    20550304.959
  20360432.257    -4210808.49644  -3268932.17242  20360434.821    20360431.906
  20634654.917     9138781.62844   7126731.49742  20634656.566    20634654.110
  22429438.707   -11636121.54043  -9025188.69942  22429440.799    22429438.392
  21268596.286   -16175516.28943 -11841361.53142  21268597.816    21268596.437
 03 12 30  0 17  0.0000000  0  6G24G17G30G 5G 6G10
  21879168.380    17450199.95543  13600442.10442  21879169.906    21879168.170
  20551559.711     2709141.33844   2117079.07142  20551561.258    20551559.276
  20354750.634    -4240665.41544  -3292197.29342  20354753.170    20354750.319
  20643835.131     9187024.03944   7164322.98342  20643836.808    20643834.315
  22417384.868   -11699464.90743  -9074547.13442  22417386.972    22417384.607
  21260799.164   -16216490.46343 -11873289.42542  21260800.679    21260799.273
 03 12 30  0 17 30.0000000  0  6G24G17G30G 5G 6G10
  21893039.910    17523096.11143  13657244.29542  21893041.381    21893039.811
  20552887.531     2716119.27444   2122516.43342  20552889.075    20552887.102
  20349171.350    -4269984.65844  -3315043.44442  20349173.896    20349171.038
  20653109.419     9235760.85244   7202299.71942  20653111.111    20653108.634
  22405344.542   -11762737.41443  -9123850.36242  22405346.631    22405344.390
  21253110.942   -16256892.61743 -11904771.59042  21253112.424    21253110.974
 03 12 30  0 18  0.0000000  0  6G24G17G30G 5G 6G10
  21906948.528    17596186.54543  13714197.89642  21906949.973    21906948.392
  20554290.225     2723490.23244   2128260.04842  20554291.733    20554289.764
  20343696.286    -4298756.44244  -3337463.00942  20343698.848    20343695.914
  20662479.144     9284998.94544   7240667.06242  20662480.797    20662478.336
  22393319.315   -11825930.22843  -9173091.48642  22393321.393    22393319.284
  21245533.475   -16296712.52943 -11935800.05842  21245534.948    21245533.510
 03 12 30  0 18 30.0000000  0  6G24G17G30G 5G 6G10
  21920892.354    17669462.15543  13771295.77342  21920893.770    21920892.196
  20555766.202     2731246.20344   2134303.67142  20555767.701    20555765.716
  20338324.364    -4326986.22344  -3359460.23442  20338326.911    20338323.926
  20671942.814     9334730.90944   7279419.23442  20671944.472    20671942.002
  22381308.010   -11889049.62543  -9222275.39642  22381310.109    22381308.169
  21238065.768   -16335955.50843 -11966378.96442  21238067.283    21238065.818
 03 12 30  0 19  0.0000000  0  6G24G17G30G 5G 6G10
  21934871.303    17742922.03743  13828537.23042  21934872.656    21934871.168
  20557315.280     2739386.81944   2140647.02142  20557316.793    20557314.808
  20333055.907    -4354671.85244  -3381033.44342  20333058.455    20333055.493
  20681500.251     9384955.67444   7318555.40842  20681501.913    20681499.470
  22369310.973   -11952094.41543  -9271401.16942  22369313.042    22369311.172
  21230708.407   -16374618.85443 -11996506.20342  21230709.909    21230708.424
 03 12 30  0 19 30.0000000  0  6G24G17G30G 5G 6G10
  21948885.466    17816566.33143  13885922.40442  21948886.785    21948885.233
  20558937.792     2747913.50544   2147291.20242  20558939.290    20558937.324
  20327891.789    -4381809.47344  -3402179.63142  20327894.318    20327891.333
  20691151.759     9435674.78144   7358076.78342  20691153.423    20691151.001
  22357328.635   -12015061.67543  -9320466.52342  22357330.680    22357328.911
  21223462.033   -16412698.36843 -12026178.51242  21223463.571    21223462.011
 03 12 30  0 20  0.0000000  0  6G24G17G30G 5G 6G10
  21962933.514    17890389.34943  13943446.82742  21962934.855    21962933.266
  20560633.029     2756821.48244   2154232.49442  20560634.404    20560632.429
  20322831.501    -4408401.29944  -3422900.52342  20322834.054    20322830.972
  20700896.493     9486883.55144   7397979.71342  20700898.154    20700895.711
  22345360.694   -12077954.21643  -9369473.66042  22345362.661    22345360.813
  21216326.434   -16450195.84343 -12055397.28642  21216327.938    21216326.350
 03 12 30  0 20 30.0000000  0  6G24G17G30G 5G 6G10
  21977015.740    17964392.75543  14001111.81842  21977017.191    21977015.591
  20562401.281     2766113.43044   2161472.98842  20562402.609    20562400.613
  20317876.115    -4434442.16244  -3443192.09542  20317878.656    20317875.443
  20710734.818     9538584.18144   7438265.90642  20710736.446    20710734.051
  22333407.680   -12140767.73843  -9418419.20242  22333409.734    22333407.696
  21209302.587   -16487106.06343 -12084158.47142  21209304.084    21209302.532
 03 12 30  0 21  0.0000000  0  6G24G17G30G 5G 6G10
  21991131.753    18038572.70443  14058914.36642  21991133.181    21991131.609
  20564241.929     2775786.22144   2169010.23742  20564243.288    20564241.333
  20313025.391    -4459932.79744  -3463054.91242  20313027.938    20313024.665
  20720666.086     9590773.60344   7478932.98442  20720667.730    20720665.359
  22321469.434   -12203503.62943  -9467304.27142  22321471.582    22321469.439
  21202390.514   -16523429.06443 -12112462.08742  21202391.999    21202390.506
 03 12 30  0 21 30.0000000  0  6G24G17G30G 5G 6G10
  22005280.453    18112924.46643  14116850.80642  22005281.932    22005280.415
  20566154.285     2785835.95944   2176841.20142  20566155.644    20566153.749
  20308279.133    -4484874.63144  -3482490.09742  20308281.669    20308278.381
  20730689.625     9643447.79844   7519977.80242  20730691.288    20730688.921
  22309545.525   -12266164.06243  -9516130.53442  22309547.767    22309545.688
  21195590.064   -16559165.95943 -12140308.98342  21195591.497    21195589.947
 03 12 30  0 22  0.0000000  0  6G24G17G30G 5G 6G10
  22019462.574    18187452.17143  14174924.33342  22019464.089    22019462.692
  20568139.360     2796267.85844   2184969.96242  20568140.706    20568138.857
  20303638.828    -4509259.69844  -3501491.43342  20303641.301    20303638.080
  20740806.422     9696611.85544   7561404.33042  20740808.070    20740805.668
  22297637.274   -12328741.81243  -9564892.36442  22297639.581    22297637.565
  21188902.684   -16594308.33443 -12167692.62542  21188904.132    21188902.405
 03 12 30  0 22 30.0000000  0  6G24G17G30G 5G 6G10
  22033676.740    18262147.82943  14233128.73042  22033678.182    22033676.875
  20570195.826     2807074.68544   2193390.87542  20570197.175    20570195.284
  20299103.481    -4533093.02944  -3520062.84942  20299105.961    20299102.779
  20751015.115     9750258.65644   7603207.02442  20751016.734    20751014.264
  22285743.799   -12391242.65043  -9613594.27942  22285746.052    22285744.016
  21182327.600   -16628860.82143 -12194616.61442  21182329.022    21182327.181
 03 12 30  0 23  0.0000000  0  6G24G17G30G 5G 6G10
  22047922.856    18337011.89143  14291464.35142  22047924.365    22047923.079
  20572323.915     2818257.86744   2202105.05942  20572325.253    20572323.295
  20294673.897    -4556370.70444  -3538201.28342  20294676.415    20294673.251
  20761315.799     9804389.24944   7645386.69942  20761317.423    20761314.938
  22273865.464   -12453663.32443  -9662233.72342  22273867.721    22273865.844
  21175865.466   -16662819.76343 -12221078.09842  21175866.900    21175864.983
 03 12 30  0 23 30.0000000  0  6G24G17G30G 5G 6G10
  22062200.883    18412043.24743  14349930.32742  22062202.427    22062201.107
  20574523.483     2829816.98544   2211112.17142  20574524.861    20574522.879
  20290350.493    -4579090.66344  -3555905.13942  20290352.975    20290349.879
  20771708.420     9859002.89944   7687942.78642  20771710.047    20771707.583
  22262002.672   -12516002.30743  -9710809.52142  22262004.857    22262003.164
  21169516.648   -16696182.65443 -12247075.13342  21169518.130    21169516.227
 03 12 30  0 24  0.0000000  0  6G24G17G30G 5G 6G10
  22076510.314    18487239.84843  14408525.07742  22076511.906    22076510.599
  20576794.412     2841751.19344   2220411.55742  20576795.781    20576793.862
  20286133.469    -4601251.47844  -3573173.29642  20286135.950    20286132.857
  20782192.798     9914098.56244   7730874.46142  20782194.413    20782192.023
  22250155.594   -12578258.93343  -9759321.13942  22250157.707    22250156.155
  21163281.609   -16728947.60743 -12272606.24442  21163283.070    21163281.180
 03 12 30  0 24 30.0000000  0  6G24G17G30G 5G 6G10
  22090850.663    18562598.80643  14467246.33042  22090852.286    22090850.985
  20579136.346     2854058.32643   2230001.53642  20579137.679    20579135.842
  20282022.825    -4622853.11644  -3590005.73542  20282025.331    20282022.170
  20792768.457     9969673.76644   7774179.80842  20792770.069    20792767.747
  22238324.101   -12640433.63643  -9807768.92942  22238326.198    22238324.636
  21157160.510   -16761114.02843 -12297670.95942  21157161.959    21157160.073
 03 12 30  0 25  0.0000000  0  6G24G17G30G 5G 6G10
  22105221.580    18638118.88543  14526093.12142  22105223.305    22105222.079
  20581549.136     2866737.48544   2239881.40942  20581550.474    20581548.574
  20278018.909    -4643893.77844  -3606401.04442  20278021.419    20278018.216
  20803435.203    10025727.80044   7817858.27042  20803436.840    20803434.534
  22226508.422   -12702525.18143  -9856151.92542  22226510.542    22226508.881
  21151153.719   -16792680.13043 -12322267.89042  21151155.185    21151153.235
 03 12 30  0 25 30.0000000  0  6G24G17G30G 5G 6G10
  22119622.613    18713796.99843  14585063.06242  22119624.378    22119623.196
  20584032.270     2879786.52944   2250049.50342  20584033.653    20584031.664
  20274121.750    -4664373.31444  -3622359.11842  20274124.292    20274121.053
  20814192.610    10082258.05244   7861907.80942  20814194.248    20814191.921
  22214708.563   -12764533.86743  -9904470.34242  22214710.683    22214708.968
  21145261.193   -16823645.09543 -12346396.41242  21145262.716    21145260.777
 03 12 30  0 26  0.0000000  0  6G24G17G30G 5G 6G10
  22134053.783    18789633.98043  14644156.80142  22134055.623    22134054.479
  20586586.156     2893207.26944   2260507.23342  20586587.543    20586585.549
  20270332.245    -4684287.49344  -3637876.65142  20270334.810    20270331.502
  20825040.899    10139266.39344   7906329.88042  20825042.584    20825040.291
  22202925.160   -12826456.11943  -9952721.41542  22202927.270    22202925.531
  21139483.940   -16854004.61043 -12370053.15442  21139485.430    21139483.503
 03 12 30  0 26 30.0000000  0  6G24G17G30G 5G 6G10
  22148513.799    18865621.86443  14703368.11642  22148515.615    22148514.499
  20589209.317     2906992.34544   2271248.85342  20589210.681    20589208.767
  20266649.363    -4703641.28044  -3652957.51942  20266651.982    20266648.613
  20835978.805    10196745.18444   7951118.54042  20835980.486    20835978.160
  22191157.166   -12888297.32443 -10000909.32542  22191159.247    22191157.481
  21133821.084   -16883763.41343 -12393241.80042  21133822.527    21133820.531
 03 12 30  0 27  0.0000000  0  6G24G17G30G 5G 6G10
  22163003.201    18941763.90943  14762699.56442  22163005.018    22163003.934
  20591902.604     2921145.75644   2282277.48442  20591903.935    20591902.061
  20263074.372    -4722428.40644  -3667596.83042  20263076.983    20263073.534
  20847006.861    10254697.89644   7996276.48142  20847008.526    20847006.232
  22179405.679   -12950051.59543 -10049029.49542  22179407.756    22179405.960
  21128273.686   -16912914.97943 -12415957.28042  21128275.156    21128273.194
 03 12 30  0 27 30.0000000  0  6G24G17G30G 5G 6G10
  22177521.620    19018058.47143  14822149.85342  22177523.441    22177522.423
  20594665.845     2935666.64144   2293592.46442  20594667.160    20594665.291
  20259607.409    -4740647.60744  -3681793.60042  20259610.036    20259606.527
  20858124.985    10313123.74444   8041803.10742  20858126.659    20858124.326
  22167670.912   -13011717.89143 -10097081.12742  22167672.970    22167671.172
  21122842.069   -16941457.55143 -12438198.22042  21122843.590    21122841.766
 03 12 30  0 28  0.0000000  0  6G24G17G30G 5G 6G10
  22192068.494    19094502.96543  14881716.97542  22192070.317    22192069.386
  20597498.689     2950553.05244   2305192.27542  20597500.050    20597498.087
  20256248.632    -4758298.07944  -3695547.20142  20256251.261    20256247.757
  20869332.615    10372020.47544   8087696.65542  20869334.320    20869332.003
  22155952.845   -13073296.01943 -10145064.05142  22155954.951    22155953.173
  21117526.671   -16969390.27743 -12459963.95242  21117528.116    21117526.405
 03 12 30  0 28 30.0000000  0  6G24G17G30G 5G 6G10
  22206641.510    19171084.57943  14941390.95342  22206643.333    22206642.368
  20600398.705     2965792.86744   2317067.46842  20600400.136    20600398.137
  20252996.108    -4775390.04044  -3708865.60142  20252998.743    20252995.231
  20880627.519    10431375.54444   8133947.35242  20880629.211    20880626.904
  22144249.660   -13134796.39243 -10192986.39442  22144251.707    22144249.898
  21112325.521   -16996723.11444 -12481262.23442  21112326.954    21112325.141
 03 12 30  0 29  0.0000000  0  7G24G17G30G 5G 6G21G10
  22221241.895    19247810.10343  15001177.05642  22221243.731    22221242.690
  20603367.424     2981393.79244   2329224.03642  20603368.868    20603366.929
  20249851.654    -4791913.57744  -3721741.06742  20249854.336    20249850.889
  20892010.906    10491196.25544   8180560.88742  20892012.607    20892010.359
  22132563.020   -13196209.40043 -10240840.65442  22132565.051    22132563.299
  24179977.032
  21107240.419   -17023445.79944 -12502085.07242  21107241.897    21107239.989
 03 12 30  0 29 30.0000000  0  7G24G17G30G 5G 6G21G10
  22235869.596    19324678.94443  15061074.83542  22235871.375    22235870.349
  20606404.868     2997355.81344   2341661.98342  20606406.272    20606404.377
  20246815.957    -4807866.19144  -3734171.66442  20246818.543    20246815.175
  20903483.041    10551482.84944   8227537.44742  20903484.698    20903482.470
  22120893.557   -13257532.83643 -10288625.12142  22120895.537    22120893.727
  24163083.229
  21102271.941   -17049555.57944 -12522430.33542  21102273.434    21102271.455
 03 12 30  0 30  0.0000000  0  7G24G17G30G 5G 6G21G10
  22250524.508    19401691.17643  15121084.36442  22250526.281    22250525.314
  20609511.124     3013679.20444   2354381.52042  20609512.510    20609510.629
  20243889.331    -4823245.25744  -3746155.33842  20243891.918    20243888.652
  20915043.727    10612234.82144   8274876.62942  20915045.375    20915043.172
  22109241.553   -13318764.47243 -10336338.04742  22109243.544    22109241.752
  24146221.824
  21097420.598   -17075049.75144 -12542295.90242  21097422.098    21097420.052
 03 12 30  0 30 30.0000000  0  7G24G17G30G 5G 6G21G10
  22265207.176    19478849.19143  15181207.48842  22265208.944    22265208.053
  20612686.836     3030367.65244   2367385.51342  20612688.243    20612686.353
  20241072.991    -4838045.37544  -3757687.88442  20241075.538    20241072.288
  20926693.598    10673455.24944   8322580.84542  20926695.186    20926693.005
  22097608.081   -13379898.95443 -10383975.27642  22097610.098    22097608.288
  24129393.263    -1352822.20853   -837580.63352  24129395.064    24129394.851
  21092687.552   -17099922.32044 -12561677.09942  21092689.034    21092686.913
 03 12 30  0 31  0.0000000  0  7G24G17G30G 5G 6G21G10
  22279916.326    19556146.06043  15241438.81142  22279918.040    22279917.062
  20615930.826     3047414.71944   2380668.95342  20615932.255    20615930.327
  20238366.088    -4852270.39444  -3768772.30542  20238368.640    20238365.363
  20938431.444    10735137.94344   8370645.27742  20938433.013    20938430.783
  22085992.237   -13440940.61043 -10431540.16442  22085994.321    22085992.491
  24112597.460    -1441083.63343   -906355.59242  24112599.984    24112599.432
  21088072.018   -17124177.08844 -12580576.89242  21088073.509    21088071.298
 03 12 30  0 31 30.0000000  0  7G24G17G30G 5G 6G21G10
  22294652.268    19633583.83343  15301779.92242  22294653.995    22294652.917
  20619243.490     3064822.93644   2394233.81342  20619244.965    20619243.025
  20235769.528    -4865915.64544  -3779404.96142  20235772.091    20235768.812
  20950257.636    10797284.99044   8419071.53742  20950259.233    20950256.975
  22074394.887   -13501884.72743 -10479029.06242  22074397.061    22074395.209
  24095833.807    -1529169.90053   -974994.05052  24095837.394    24095837.255
  21083574.961   -17147808.84443 -12598991.22042  21083576.481    21083574.230
 03 12 30  0 32  0.0000000  0  7G24G17G30G 5G 6G21G10
  22309411.444    19711143.21243  15362215.79142  22309413.133    22309411.911
  20622621.311     3082573.69344   2408065.58642  20622622.803    20622620.868
  20233280.109    -4878997.38644  -3789598.51242  20233282.698    20233279.510
  20962168.684    10859877.70944   8467845.07842  20962170.242    20962167.980
  22062813.037   -13562747.86943 -10526454.86242  22062815.191    22062813.355
  24079101.742    -1617097.35653  -1043508.73152  24079104.726    24079104.825
  21079193.272   -17170834.33643 -12616933.13642  21079194.789    21079192.601
 03 12 30  0 32 30.0000000  0  7G24G17G30G 5G 6G21G10
  22324196.051    19788836.54743  15422756.04242  22324197.732    22324196.430
  20626066.738     3100679.83644   2422174.27542  20626068.229    20626066.345
  20230900.733    -4891500.88044  -3799341.47942  20230903.301    20230900.274
  20974166.681    10922928.02444   8516975.18542  20974168.261    20974166.033
  22051249.418   -13623515.24743 -10573806.04142  22051251.539    22051249.671
  24062403.011    -1704851.20343  -1111888.16642  24062405.533    24062404.923
  21074929.967   -17193238.18543 -12634390.65742  21074931.426    21074929.307
 03 12 30  0 33  0.0000000  0  7G24G17G30G 5G 6G21G10
  22339005.040    19866658.07043  15483396.18042  22339006.726    22339005.379
  20629578.850     3119136.10344   2436555.78842  20629580.299    20629578.475
  20228630.728    -4903429.23244  -3808636.28742  20228633.303    20228630.390
  20986250.784    10986430.67144   8566457.75942  20986252.359    20986250.180
  22039703.455   -13684190.01043 -10621085.04742  22039705.565    22039703.649
  24045736.932    -1792434.31043  -1180134.58342  24045738.982    24045737.532
  21070784.333   -17215023.19743 -12651365.96542  21070785.847    21070783.750
 03 12 30  0 33 30.0000000  0  7G24G17G30G 5G 6G21G10
  22353838.955    19944610.78343  15544138.55542  22353840.713    22353839.331
  20633158.370     3137946.53744   2451213.27542  20633159.802    20633158.013
  20226471.446    -4914776.30744  -3817478.14942  20226473.980    20226471.085
  20998421.679    11050389.20344   8616295.56242  20998423.190    20998421.063
  22028176.178   -13744766.27643 -10668287.30942  22028178.341    22028176.281
  24029103.868    -1879841.10443  -1248243.65942  24029106.298    24029103.929
  21066757.692   -17236183.08243 -12667854.15342  21066759.183    21066757.193
 03 12 30  0 34  0.0000000  0  7G24G17G30G 5G 6G21G10
  22368697.102    20022690.92043  15604980.20942  22368698.843    22368697.464
  20636804.516     3157107.08344   2466143.57542  20636805.950    20636804.133
  20224422.518    -4925543.61144  -3825868.24842  20224425.045    20224422.051
  21010678.555    11114799.57644   8666485.44642  21010680.046    21010677.974
  22016667.317   -13805245.61143 -10715414.03842  22016669.462    22016667.370
  24012504.158    -1967072.87743  -1316216.39042  24012506.786    24012503.596
  21062849.647   -17256719.41843 -12683856.46342  21062851.181    21062849.257
 03 12 30  0 34 30.0000000  0  7G24G17G30G 5G 6G21G10
  22383578.722    20100894.31543  15665917.91542  22383580.436    22383578.889
  20640516.668     3176614.50344   2481344.16842  20640518.110    20640516.240
  20222483.587    -4935732.72844  -3833807.81342  20222486.138    20222483.038
  21023020.665    11179657.55744   8717024.12142  21023022.140    21023020.058
  22005176.637   -13865629.43943 -10762466.35342  22005178.766    22005176.688
  23995937.295    -2054131.87443  -1384054.47642  23995940.053    23995936.574
  21059059.985   -17276633.53543 -12699373.92842  21059061.516    21059059.692
 03 12 30  0 35  0.0000000  0  7G24G17G30G 5G 6G21G10
  22398483.745    20179220.42143  15726951.24442  22398485.396    22398483.710
  20644294.774     3196468.76244   2496815.02442  20644296.218    20644294.361
  20220655.144    -4945341.48844  -3841295.14842  20220657.676    20220654.453
  21035447.877    11244962.93444   8767911.41442  21035449.361    21035447.261
  21993704.623   -13925915.48643 -10809442.47242  21993706.677    21993704.603
  23979403.786    -2141015.38143  -1451755.81442  23979406.779    23979402.971
  21055389.313   -17295922.81043 -12714404.51042  21055390.782    21055388.983
 03 12 30  0 35 30.0000000  0  7G24G17G30G 5G 6G21G10
  22413411.290    20257665.27543  15788077.09942  22413412.935    22413411.188
  20648138.291     3216666.41644   2512553.45442  20648139.676    20648137.834
  20218936.812    -4954371.36744  -3848331.40842  20218939.356    20218935.994
  21047959.524    11310711.94944   8819144.40242  21047961.009    21047958.902
  21982251.013   -13986105.19843 -10856343.50942  21982253.045    21982250.857
  23962903.587    -2227724.39443  -1519321.18942  23962906.497    23962902.409
  21051837.352   -17314588.73744 -12728949.36042  21051838.785    21051836.848
 03 12 30  0 36  0.0000000  0  7G24G17G30G 5G 6G21G10
  22428361.647    20336229.93243  15849296.30342  22428363.239    22428361.635
  20652047.397     3237209.06944   2528560.71242  20652048.786    20652046.935
  20217329.361    -4962818.48444  -3854913.57242  20217331.916    20217328.490
  21060555.750    11376905.69944   8870723.93442  21060557.263    21060555.137
  21970816.390   -14046194.68943 -10903166.46342  21970818.510    21970816.131
  23946437.546    -2314255.19043  -1586747.74442  23946440.522    23946435.667
  21048404.818   -17332626.86444 -12743005.03042  21048406.275    21048404.206
 03 12 30  0 36 30.0000000  0  7G24G17G30G 5G 6G21G10
  22443334.532    20414912.98443  15910607.76842  22443336.022    22443334.656
  20656022.122     3258096.05544   2544836.28542  20656023.501    20656021.553
  20215833.001    -4970681.81144  -3861040.83342  20215835.545    20215832.079
  21073236.462    11443542.91744   8922649.02542  21073237.948    21073235.753
  21959400.938   -14106182.76543 -10949910.38942  21959403.172    21959400.725
  23930005.386    -2400606.46843  -1654034.36242  23930008.567    23930003.411
  21045091.943   -17350036.33544 -12756570.82742  21045093.426    21045091.196
 03 12 30  0 37  0.0000000  0  7G24G17G30G 5G 6G21G10
  22458329.044    20493709.41343  15972007.57542  22458330.454    22458329.061
  20660061.338     3279322.41644   2561376.31442  20660062.766    20660060.698
  20214447.239    -4977964.07844  -3866715.31342  20214449.790    20214446.283
  21086000.575    11510618.45644   8974915.67042  21086002.066    21085999.771
  21948004.396   -14166071.83943 -10996577.16242  21948006.632    21948004.206
  23913606.691    -2486780.79043  -1721183.13742  23913610.000    23913604.961
  21041898.174   -17366819.70644 -12769648.74642  21041899.723    21041897.318
 03 12 30  0 37 30.0000000  0  7G24G17G30G 5G 6G21G10
  22473345.199    20572619.97643  16033496.32142  22473346.645    22473345.166
  20664165.454     3300889.51844   2578181.84842  20664166.906    20664164.741
  20213172.723    -4984661.86844  -3871934.36042  20213175.272    20213171.727
  21098848.298    11578133.46744   9027524.76042  21098849.851    21098847.390
  21936627.247   -14225858.45843 -11043164.09642  21936629.493    21936627.181
  23897242.500    -2572774.93443  -1788191.49442  23897245.717    23897241.078
  21038824.188   -17382973.50044 -12782236.10042  21038825.749    21038823.334
 03 12 30  0 38  0.0000000  0  7G24G17G30G 5G 6G21G10
  22488382.409    20651641.47743  16095071.50842  22488383.817    22488382.337
  20668333.793     3322794.33944   2595250.54642  20668335.282    20668333.106
  20212009.239    -4990776.14844  -3876698.72742  20212011.789    20212008.267
  21111778.975    11646084.50544   9080473.60842  21111780.591    21111777.993
  21925269.583   -14285543.54843 -11089671.91842  21925271.731    21925269.463
  23880912.618    -2658589.59543  -1855060.02442  23880915.733    23880911.289
  21035869.828   -17398498.38744 -12794333.41042  21035871.385    21035869.130
 03 12 30  0 38 30.0000000  0  7G24G17G30G 5G 6G21G10
  22503440.476    20730772.10043  16156731.72242  22503441.775    22503440.365
  20672566.247     3345035.92644   2612581.65442  20672567.703    20672565.537
  20210956.907    -4996306.28044  -3881007.90842  20210959.457    20210955.949
  21124792.248    11714469.52744   9133760.62542  21124793.912    21124791.170
  21913931.439   -14345125.89443 -11136099.67842  21913933.579    21913931.340
  23864617.072    -2744224.17443  -1921788.16442  23864620.066    23864615.866
  21033035.363   -17413393.74744 -12805940.17842  21033036.870    21033034.730
 03 12 30  0 39  0.0000000  0  7G24G17G30G 5G 6G21G10
  22518519.001    20810010.61643  16218476.02942  22518520.226    22518519.013
  20676862.574     3367613.26844   2630174.38842  20676864.048    20676861.826
  20210015.887    -5001251.28144  -3884861.15442  20210018.456    20210014.916
  21137887.873    11783287.30844   9187384.85042  21137889.557    21137886.762
  21902612.974   -14404604.34043 -11182446.48442  21902615.132    21902612.946
  23848355.963    -2829677.24443  -1988374.91442  23848359.053    23848354.887
  21030320.963   -17427658.17744 -12817055.30742  21030322.453    21030320.290
 03 12 30  0 39 30.0000000  0  7G24G17G30G 5G 6G21G10
  22533618.423    20889359.07143  16280305.97642  22533619.604    22533618.635
  20681223.286     3390528.72144   2648030.58942  20681224.756    20681222.433
  20209187.105    -5005606.69744  -3888254.98142  20209189.659    20209186.086
  21151066.178    11852539.95044   9241347.93042  21151067.937    21151065.243
  21891315.171   -14463974.16843 -11228708.65042  21891317.318    21891315.216
  23832129.971    -2914944.39743  -2054816.77242  23832133.063    23832129.480
  21027727.499   -17441287.18244 -12827675.29642  21027729.009    21027726.697
 03 12 30  0 40  0.0000000  0  7G24G17G30G 5G 6G21G10
  22548737.316    20968809.10643  16342215.08042  22548738.337    22548737.471
  20685646.773     3413774.54944   2666144.22642  20685648.263    20685645.989
  20208469.279    -5009378.61444  -3891194.13342  20208471.864    20208468.311
  21164325.667    11922219.14744   9295643.38242  21164327.387    21164324.910
  21880037.010   -14523240.90243 -11274890.48342  21880039.178    21880037.152
  23815938.309    -3000031.29243  -2121118.17842  23815941.337    23815938.106
  21025253.854   -17454286.39744 -12837804.54742  21025255.351    21025252.958
 03 12 30  0 40 30.0000000  0  7G24G17G30G 5G 6G21G10
  22563875.316    21048360.41543  16404203.09642  22563876.377    22563875.539
  20690133.143     3437350.64244   2684515.21142  20690134.612    20690132.389
  20207862.955    -5012564.96544  -3893677.00042  20207865.508    20207862.012
  21177666.230    11992324.02944   9350270.54342  21177667.920    21177665.545
  21868779.038   -14582402.19343 -11320990.15442  21868781.117    21868779.099
  23799781.650    -3084935.75243  -2187277.42342  23799784.409    23799781.447
  21022900.378   -17466654.07844 -12847441.68442  21022901.877    21022899.378
 03 12 30  0 41  0.0000000  0  7G24G17G30G 5G 6G21G10
  22579032.811    21128012.82143  16466269.90542  22579033.740    22579032.706
  20694682.432     3461257.19444   2703143.70542  20694683.840    20694681.663
  20207368.387    -5015163.84244  -3895702.09542  20207370.965    20207367.509
  21191087.724    12062854.47744   9405229.31442  21191089.379    21191087.114
  21857541.595   -14641455.80343 -11367005.91442  21857543.596    21857541.535
  23783659.919    -3169655.61143  -2253292.80442  23783662.574    23783659.887
  21020667.476   -17478388.00744 -12856584.98642  21020668.999    21020666.434
 03 12 30  0 41 30.0000000  0  7G24G17G30G 5G 6G21G10
  22594209.503    21207767.10843  16528416.08842  22594210.464    22594209.329
  20699294.814     3485495.22544   2722030.48142  20699296.201    20699294.014
  20206986.249    -5017172.28444  -3897267.11642  20206988.810    20206985.379
  21204590.339    12133811.12844   9460520.18842  21204591.915    21204589.757
  21846325.206   -14700398.25843 -11412935.06742  21846327.289    21846325.152
  23767573.925    -3254187.67143  -2319161.87242  23767576.456    23767574.067
  21018555.728   -17489485.26144 -12865232.18542  21018557.238    21018554.717
 03 12 30  0 42  0.0000000  0  7G24G17G30G 5G 6G21G10
  22609404.486    21287617.30243  16590637.01042  22609405.514    22609404.343
  20703969.298     3510059.49444   2741171.48142  20703970.678    20703968.492
  20206715.749    -5018594.05644  -3898374.99042  20206718.295    20206714.892
  21218172.904    12205188.04244   9516138.55242  21218174.448    21218172.389
  21835129.323   -14759232.86543 -11458780.17642  21835131.437    21835129.254
  23751523.027    -3338535.19043  -2384887.15042  23751525.400    23751523.257
  21016564.456   -17499949.39844 -12873386.04342  21016565.962    21016563.511
 03 12 30  0 42 30.0000000  0  7G24G17G30G 5G 6G21G10
  22624617.994    21367564.05643  16652933.18642  22624619.125    22624617.674
  20708705.900     3534950.72544   2760567.25642  20708707.321    20708705.208
  20206557.359    -5019426.47844  -3899023.62942  20206559.906    20206556.480
  21231835.483    12276985.18844   9572084.36642  21231837.001    21231835.007
  21823954.396   -14817956.51743 -11504538.83242  21823956.621    21823954.450
  23735507.867    -3422695.29143  -2450466.36742  23735510.150    23735508.264
  21014694.181   -17509777.61744 -12881044.37742  21014695.669    21014693.302
 03 12 30  0 43  0.0000000  0  7G24G17G30G 5G 6G21G10
  22639848.679    21447601.62243  16715300.11442  22639849.979    22639848.316
  20713503.719     3560163.52444   2780213.59742  20713505.132    20713503.125
  20206510.352    -5019673.17044  -3899215.85142  20206512.903    20206509.513
  21245576.970    12349196.71044   9628353.06742  21245578.468    21245576.460
  21812800.113   -14876572.12743 -11550213.30242  21812802.282    21812800.140
  23719527.955    -3506671.46843  -2515902.25642  23719530.155    23719528.275
  21012944.233   -17518973.25443 -12888209.79442  21012945.703    21012943.440
 03 12 30  0 43 30.0000000  0  7G24G17G30G 5G 6G21G10
  22655097.464    21527734.91643  16777741.64442  22655099.000    22655097.041
  20718363.709     3585703.21744   2800114.66142  20718365.105    20718363.157
  20206576.188    -5019326.98944  -3898946.09442  20206578.739    20206575.347
  21259398.218    12421827.65844   9684948.59642  21259399.719    21259397.738
  21801667.909   -14935072.10243 -11595797.66642  21801669.965    21801667.922
  23703584.152    -3590456.15743  -2581188.96142  23703586.509    23703584.514
  21011316.079   -17527529.39344 -12894876.90542  21011317.499    21011315.247
 03 12 30  0 44  0.0000000  0  7G24G17G30G 5G 6G21G10
  22670363.557    21607958.98343  16840253.89842  22670365.191    22670363.146
  20723285.058     3611564.86844   2820266.60142  20723286.435    20723284.404
  20206754.307    -5018391.06144  -3898216.79742  20206756.867    20206753.420
  21273298.247    12494872.85244   9741866.90642  21273299.772    21273297.878
  21790557.226   -14993458.85343 -11641293.81442  21790559.234    21790557.264
  23687676.202    -3674052.35343  -2646328.75642  23687678.513    23687676.668
  21009809.086   -17535449.03644 -12901048.03142  21009810.534    21009808.141
 03 12 30  0 44 30.0000000  0  7G24G17G30G 5G 6G21G10
  22685646.462    21688270.98743  16902834.67942  22685648.203    22685645.934
  20728267.259     3637746.39144   2840667.79842  20728268.670    20728266.542
  20207044.581    -5016865.87844  -3897028.34542  20207047.120    20207043.639
  21287276.580    12568329.01044   9799105.45142  21287278.084    21287276.156
  21779468.095   -15051732.42943 -11686701.76942  21779470.087    21779468.096
  23671804.303    -3757459.65643  -2711321.39642  23671806.469    23671804.630
  21008423.086   -17542732.43744 -12906723.38942  21008424.629    21008422.078
 03 12 30  0 45  0.0000000  0  7G24G17G30G 5G 6G21G10
  22700946.183    21768671.92543  16965484.75542  22700948.041    22700945.732
  20733310.453     3664248.59844   2861318.88142  20733311.885    20733309.784
  20207447.458    -5014748.82744  -3895378.69242  20207450.007    20207446.468
  21301333.059    12642196.35444   9856664.39242  21301334.588    21301332.673
  21768401.162   -15109889.61743 -11732019.03542  21768403.202    21768401.119
  23655968.782    -3840675.57143  -2776164.88942  23655970.892    23655969.113
  21007158.624   -17549376.89544 -12911900.86942  21007160.200    21007157.678
 03 12 30  0 45 30.0000000  0  7G24G17G30G 5G 6G21G10
  22716261.637    21849155.11043  17028198.92242  22716263.538    22716261.364
  20738413.416     3691065.16344   2882214.91942  20738414.879    20738412.860
  20207962.025    -5012044.71644  -3893271.59242  20207964.570    20207961.043
  21315466.505    12716468.16144   9914538.50842  21315468.075    21315466.081
  21757355.606   -15167934.33543 -11777248.65042  21757357.642    21757355.562
  23640169.042    -3923704.25743  -2840862.46542  23640171.100    23640169.219
  21006014.786   -17555387.08943 -12916584.12842  21006016.351    21006014.090
 03 12 30  0 46  0.0000000  0  7G24G17G30G 5G 6G21G10
  22731593.484    21929724.93643  17090980.59542  22731595.519    22731593.406
  20743577.083     3718200.68344   2903359.48042  20743578.522    20743576.589
  20208589.464    -5008747.36244  -3890702.21842  20208592.007    20208588.497
  21329677.669    12791148.54844   9972731.00242  21329679.244    21329677.252
  21746332.786   -15225859.70943 -11822385.28642  21746334.810    21746332.707
  23624406.010    -4006539.12643  -2905409.02442  23624408.220    23624406.231
  21004992.918   -17560756.93843 -12920768.41142  21004994.380    21004992.340
 03 12 30  0 46 30.0000000  0  7G24G17G30G 5G 6G21G10
  22746941.062    22010376.29143  17153825.80342  22746943.000    22746940.957
  20748800.563     3745650.46144   2924748.91642  20748801.976    20748800.082
  20209329.216    -5004859.70144  -3887672.86742  20209331.791    20209328.289
  21343965.442    12866231.68544  10031237.32342  21343967.007    21343965.064
  21735332.236   -15283667.96643 -11867430.65142  21735334.282    21735332.145
  23608679.421    -4089182.32443  -2969806.22142  23608681.618    23608679.642
  21004092.305   -17565489.40243 -12924456.03342  21004093.772    21004091.868
 03 12 30  0 47  0.0000000  0  7G24G17G30G 5G 6G21G10
  22762303.956    22091108.84543  17216734.27742  22762305.926    22762303.975
  20754083.880     3773414.26544   2946383.05142  20754085.277    20754083.327
  20210181.592    -5000380.49844  -3884182.58142  20210184.136    20210180.669
  21358329.877    12941717.04944  10090057.06642  21358331.397    21358329.369
  21724354.382   -15341357.02243 -11912383.13742  21724356.469    21724354.277
  23592989.623    -4171632.55243  -3034053.04542  23592991.652    23592989.764
  21003313.398   -17569582.90343 -12927645.75542  21003314.861    21003312.936
 03 12 30  0 47 30.0000000  0  7G24G17G30G 5G 6G21G10
  22777682.075    22171921.23343  17279704.95642  22777684.099    22777682.138
  20759426.747     3801491.03144   2968261.05742  20759428.137    20759426.143
  20211146.642    -4995309.13544  -3880230.86842  20211149.200    20211145.722
  21372770.374    13017602.35743  10149188.46042  21372771.918    21372769.802
  21713399.530   -15398925.51043 -11957241.67042  21713401.606    21713399.365
  23577336.786    -4253888.57443  -3098148.53142  23577338.603    23577336.980
  21002656.094   -17573036.86143 -12930337.13542  21002657.542    21002655.684
 03 12 30  0 48  0.0000000  0  7G24G17G30G 5G 6G21G10
  22793074.739    22252810.23343  17342735.33342  22793076.733    22793074.804
  20764828.420     3829877.39744   2990380.31442  20764829.841    20764827.884
  20212224.099    -4989647.29844  -3875819.04942  20212226.652    20212223.112
  21387286.321    13093884.57443  10208629.13542  21387287.901    21387285.842
  21702467.323   -15456374.25543 -12002006.89942  21702469.450    21702467.189
  23561720.566    -4335952.00143  -3162093.99242  23561722.444    23561720.848
  21002120.143   -17575852.75843 -12932531.31942  21002121.618    21002119.832
 03 12 30  0 48 30.0000000  0  7G24G17G30G 5G 6G21G10
  22808481.250    22333771.40343  17405821.94342  22808483.167    22808481.200
  20770288.370     3858569.67144   3012737.93942  20770289.797    20770287.818
  20213413.399    -4983397.28844  -3870948.91742  20213415.998    20213412.458
  21401876.918    13170558.67943  10268375.18242  21401878.446    21401876.446
  21691557.576   -15513704.77443 -12046680.00042  21691559.729    21691557.524
  23546141.069    -4417824.33143  -3225890.48842  23546142.695    23546140.879
  21001705.124   -17578033.28643 -12934230.41642  21001706.553    21001704.817
 03 12 30  0 49  0.0000000  0  7G24G17G30G 5G 6G21G10
  22823902.808    22414812.30443  17468970.69142  22823904.743    22823902.729
  20775807.989     3887575.35644   3035339.77442  20775809.399    20775807.389
  20214716.367    -4976550.15544  -3865613.48642  20214718.941    20214715.447
  21416543.494    13247631.84243  10328432.18142  21416545.042    21416543.005
  21680672.446   -15570906.90143 -12091253.05542  21680674.484    21680672.262
  23530599.352    -4499495.85243  -3289530.58242  23530601.022    23530598.928
  21001412.793   -17579569.22543 -12935427.23742  21001414.192    21001412.475
 03 12 30  0 49 30.0000000  0  7G24G17G30G 5G 6G21G10
  22839337.776    22495923.11543  17532173.90542  22839339.645    22839337.579
  20781385.383     3916884.79744   3058178.30542  20781386.784    20781384.801
  20216131.380    -4969114.03044  -3859819.10642  20216133.936    20216130.518
  21431284.115    13325094.06543  10388792.33042  21431285.723    21431283.580
  21669810.325   -15627987.91043 -12135731.72842  21669812.346    21669810.009
  23515094.312    -4580974.39143  -3353020.27842  23515095.957    23515093.738
  21001241.669   -17580468.39943 -12936127.87842  21001243.081    21001241.316
 03 12 30  0 50  0.0000000  0  7G24G17G30G 5G 6G21G10
  22854786.804    22577108.44543  17595435.19142  22854788.684    22854786.637
  20787021.480     3946502.75944   3081257.23742  20787022.860    20787020.962
  20217659.657    -4961082.78844  -3853560.99042  20217662.167    20217658.851
  21446099.383    13402948.72643  10449458.28542  21446101.000    21446098.828
  21658972.631   -15684940.68043 -12180110.48642  21658974.680    21658972.126
  23499627.145    -4662253.32743  -3416354.41542  23499628.769    23499626.582
  21001192.938   -17580724.92043 -12936327.74542  21001194.323    21001192.442
 03 12 30  0 50 30.0000000  0  7G24G17G30G 5G 6G21G10
  22870248.233    22658358.66443  17658747.02942  22870250.046    22870248.039
  20792714.454     3976419.60244   3104569.06942  20792715.838    20792713.994
  20219299.691    -4952464.29944  -3846845.28442  20219302.190    20219298.923
  21460987.369    13481185.93143  10510422.33042  21460988.995    21460986.877
  21648157.931   -15741772.13343 -12224394.70842  21648160.070    21648157.414
  23484197.050    -4743339.75443  -3479538.54042  23484198.448    23484196.264
  21001264.892   -17580346.51343 -12936032.86942  21001266.277    21001264.412
 03 12 30  0 51  0.0000000  0  7G24G17G30G 5G 6G21G10
  22885722.742    22739678.24343  17722112.92842  22885724.615    22885722.622
  20798465.226     4006640.19544   3128117.59242  20798466.621    20798464.765
  20221052.663    -4943252.58544  -3839667.32742  20221055.139    20221051.896
  21475948.901    13559809.46843  10571687.40642  21475950.507    21475948.479
  21637367.658   -15798475.19743 -12268578.88542  21637369.812    21637367.142
  23468804.782    -4824227.25443  -3542567.67342  23468806.139    23468803.760
  21001458.835   -17579327.28243 -12935238.64942  21001460.204    21001458.311
 03 12 30  0 51 30.0000000  0  7G24G17G30G 5G 6G21G10
  22901210.619    22821067.85543  17785533.38842  22901212.492    22901210.571
  20804273.922     4037164.98344   3151903.15142  20804275.317    20804273.415
  20222918.873    -4933445.45344  -3832025.40942  20222921.372    20222918.132
  21490983.955    13638819.20243  10633253.42342  21490985.559    21490983.561
  21626602.480   -15855046.67643 -12312660.53142  21626604.591    21626601.895
  23453450.441    -4904912.77543  -3605439.42342  23453452.036    23453449.769
  21001775.123   -17577665.04043 -12933943.37342  21001776.448    21001774.604
 03 12 30  0 52  0.0000000  0  7G24G17G30G 5G 6G21G10
  22916710.701    22902520.47043  17849002.94642  22916712.455    22916710.531
  20810139.198     4067987.40244   3175920.62642  20810140.614    20810138.715
  20224897.314    -4923048.68144  -3823924.03342  20224899.817    20224896.504
  21506091.125    13718207.58443  10695114.49142  21506092.689    21506090.721
  21615861.363   -15911491.13043 -12356643.20542  21615863.504    21615860.868
  23438133.604    -4985401.80443  -3668158.07242  23438135.350    23438133.068
  21002212.669   -17575365.30743 -12932151.35742  21002214.015    21002212.229
 03 12 30  0 52 30.0000000  0  7G24G17G30G 5G 6G21G10
  22932222.461    22984034.83943  17912520.62642  22932224.181    22932222.359
  20816060.889     4099105.98944   3200168.88842  20816062.271    20816060.355
  20226988.000    -4912061.80344  -3815362.83542  20226990.518    20226987.134
  21521270.003    13797973.48543  10757269.72542  21521271.583    21521269.717
  21605144.796   -15967806.97243 -12400525.65742  21605146.902    21605144.369
  23422854.568    -5065693.09543  -3730722.59442  23422856.297    23422853.988
  21002771.591   -17572427.69543 -12929862.28842  21002772.962    21002771.258
 03 12 30  0 53  0.0000000  0  7G24G17G30G 5G 6G21G10
  22947746.024    23065611.08543  17976086.51242  22947747.700    22947745.875
  20822038.887     4130521.06544   3224648.16742  20822040.267    20822038.448
  20229191.262    -4900483.44944  -3806340.73442  20229193.760    20229190.344
  21536520.520    13878115.36643  10819717.93742  21536522.058    21536520.211
  21594453.201   -16023991.68943 -12444305.93742  21594455.264    21594452.843
  23407613.669    -5145784.32043  -3793131.29342  23407615.531    23407613.120
  21003452.195   -17568850.90143 -12927075.16942  21003453.529    21003451.923
 03 12 30  0 53 30.0000000  0  7G24G17G30G 5G 6G21G10
  22963280.828    23147247.79343  18039699.52042  22963282.596    22963280.813
  20828073.207     4162231.39544   3249357.52242  20828074.547    20828072.735
  20231507.044    -4888313.59744  -3796857.73042  20231509.545    20231506.145
  21551842.282    13958631.33143  10882457.62742  21551843.818    21551841.909
  21583786.652   -16080044.15343 -12487983.16642  21583788.768    21583786.493
  23392410.916    -5225674.92343  -3855383.65042  23392412.802    23392410.269
  21004254.408   -17564634.98443 -12923790.02842  21004255.734    21004254.193
 03 12 30  0 54  0.0000000  0  7G24G17G30G 5G 6G21G10
  22978827.578    23228947.08143  18103361.29442  22978829.303    22978827.615
  20834164.104     4194239.19344   3274298.66342  20834165.464    20834163.671
  20233936.115    -4875548.58544  -3786910.96242  20233938.615    20233935.261
  21567235.612    14039523.61043  10945490.55542  21567237.192    21567235.252
  21573146.218   -16135959.36843 -12531553.45142  21573148.370    21573146.237
  23377246.898    -5305360.90143  -3917476.53142  23377248.758    23377246.478
  21005179.086   -17559776.20543 -12920003.95142  21005180.360    21005178.677
 03 12 30  0 54 30.0000000  0  7G24G17G30G 5G 6G21G10
  22994384.160    23310698.68743  18167063.83942  22994385.902    22994384.442
  20840309.602     4226534.09744   3299463.52642  20840310.955    20840309.213
  20236476.764    -4862197.55844  -3776507.56242  20236479.271    20236475.924
  21582698.281    14120780.46443  11008807.58342  21582699.910    21582697.980
  21562530.499   -16191745.35643 -12575023.02942  21562532.598    21562530.565
  23362120.467    -5384850.25843  -3979416.21142  23362122.302    23362119.985
  21006224.179   -17554283.78143 -12915724.12242  21006225.516    21006223.789
 03 12 30  0 55  0.0000000  0  7G24G17G30G 5G 6G21G10
  23009952.172    23392507.97143  18230811.32742  23009953.698    23009952.223
  20846510.803     4259121.57244   3324856.37142  20846512.139    20846510.340
  20239130.197    -4848254.02444  -3765642.46642  20239132.707    20239129.389
  21598231.232    14202406.44043  11072412.22942  21598232.866    21598230.946
  21551940.861   -16247394.16843 -12618385.72542  21551942.905    21551940.953
  23347032.962    -5464135.98143  -4041197.20242  23347034.828    23347032.379
  21007391.285   -17548151.00243 -12910945.31542  21007392.582    21007390.845
 03 12 30  0 55 30.0000000  0  7G24G17G30G 5G 6G21G10
  23025530.118    23474369.53843  18294599.55042  23025531.614    23025530.067
  20852766.609     4291995.93944   3350472.76042  20852767.926    20852766.075
  20241895.490    -4833722.10944  -3754318.88742  20241898.032    20241894.794
  21613833.294    14284395.48443  11136299.78042  21613834.963    21613832.954
  21541376.783   -16302908.60643 -12661643.70742  21541378.815    21541376.917
  23331983.460    -5543221.37743  -4102822.11042  23331985.475    23331982.937
  21008679.346   -17541382.08443 -12905670.80942  21008680.679    21008678.976
 03 12 30  0 56  0.0000000  0  7G24G17G30G 5G 6G21G10
  23041118.313    23556286.03043  18358430.57842  23041119.949    23041118.315
  20859077.523     4325160.26244   3376315.10342  20859078.876    20859076.974
  20244773.482    -4818597.77944  -3742533.69442  20244776.014    20244772.889
  21629504.883    14366749.70543  11200471.89342  21629506.582    21629504.386
  21530839.399   -16358283.17843 -12704792.70242  21530841.395    21530839.451
  23316972.855    -5622101.24343  -4164286.82942  23316974.917    23316972.611
  21010089.238   -17533972.82443 -12899897.35042  21010090.587    21010088.909
 03 12 30  0 56 30.0000000  0  7G24G17G30G 5G 6G21G10
  23056716.519    23638255.40043  18422302.81042  23056718.236    23056716.596
  20865443.276     4358612.55944   3402381.82942  20865444.624    20865442.695
  20247764.118    -4802881.73444  -3730287.42242  20247766.646    20247763.581
  21645245.391    14449466.23043  11264926.31142  21645247.105    21645244.818
  21520328.717   -16413517.32843 -12747832.27542  21520330.682    21520328.667
  23302001.339    -5700776.10043  -4225591.83242  23302003.363    23302001.163
  21011620.862   -17525924.46843 -12893625.88542  21011622.203    21011620.431
 03 12 30  0 57  0.0000000  0  7G24G17G30G 5G 6G21G10
  23072323.942    23720273.00743  18486212.64242  23072325.706    23072324.052
  20871862.942     4392347.98144   3428669.18042  20871864.310    20871862.337
  20250866.724    -4786577.79044  -3717583.04242  20250869.227    20250866.122
  21661053.633    14532539.68543  11329658.86242  21661055.421    21661053.175
  21509844.299   -16468613.23143 -12790764.12042  21509846.339    21509844.185
  23287068.343    -5779248.57743  -4286739.13142  23287070.484    23287068.149
  21013273.347   -17517240.38943 -12886859.04342  21013274.820    21013272.889
 03 12 30  0 57 30.0000000  0  7G24G17G30G 5G 6G21G10
  23087940.759    23802339.39043  18550160.47342  23087942.517    23087940.771
  20878336.519     4426367.07944   3455177.56842  20878337.920    20878335.949
  20254081.460    -4769684.23444  -3704419.23042  20254084.022    20254080.892
  21676929.621    14615969.38443  11394669.00942  21676931.442    21676929.316
  21499386.772   -16523567.79643 -12833585.83342  21499388.832    21499386.610
  23272174.363    -5857516.21443  -4347726.81942  23272176.486    23272174.161
  21015047.075   -17507919.03543 -12879595.63242  21015048.618    21015046.588
 03 12 30  0 58  0.0000000  0  7G24G17G30G 5G 6G21G10
  23103566.194    23884451.11843  18614143.60542  23103567.860    23103566.152
  20884863.504     4460666.66544   3481904.51642  20884864.860    20884862.929
  20257408.010    -4752203.29944  -3690797.72442  20257410.579    20257407.463
  21692872.789    14699751.48543  11459953.74842  21692874.544    21692872.494
  21488955.910   -16578381.87943 -12876298.07842  21488957.988    21488955.762
  23257319.174    -5935580.40443  -4408555.99042  23257321.195    23257318.927
  21016941.665   -17497963.02943 -12871837.68342  21016943.171    21016941.109
 03 12 30  0 58 30.0000000  0  7G24G17G30G 5G 6G21G10
  23119200.439    23966609.52243  18678163.14742  23119202.092    23119200.365
  20891444.129     4495247.98044   3508850.99942  20891445.485    20891443.528
  20260846.759    -4734132.57944  -3676716.64242  20260849.307    20260846.259
  21708883.155    14783886.49843  11525513.49242  21708884.851    21708882.747
  21478552.530   -16633051.56143 -12918897.79342  21478554.619    21478552.384
  23242503.374    -6013437.81443  -4469224.02242  23242505.392    23242503.012
  21018957.540   -17487370.02443 -12863583.38042  21018958.955    21018956.895
 03 12 30  0 59  0.0000000  0  7G24G17G30G 5G 6G21G10
  23134842.999    24048812.80543  18742217.65942  23134844.839    23134843.240
  20898078.020     4530109.13444   3536015.53942  20898079.381    20898077.414
  20264397.509    -4715473.02944  -3662176.73642  20264400.059    20264397.091
  21724960.010    14868371.56943  11591346.00842  21724961.722    21724959.619
  21468176.883   -16687575.96243 -12961384.31042  21468178.937    21468176.705
  23227727.043    -6091088.33543  -4529730.85142  23227729.103    23227726.520
  21021094.470   -17476140.37343 -12854832.98742  21021095.906    21021093.824
 03 12 30  0 59 30.0000000  0  7G24G17G30G 5G 6G21G10
  23150493.972    24131059.38243  18806305.89442  23150495.770    23150494.379
  20904764.865     4565248.47844   3563396.85542  20904766.249    20904764.229
  20268060.295    -4696225.06844  -3647178.32142  20268062.805    20268059.810
  21741103.125    14953204.47643  11657449.55142  21741104.765    21741102.692
  21457829.061   -16741954.13343 -13003756.88342  21457831.067    21457828.842
  23212990.032    -6168531.72543  -4590076.27642  23212992.209    23212989.547
  21023352.476   -17464274.76644 -12845587.05642  21023353.905    21023351.753
 03 12 30  1  0  0.0000000  0  7G24G17G30G 5G 6G21G10
  23166152.695    24213347.49943  18870426.50542  23166154.587    23166153.455
  20911504.247     4600664.32144   3590993.62942  20911505.684    20911503.628
  20271834.850    -4676389.73944  -3631722.22742  20271837.366    20271834.323
  21757311.756    15038381.72843  11723821.41742  21757313.334    21757311.399
  21447509.035   -16796185.57543 -13046015.11942  21447511.112    21447508.912
  23198292.323    -6245768.27743  -4650260.54642  23198294.550    23198292.141
  21025731.282   -17451774.52344 -12835846.59742  21025732.706    21025730.450
 03 12 30  1  0 30.0000000  0  7G24G17G30G 5G 6G21G10
  23181819.044    24295674.30143  18934577.25642  23181820.853    23181819.872
  20918295.688     4636353.49844   3618803.37942  20918297.144    20918295.017
  20275720.870    -4655968.86444  -3615809.85742  20275723.364    20275720.299
  21773585.358    15123900.52743  11790459.42542  21773586.908    21773585.135
  21437216.975   -16850270.33743 -13088159.06942  21437219.064    21437216.918
  23183634.083    -6322798.32643  -4710283.90042  23183636.354    23183634.015
  21028230.473   -17438641.28544 -12825612.89942  21028231.938    21028229.530
 03 12 30  1  1  0.0000000  0  7G24G17G30G 5G 6G21G10
  23197492.473    24378039.31443  18998757.78842  23197494.338    23197493.474
  20925139.009     4672315.68644   3646825.86442  20925140.476    20925138.414
  20279718.379    -4634962.04744  -3599440.91142  20279720.893    20279717.799
  21789923.776    15209759.18843  11857362.25842  21789925.275    21789923.548
  21426953.228   -16904206.24443 -13130187.02142  21426955.316    21426953.276
  23169015.442    -6399620.76143  -4770145.47742  23169017.786    23169015.316
  21030850.118   -17424874.85144 -12814885.80042  21030851.622    21030849.106
 03 12 30  1  1 30.0000000  0  7G24G17G30G 5G 6G21G10
  23213172.901    24460439.41843  19062965.65842  23213174.587    23213173.716
  20932033.736     4708547.41644   3675058.38242  20932035.171    20932033.107
  20283826.903    -4613371.82244  -3582617.36042  20283829.426    20283826.289
  21806325.912    15295953.05143  11924526.28742  21806327.430    21806325.713
  21416717.757   -16957994.09043 -13172099.61042  21416719.793    21416717.790
  23154435.903    -6476237.19443  -4829846.54342  23154438.369    23154435.739
  21033589.780   -17410477.80743 -12803667.32042  21033591.277    21033588.764
 03 12 30  1  2  0.0000000  0  7G24G17G30G 5G 6G21G10
  23228860.315    24542878.45043  19127203.84742  23228862.108    23228861.381
  20938980.415     4745052.43344   3703503.85742  20938981.839    20938979.754
  20288047.221    -4591193.43544  -3565335.49542  20288049.789    20288046.679
  21822792.367    15382485.17843  11991953.92042  21822793.914    21822792.266
  21406511.778   -17011627.36143 -13213891.74542  21406513.738    21406511.751
  23139896.674    -6552641.89443  -4889382.63942  23139899.198    23139896.368
  21036450.423   -17395445.37944 -12791953.73542  21036451.901    21036449.406
 03 12 30  1  2 30.0000000  0  7G24G17G30G 5G 6G21G10
  23244554.307    24625349.99343  19191467.38842  23244555.880    23244555.252
  20945977.904     4781824.45344   3732157.38242  20945979.338    20945977.217
  20292378.460    -4568432.60744  -3547599.78342  20292380.983    20292377.904
  21839321.909    15469348.21543  12059639.39342  21839323.412    21839321.790
  21396334.420   -17065110.01543 -13255566.51642  21396336.401    21396334.333
  23125396.775    -6628839.39643  -4948757.27042  23125399.419    23125396.431
  21039430.779   -17379783.46344 -12779749.64142  21039432.243    21039429.848
 03 12 30  1  3  0.0000000  0  7G24G17G30G 5G 6G21G10
  23260254.535    24707856.11343  19255757.87742  23260256.248    23260255.745
  20953026.484     4818865.49944   3761020.54742  20953027.979    20953025.827
  20296821.185    -4545086.24344  -3529407.81142  20296823.703    20296820.541
  21855914.704    15556543.26743  12127583.58042  21855916.206    21855914.498
  21386186.669   -17118437.19043 -13297120.13142  21386188.692    21386186.410
  23110937.106    -6704825.46743  -5007967.16442  23110939.748    23110936.644
  21042531.530   -17363489.04144 -12767052.67842  21042533.006    21042530.529
 03 12 30  1  3 30.0000000  0  7G24G17G30G 5G 6G21G10
  23275961.147    24790393.68043  19320072.85242  23275962.592    23275962.258
  20960125.659     4856172.19944   3790090.71742  20960127.137    20960125.050
  20301374.859    -4521156.82144  -3510761.51142  20301377.397    20301374.137
  21872569.832    15644066.17743  12195783.23842  21872571.357    21872569.528
  21376068.286   -17171609.72843 -13338553.25742  21376070.375    21376067.905
  23096517.412    -6780601.93243  -5067013.72442  23096519.991    23096516.603
  21045752.165   -17346564.64544 -12753864.82442  21045753.671    21045751.056
 03 12 30  1  4  0.0000000  0  7G24G17G30G 5G 6G21G10
  23291673.071    24872960.06643  19384410.31042  23291674.588    23291674.180
  20967274.946     4893741.56544   3819365.56242  20967276.356    20967274.231
  20306039.074    -4496646.58444  -3491662.62542  20306041.610    20306038.215
  21889286.498    15731912.96643  12264235.27142  21889288.078    21889286.144
  21365979.216   -17224627.94043 -13379866.12542  21365981.352    21365978.789
  23082137.381    -6856170.02943  -5125897.92942  23082139.896    23082136.317
  21049092.302   -17329012.45344 -12740187.77942  21049093.773    21049091.101
 03 12 30  1  4 30.0000000  0  7G24G17G30G 5G 6G21G10
  23307391.000    24955556.92543  19448771.49542  23307392.406    23307391.784
  20974474.525     4931575.48944   3848846.55042  20974475.941    20974473.700
  20310814.135    -4471552.98744  -3472109.17242  20310816.727    20310813.323
  21906065.086    15820084.73643  12332940.53442  21906066.651    21906064.665
  21355920.382   -17277487.25243 -13421055.17842  21355922.515    21355919.957
  23067797.552    -6931526.16043  -5184616.93142  23067800.050    23067796.482
  21052552.165   -17310830.23044 -12726019.80542  21052553.675    21052551.107
 03 12 30  1  5  0.0000000  0  7G24G17G30G 5G 6G21G10
  23323113.956    25038182.80643  19513155.31742  23323115.580    23323114.873
  20981724.185     4969672.43344   3878532.48642  20981725.586    20981723.294
  20315700.148    -4445876.82544  -3452101.76642  20315702.678    20315699.320
  21922905.001    15908578.90543  12401897.03342  21922906.579    21922904.565
  21345891.967   -17330186.45143 -13462119.47042  21345894.123    21345891.639
  23053498.350    -7006669.10943  -5243169.84642  23053500.809    23053497.316
  21056131.792   -17292018.60043 -12711361.38842  21056133.283    21056130.911
 03 12 30  1  5 30.0000000  0  7G24G17G30G 5G 6G21G10
  23338841.995    25120834.90143  19577559.54242  23338843.609    23338842.892
  20989023.184     5008029.17044   3908420.85142  20989024.612    20989022.345
  20320696.450    -4419620.61344  -3431642.37242  20320698.991    20320695.754
  21939805.462    15997391.32143  12471101.50642  21939807.051    21939805.033
  21335894.030   -17382726.25744 -13503059.56142  21335896.095    21335893.687
  23039239.333    -7081600.88343  -5301558.21242  23039241.769    23039238.330
  21059830.840   -17272580.25943 -12696214.61742  21059832.282    21059829.921
 03 12 30  1  6  0.0000000  0  7G24G17G30G 5G 6G21G10
  23354574.686    25203510.81343  19641982.34842  23354576.203    23354575.539
  20996371.223     5046643.32044   3938509.80742  20996372.621    20996370.423
  20325802.852    -4392786.08844  -3410732.34842  20325805.393    20325802.195
  21956765.790    16086518.52543  12540551.27242  21956767.366    21956765.451
  21325926.438   -17435106.36844 -13543875.21242  21325928.498    21325926.106
  23025020.452    -7156321.96943  -5359782.40342  23025022.870    23025019.385
  21063648.787   -17252517.09644 -12680580.96842  21063650.147    21063647.832
 03 12 30  1  6 30.0000000  0  7G24G17G30G 5G 6G21G10
  23370312.221    25286212.04243  19706424.85242  23370313.571    23370312.890
  21003768.387     5085516.28344   3968800.42842  21003769.811    21003767.740
  20331019.725    -4365371.12544  -3389370.03442  20331022.304    20331019.126
  21973785.952    16175960.71043  12610246.48042  21973787.580    21973785.769
  21315990.073   -17487322.54344 -13584563.12342  21315992.115    21315989.760
  23010842.210    -7230829.14043  -5417839.90242  23010844.695    23010841.198
  21067585.995   -17231826.74743 -12664458.60942  21067587.387    21067585.056
 03 12 30  1  7  0.0000000  0  7G24G17G30G 5G 6G21G10
  23386054.511    25368936.68943  19770885.62542  23386055.577    23386054.768
  21011214.494     5124645.55944   3999290.78842  21011215.856    21011213.745
  20336346.796    -4337377.51244  -3367556.82842  20336349.324    20336346.133
  21990865.565    16265714.58643  12680184.55742  21990867.146    21990865.327
  21306084.941   -17539374.42844 -13625123.00542  21306087.015    21306084.680
  22996704.431    -7305123.12543  -5475731.27842  22996706.879    22996703.513
  21071642.132   -17210511.33844 -12647849.19042  21071643.529    21071641.276
 03 12 30  1  7 30.0000000  0  7G24G17G30G 5G 6G21G10
  23401800.219    25451681.40343  19835362.03842  23401801.331    23401800.606
  21018708.725     5164028.12444   4029978.50042  21018710.109    21018707.948
  20341783.340    -4308808.02944  -3345294.89242  20341785.883    20341782.691
  22008003.997    16355776.37543  12750362.56042  22008005.488    22008003.498
  21296210.941   -17591262.75244 -13665555.44142  21296213.028    21296210.660
  22982606.933    -7379205.21643  -5533457.56342  22982609.309    22982606.155
  21075816.683   -17188573.83443 -12630755.01842  21075818.074    21075815.925
 03 12 30  1  8  0.0000000  0  7G24G17G30G 5G 6G21G10
  23417550.171    25534448.23943  19899855.66342  23417551.203    23417550.668
  21026251.468     5203665.44544   4060864.73742  21026252.852    21026250.692
  20347329.979    -4279660.09344  -3322582.21342  20347332.506    20347329.280
  22025201.036    16446146.48943  12820780.81542  22025202.567    22025200.355
  21286368.931   -17642982.86544 -13705856.80742  21286370.996    21286368.577
  22968550.648    -7453071.90643  -5591015.97542  22968552.819    22968549.826
  21080110.061   -17166011.62044 -12613174.06442  21080111.469    21080109.482
 03 12 30  1  8 30.0000000  0  7G24G17G30G 5G 6G21G10
  23433302.916    25617229.74043  19964360.74442  23433303.911    23433303.413
  21033841.242     5243550.15644   4091943.73842  21033842.600    21033840.518
  20352985.316    -4249940.92144  -3299424.41742  20352987.846    20352984.590
  22042454.940    16536816.33043  12891432.62242  22042456.630    22042454.257
  21276557.998   -17694539.68544 -13746030.93042  21276560.059    21276557.575
  22954534.375    -7526728.90043  -5648410.99542  22954536.510    22954533.383
  21084520.971   -17142832.03743 -12595112.04542  21084522.381    21084520.428
 03 12 30  1  9  0.0000000  0  7G24G17G30G 5G 6G21G10
  23449060.168    25700033.81743  20028883.41442  23449061.074    23449060.419
  21041479.554     5283689.69044   4123221.30042  21041480.856    21041478.852
  20358750.950    -4219642.24544  -3275815.05942  20358753.497    20358750.241
  22059767.135    16627792.35243  12962323.02242  22059768.847    22059766.459
  21266780.096   -17745922.94144 -13786069.80642  21266782.167    21266779.609
  22940559.558    -7600167.03443  -5705635.48242  22940561.720    22940558.536
  21089050.969   -17119026.86943 -12576562.55042  21089052.379    21089050.341
 03 12 30  1  9 30.0000000  0  7G24G17G30G 5G 6G21G10
  23464819.777    25782852.24343  20093417.23342  23464820.763    23464820.127
  21049164.686     5324075.48744   4154690.75742  21049165.985    21049164.062
  20364625.266    -4188772.36844  -3251760.61142  20364627.847    20364624.569
  22077135.731    16719065.32143  13033444.82042  22077137.480    22077135.197
  21257034.108   -17797138.59644 -13825978.08642  21257036.191    21257033.580
  22926625.202    -7673392.94843  -5762694.58942  22926627.329    22926624.181
  21093698.388   -17094604.69343 -12557532.26542  21093699.810    21093697.636
 03 12 30  1 10  0.0000000  0  7G24G17G30G 5G 6G21G10
  23480582.941    25865688.01443  20157964.59842  23480583.875    23480583.154
  21056897.338     5364710.70644   4186354.56942  21056898.593    21056896.720
  20370609.060    -4157327.50144  -3227258.12342  20370611.616    20370608.318
  22094561.212    16810636.90343  13104799.30942  22094562.934    22094560.780
  21247321.109   -17848180.76544 -13865751.18442  21247323.223    21247320.542
  22912732.022    -7746401.76643  -5819584.53642  22912734.150    22912731.051
  21098463.882   -17069561.87244 -12538018.37142  21098465.298    21098463.083
 03 12 30  1 10 30.0000000  0  7G24G17G30G 5G 6G21G10
  23496348.142    25948534.39143  20222520.20842  23496349.022    23496348.361
  21064676.035     5405587.97644   4218206.99342  21064677.310    21064675.445
  20376700.845    -4125314.49244  -3202312.91942  20376703.441    20376700.175
  22112042.036    16902498.96043  13176380.12142  22112043.697    22112041.623
  21237640.270   -17899053.85544 -13905392.52842  21237642.404    21237639.697
  22898879.296    -7819198.96843  -5876309.57242  22898881.263    22898878.155
  21103346.212   -17043904.93543 -12518025.93242  21103347.623    21103345.359
 03 12 30  1 11  0.0000000  0  7G24G17G30G 5G 6G21G10
  23512116.167    26031397.58343  20287088.92342  23512117.373    23512116.668
  21072501.911     5446713.58043   4250252.92142  21072503.210    21072501.348
  20382902.058    -4092726.66444  -3176919.80642  20382904.652    20382901.436
  22129579.068    16994656.40543  13248191.10642  22129580.716    22129578.621
  21227993.265   -17949749.09344 -13944895.28842  21227995.395    21227992.636
  22885068.062    -7891776.67843  -5932863.60242  22885070.069    22885066.880
  21108346.635   -17017627.57744 -12497550.05742  21108348.039    21108345.740
 03 12 30  1 11 30.0000000  0  7G24G17G30G 5G 6G21G10
  23527886.393    26114271.73043  20351666.20542  23527887.722    23527887.085
  21080373.963     5488081.54643   4282487.70242  21080375.246    21080373.335
  20389211.586    -4059569.93744  -3151083.40142  20389214.134    20389210.948
  22147170.887    17087102.06843  13320226.67142  22147172.535    22147170.482
  21218379.384   -18000270.05044 -13984262.23942  21218381.551    21218378.730
  22871297.808    -7964139.39843  -5989250.09442  22871299.778    22871296.570
  21113463.908   -16990736.19944 -12476595.72442  21113465.330    21113463.049
 03 12 30  1 12  0.0000000  0  7G24G17G30G 5G 6G21G10
  23543658.840    26197156.80243  20416251.96942  23543660.255    23543659.896
  21088292.129     5529691.60343   4314911.12442  21088293.343    21088291.439
  20395629.444    -4025844.05344  -3124803.49142  20395632.000    20395628.756
  22164817.354    17179834.76343  13392485.90542  22164818.978    22164816.929
  21208799.224   -18050614.01344 -14023491.27942  21208801.416    21208798.506
  22857568.923    -8036285.42643  -6045467.72142  22857570.726    22857567.529
  21118698.093   -16963230.26843 -12455162.52042  21118699.521    21118697.225
 03 12 30  1 12 30.0000000  0  7G24G17G30G 5G 6G21G10
  23559432.847    26280049.25843  20480843.49742  23559434.338    23559433.983
  21096255.541     5571539.74743   4347520.08442  21096256.787    21096254.894
  20402154.956    -3991552.37444  -3098082.70642  20402157.511    20402154.242
  22182517.563    17272849.71343  13464965.06642  22182519.205    22182517.100
  21199252.486   -18100781.99344 -14062583.17642  21199254.719    21199251.808
  22843880.550    -8108216.76343  -6101518.07842  22843882.424    22843879.377
  21124048.532   -16935113.26943 -12433253.15542  21124049.966    21124047.676
 03 12 30  1 13  0.0000000  0  7G24G17G30G 5G 6G21G10
  23575208.654    26362951.35743  20545442.51142  23575210.326    23575209.790
  21104264.669     5613628.16444   4380316.25142  21104265.898    21104264.159
  20408788.528    -3956692.75044  -3070919.36542  20408791.059    20408787.796
  22200271.603    17366147.80543  13537664.86542  22200273.312    22200271.122
  21189740.121   -18150769.30543 -14101534.30842  21189742.354    21189739.440
  22830233.794    -8179929.83243  -6157398.36342  22830235.648    22830232.735
  21129515.569   -16906383.41443 -12410866.25642  21129516.991    21129514.789
 03 12 30  1 13 30.0000000  0  7G24G17G30G 5G 6G21G10
  23590985.913    26445861.72043  20610047.98342  23590987.883    23590986.950
  21112319.195     5655954.49844   4413297.81942  21112320.439    21112318.633
  20415529.814    -3921266.75544  -3043314.68942  20415532.349    20415529.133
  22218078.873    17459725.96443  13610582.89342  22218080.653    22218078.432
  21180262.324   -18200575.21643 -14140344.08642  21180264.476    21180261.640
  22816628.697    -8251424.88643  -6213108.77042  22816630.355    22816627.641
  21135098.922   -16877042.43843 -12388003.14042  21135100.348    21135098.206
 03 12 30  1 14  0.0000000  0  7G24G17G30G 5G 6G21G10
  23606764.121    26528777.39243  20674657.63642  23606766.285    23606764.986
  21120418.355     5698516.49543   4446463.02142  21120419.692    21120417.887
  20422378.416    -3885276.88144  -3015270.63242  20422380.958    20422377.740
  22235938.579    17553580.00243  13683715.89442  22235940.358    22235938.210
  21170819.030   -18250199.72643 -14179012.51442  21170821.144    21170818.366
  22803064.792    -8322703.08743  -6268650.19642  22803066.488    22803063.836
  21140798.108   -16847092.78143 -12364665.73942  21140799.503    21140797.399
 03 12 30  1 14 30.0000000  0  7G24G17G30G 5G 6G21G10
  23622543.371    26611697.91843  20739271.00342  23622545.403    23622543.981
  21128562.250     5741312.92444   4479810.89342  21128563.590    21128561.813
  20429334.328    -3848723.76344  -2986787.67942  20429336.839    20429333.520
  22253850.526    17647708.21243  13757062.54942  22253852.241    22253850.084
  21161410.690   -18299640.81843 -14217538.01742  21161412.780    21161410.016
  22789542.289    -8393763.56443  -6324021.96742  22789544.047    22789541.333
  21146612.925   -16816535.17843 -12340854.60742  21146614.351    21146612.254
 03 12 30  1 15  0.0000000  0  7G24G17G30G 5G 6G21G10
  23638323.108    26694620.79843  20803886.23542  23638324.962    23638323.700
  21136750.293     5784341.18643   4513339.41342  21136751.625    21136749.840
  20436396.925    -3811609.92244  -2957867.80742  20436399.418    20436396.023
  22271814.002    17742106.66843  13830619.76942  22271815.672    22271813.505
  21152037.168   -18348898.65343 -14255920.72342  21152039.291    21152036.551
  22776061.270    -8464607.03443  -6379224.62742  22776063.013    22776060.171
  21152542.953   -16785372.17843 -12316571.73742  21152544.375    21152542.311
 03 12 30  1 15 30.0000000  0  7G24G17G30G 5G 6G21G10
  23654103.645    26777548.26043  20868505.04042  23654105.488    23654104.369
  21144982.699     5827603.07643   4547049.97842  21144984.017    21144982.257
  20443566.455    -3773933.28744  -2928509.39042  20443569.022    20443565.660
  22289829.176    17836776.27743  13904388.29142  22289830.792    22289828.482
  21142699.422   -18397968.57643 -14294157.00142  21142701.546    21142698.880
  22762622.005    -8535230.34043  -6434255.73042  22762623.842    22762620.880
  21158588.562   -16753602.00643 -12291815.75242  21158589.940    21158587.893
 03 12 30  1 16  0.0000000  0  7G24G17G30G 5G 6G21G10
  23669883.974    26860474.39743  20933122.82942  23669885.767    23669884.893
  21153258.404     5871092.22744   4580937.63242  21153259.683    21153257.927
  20450841.914    -3735700.09344  -2898717.29242  20450844.491    20450841.227
  22307894.450    17931709.51043  13978362.22042  22307896.076    22307893.732
  21133396.769   -18446854.10843 -14332249.60042  21133398.900    21133396.341
  22749223.624    -8605638.19243  -6489118.95242  22749225.549    22749222.588
  21164748.613   -16721230.79043 -12266591.41442  21164749.960    21164747.778
 03 12 30  1 16 30.0000000  0  7G24G17G30G 5G 6G21G10
  23685664.617    26943401.09043  20997741.04342  23685666.108    23685665.323
  21161577.738     5914810.50844   4615003.82742  21161578.997    21161577.242
  20458223.771    -3696908.43844  -2868490.02742  20458226.255    20458223.104
  22326009.797    18026906.74643  14052541.87842  22326011.538    22326009.195
  21124130.093   -18495550.73743 -14370195.00742  21124132.220    21124129.729
  22735867.233    -8675826.98243  -6543811.48242  22735869.072    22735866.086
  21171023.361   -16688256.76743 -12240897.35242  21171024.715    21171022.446
 03 12 30  1 17  0.0000000  0  7G24G17G30G 5G 6G21G10
  23701445.369    27026328.61443  21062359.89842  23701446.619    23701446.027
  21169940.599     5958757.56944   4649248.30042  21169941.873    21169940.114
  20465711.930    -3657558.33944  -2837827.61442  20465714.382    20465711.206
  22344175.212    18122366.86843  14126926.37842  22344176.954    22344174.730
  21114899.928   -18544055.83243 -14407991.16642  21114902.011    21114899.579
  22722552.573    -8745795.65143  -6598332.45942  22722554.447    22722551.410
  21177412.770   -16654680.30543 -12214733.86342  21177414.171    21177411.800
 03 12 30  1 17 30.0000000  0  7G24G17G30G 5G 6G21G10
  23717225.223    27109254.30243  21126977.30242  23717226.847    23717226.313
  21178346.387     6002930.45044   4683668.73542  21178347.677    21178345.959
  20473305.733    -3617652.88644  -2806732.44942  20473308.222    20473305.005
  22362389.881    18218085.68943  14201512.45742  22362391.567    22362389.443
  21105706.093   -18592369.76743 -14445638.37442  21105708.142    21105705.765
  22709279.841    -8815545.19643  -6652682.70142  22709281.702    22709278.403
  21183916.278   -16620504.58343 -12188103.41342  21183917.661    21183915.283
 03 12 30  1 18  0.0000000  0  7G24G17G30G 5G 6G21G10
  23733005.164    27192179.06143  21191594.03442  23733006.906    23733006.357
  21186795.320     6047329.86144   4718265.69542  21186796.611    21186794.911
  20481005.373    -3577191.09144  -2775203.77642  20481007.919    20481004.675
  22380653.682    18314062.74643  14276299.76142  22380655.274    22380653.287
  21096549.351   -18640488.83244 -14483133.73842  21096551.406    21096549.029
  22696049.034    -8885073.26643  -6706860.35542  22696051.020    22696047.679
  21190533.826   -16585728.75243 -12161005.34942  21190535.296    21190532.929
 03 12 30  1 18 30.0000000  0  7G24G17G30G 5G 6G21G10
  23748784.362    27275097.71943  21256205.96742  23748785.592    23748785.172
  21195286.272     6091950.27644   4753034.85442  21195287.598    21195285.938
  20488809.877    -3536178.44744  -2743245.87242  20488812.417    20488809.154
  22398965.263    18410291.05943  14351282.84742  22398966.800    22398964.908
  21087429.130   -18688416.03844 -14520479.58642  21087431.192    21087428.805
  22682859.621    -8954383.96643  -6760868.63442  22682861.698    22682858.290
  21197264.530   -16550358.50843 -12133444.10742  21197265.972    21197263.657
 03 12 30  1 19  0.0000000  0  7G24G17G30G 5G 6G21G10
  23764562.542    27358011.91443  21320814.46442  23764563.722    23764563.131
  21203819.600     6136793.10744   4787977.32842  21203820.929    21203819.331
  20496719.461    -3494613.68944  -2710857.75442  20496721.986    20496718.612
  22417324.778    18506770.89043  14426461.92542  22417326.259    22417324.377
  21078346.239   -18736147.06144 -14557672.56942  21078348.344    21078345.910
  22669712.052    -9023474.28443  -6814705.17642  22669714.209    22669710.753
  21204108.682   -16514392.57443 -12105418.68042  21204110.081    21204107.681
 03 12 30  1 19 30.0000000  0  7G24G17G30G 5G 6G21G10
  23780339.542    27440920.30043  21385418.39142  23780340.802    23780340.050
  21212394.930     6181856.39343   4823091.58242  21212396.250    21212394.578
  20504733.689    -3452498.62444  -2678040.82142  20504736.272    20504732.792
  22435731.607    18603499.41743  14501834.78442  22435733.090    22435731.175
  21069300.897   -18783681.01244 -14594711.99242  21069303.011    21069300.442
  22656606.435    -9092344.28843  -6868370.05042  22656608.663    22656605.061
  21211065.754   -16477833.04243 -12076930.72142  21211067.113    21211064.703
 03 12 30  1 20  0.0000000  0  7G24G17G30G 5G 6G21G10
  23796115.197    27523820.41443  21450015.87542  23796116.343    23796115.427
  21221011.623     6227137.48043   4858375.55342  21221012.937    21221011.248
  20512852.152    -3409835.94044  -2644797.16842  20512854.776    20512851.243
  22454184.979    18700472.62243  14577398.31542  22454186.516    22454184.461
  21060293.063   -18831017.88644 -14631597.84742  21060295.193    21060292.476
  22643542.529    -9160995.12343  -6921864.13342  22643544.713    22643541.100
  21218135.125   -16440682.79443 -12047982.45942  21218136.550    21218134.169
 03 12 30  1 20 30.0000000  0  7G24G17G30G 5G 6G21G10
  23811889.681    27606717.66143  21514611.14742  23811891.319    23811890.363
  21229670.743     6272641.41143   4893833.16642  21229672.048    21229670.420
  20521075.808    -3366620.66644  -2611122.93242  20521078.422    20521074.891
  22472685.662    18797694.42343  14653155.54542  22472687.200    22472685.059
  21051324.239   -18878149.65644 -14668323.88142  21051326.376    21051323.562
  22630521.751    -9229420.18643  -6975182.29342  22630523.908    22630520.268
  21225317.890   -16402936.94043 -12018570.09742  21225319.267    21225316.896
 03 12 30  1 21  0.0000000  0  7G24G17G30G 5G 6G21G10
  23827661.891    27689601.69243  21579196.10342  23827663.685    23827662.858
  21238370.137     6318357.35543   4929455.98942  21238371.455    21238369.926
  20529402.471    -3322863.85444  -2577026.71742  20529405.079    20529401.581
  22491231.255    18895152.80043  14729097.13642  22491232.825    22491230.625
  21042392.800   -18925084.56044 -14704896.51642  21042394.984    21042392.059
  22617542.013    -9297628.84143  -7028331.83542  22617544.255    22617540.670
  21232611.894   -16364606.49143 -11988702.20142  21232613.316    21232610.913
 03 12 30  1 21 30.0000000  0  7G24G17G30G 5G 6G21G10
  23843432.516    27772475.13343  21643772.80842  23843434.137    23843433.511
  21247110.298     6364287.37243   4965245.62042  21247111.564    21247110.098
  20537832.492    -3278563.45144  -2542506.92642  20537835.083    20537831.634
  22509822.147    18992848.51143  14805223.66142  22509823.726    22509821.478
  21033499.739   -18971817.78244 -14741311.99442  21033501.923    21033498.923
  22604604.023    -9365617.50343  -7081309.94442  22604606.284    22604602.870
  21240017.471   -16325689.78143 -11958377.48142  21240018.874    21240016.573
 03 12 30  1 22  0.0000000  0  7G24G17G30G 5G 6G21G10
  23859201.055    27855340.74643  21708343.43542  23859202.944    23859202.704
  21255891.759     6410434.34143   5001204.30442  21255892.984    21255891.628
  20546366.478    -3233716.69344  -2507561.40442  20546369.054    20546365.672
  22528458.685    19090783.22343  14881536.40842  22528460.227    22528457.779
  21024646.157   -19018343.57444 -14777565.83942  21024648.342    21024645.262
  22591708.935    -9433381.71443  -7134113.14242  22591711.061    22591707.715
  21247535.243   -16286184.10043 -11927593.81642  21247536.653    21247534.259
 03 12 30  1 22 30.0000000  0  7G24G17G30G 5G 6G21G10
  23874967.101    27938192.90543  21772903.55342  23874969.191    23874969.094
  21264713.341     6456792.11743   5037327.25542  21264714.547    21264713.338
  20555003.311    -3188329.84344  -2472195.02542  20555005.837    20555002.494
  22547139.210    19188949.70643  14958029.75242  22547140.816    22547138.227
  21015831.414   -19064665.30944 -14813660.67742  21015833.568    21015830.496
  22578855.604    -9500925.98143  -7186744.98542  22578857.684    22578854.380
  21255163.810   -16246095.68943 -11896356.08342  21255165.247    21255162.875
 03 12 30  1 23  0.0000000  0  7G24G17G30G 5G 6G21G10
  23890730.883    28021030.40943  21837452.25942  23890732.534    23890732.392
  21273574.674     6503358.76043   5073612.96342  21273575.863    21273574.654
  20563742.425    -3142405.08744  -2436409.50842  20563744.996    20563741.705
  22565863.151    19287344.77843  15034701.21642  22565864.786    22565862.256
  21007055.659   -19110782.01744 -14849595.75442  21007057.805    21007054.769
  22566044.099    -9568250.88643  -7239205.89242  22566046.104    22566042.855
  21262902.791   -16205426.99843 -11864666.18042  21262904.240    21262901.901
 03 12 30  1 23 30.0000000  0  7G24G17G30G 5G 6G21G10
  23906492.136    28103857.53943  21901992.89442  23906493.908    23906493.695
  21282476.495     6550138.52143   5110064.73742  21282477.690    21282476.426
  20572584.799    -3095938.32444  -2400201.64542  20572587.306    20572584.032
  22584631.053    19385971.45843  15111553.15042  22584632.790    22584630.433
  20998320.257   -19156686.88144 -14885365.76342  20998322.432    20998319.334
  22553275.591    -9635350.06743  -7291490.90342  22553277.425    22553274.255
  21270752.777   -16164174.36343 -11832521.26342  21270754.224    21270752.011
 03 12 30  1 24  0.0000000  0  7G24G17G30G 5G 6G21G10
  23922250.173    28186665.92543  21966518.91442  23922251.844    23922251.441
  21291417.179     6597122.47143   5146675.62542  21291418.367    21291417.019
  20581528.504    -3048938.73644  -2363578.59342  20581530.976    20581527.703
  22603441.247    19484819.32143  15188577.44042  22603442.863    22603440.718
  20989623.974   -19202385.98044 -14920975.43242  20989626.138    20989623.008
  22540548.460    -9702231.51443  -7343606.26742  22540550.286    22540547.065
  21278712.195   -16122347.12843 -11799928.60242  21278713.624    21278711.493
 03 12 30  1 24 30.0000000  0  7G24G17G30G 5G 6G21G10
  23938005.234    28269457.15043  22031031.54942  23938006.567    23938005.937
  21300397.025     6644311.78743   5183446.52642  21300398.119    21300396.769
  20590573.669    -3001405.61044  -2326539.79342  20590576.133    20590572.950
  22622293.793    19583888.60843  15265774.25942  22622295.234    22622293.170
  20980967.543   -19247875.31444 -14956421.64342  20980969.705    20980966.635
  22527863.363    -9768892.23143  -7395549.62742  22527865.244    22527861.971
  21286781.247   -16079944.24643 -11766887.38542  21286782.627    21286780.500
 03 12 30  1 25  0.0000000  0  7G24G17G30G 5G 6G21G10
  23953757.606    28352232.18643  22095531.58042  23953758.326    23953757.358
  21309415.966     6691706.91443   5220377.80242  21309417.002    21309415.693
  20599720.550    -2953338.47144  -2289084.87542  20599723.010    20599719.807
  22641188.078    19683178.31343  15343142.83742  22641189.605    22641187.491
  20972351.815   -19293151.45744 -14991701.73342  20972353.912    20972350.887
  22515220.484    -9835330.52443  -7447319.69042  22515222.392    22515219.094
  21294959.808   -16036965.97543 -11733397.81242  21294961.191    21294959.042
 03 12 30  1 25 30.0000000  0  7G24G17G30G 5G 6G21G10
  23969506.273    28434994.87943  22160022.03742  23969507.897    23969506.627
  21318474.829     6739311.23443   5257472.08842  21318475.825    21318474.452
  20608969.737    -2904734.25144  -2251211.46442  20608972.149    20608968.901
  22660124.809    19782690.55643  15420684.81442  22660126.364    22660124.148
  20963777.729   -19338208.37044 -15026810.99842  20963779.847    20963776.884
  22502620.899    -9901541.34743  -7498912.49542  22502622.806    22502619.575
  21303248.455   -15993409.04043 -11699457.33042  21303249.848    21303247.634
 03 12 30  1 26  0.0000000  0  7G24G17G30G 5G 6G21G10
  23985251.512    28517738.38943  22224497.50142  23985253.611    23985252.407
  21327572.098     6787117.78443   5294723.95742  21327573.119    21327571.697
  20618319.570    -2855600.35144  -2212925.31842  20618322.032    20618318.823
  22679102.150    19882417.08343  15498393.78442  22679103.833    22679101.465
  20955244.576   -19383050.20144 -15061752.65642  20955246.695    20955243.751
  22490063.605    -9967530.18243  -7550332.32542  22490065.529    22490062.229
  21311645.751   -15949281.10643 -11665071.91842  21311647.115    21311644.845
 03 12 30  1 26 30.0000000  0  7G24G17G30G 5G 6G21G10
  24000993.086    28600459.00543  22288955.11542  24000994.847    24000993.710
  21336707.005     6835122.31943   5332130.09142  21336708.029    21336706.693
  20627769.242    -2805941.64444  -2174230.22642  20627771.732    20627768.641
  22698119.247    19982352.23743  15576265.31142  22698120.916    22698118.432
  20946752.063   -19427678.52744 -15096527.95242  20946754.173    20946751.262
  22477548.015   -10033300.07343  -7601581.55042  22477549.914    22477546.582
  21320150.672   -15904586.90643 -11630245.24542  21320152.136    21320149.761
 03 12 30  1 27  0.0000000  0  7G24G17G30G 5G 6G21G10
  24016730.942    28683163.49943  22353400.19242  24016733.027    24016731.935
  21345880.739     6883330.83543   5369695.17942  21345881.786    21345880.570
  20637320.114    -2755751.89744  -2135121.33842  20637322.505    20637319.447
  22717176.977    20082501.00943  15654303.30542  22717178.634    22717176.012
  20938301.960   -19472084.15844 -15131129.72342  20938304.039    20938301.138
  22465075.386   -10098842.86243  -7652653.82142  22465077.410    22465074.164
  21328764.595   -15859320.58443 -11594972.77642  21328766.000    21328763.610
 03 12 30  1 27 30.0000000  0  7G24G17G30G 5G 6G21G10
  24032464.310    28765844.51543  22417826.97042  24032466.762    24032465.614
  21355091.942     6931736.15543   5407413.62742  21355093.070    21355091.789
  20646970.355    -2705039.23044  -2095604.98142  20646972.795    20646969.730
  22736273.699    20182854.54643  15732500.84942  22736275.330    22736272.521
  20929893.224   -19516271.94044 -15165561.74142  20929895.346    20929892.504
  22452645.069   -10164165.21543  -7703554.31742  22452646.979    22452643.731
  21337485.753   -15813490.55543 -11559261.04842  21337487.190    21337484.736
 03 12 30  1 28  0.0000000  0  7G24G17G30G 5G 6G21G10
  24048194.322    28848503.61943  22482236.69142  24048196.275    24048195.040
  21364340.863     6980339.38243   5445286.28742  21364342.018    21364340.617
  20656720.310    -2653802.66244  -2055680.38542  20656722.796    20656719.692
  22755409.405    20283412.99143  15810858.06242  22755410.991    22755408.057
  20921526.835   -19560237.64844 -15199820.71742  20921528.946    20921526.106
  22440257.008   -10229264.23543  -7754280.80342  22440259.006    22440255.726
  21346314.442   -15767095.90743 -11523109.35842  21346315.807    21346313.340
 03 12 30  1 28 30.0000000  0  7G24G17G30G 5G 6G21G10
  24063919.639    28931140.12443  22546628.76242  24063921.436    24063920.173
  21373627.072     7029138.81543   5483311.83042  21373628.236    21373626.771
  20666569.655    -2602044.39244  -2015349.27242  20666572.111    20666568.961
  22774583.346    20384173.38143  15889372.64242  22774585.056    22774582.013
  20913202.938   -19603980.19744 -15233905.79442  20913205.034    20913202.163
  22427911.582   -10294139.91743  -7804833.25142  22427913.514    22427910.292
  21355249.974   -15720138.93743 -11486519.50842  21355251.383    21355249.013
 03 12 30  1 29  0.0000000  0  7G24G17G30G 5G 6G21G10
  24079639.879    29013751.73643  22611001.46242  24079641.900    24079640.455
  21382950.161     7078132.02343   5521488.37542  21382951.318    21382949.791
  20676517.766    -2549767.33344  -1974613.91642  20676520.195    20676516.988
  22793795.080    20485131.58843  15968041.36042  22793796.764    22793793.679
  20904921.486   -19647499.41444 -15267816.85242  20904923.613    20904920.702
  22415608.511   -10358793.52143  -7855212.65542  22415610.449    22415607.129
  21364291.927   -15672622.91143 -11449494.01642  21364293.338    21364291.090
 03 12 30  1 29 30.0000000  0  7G24G17G30G 5G 6G21G10
  24095355.871    29096341.39143                                  24095358.072
  21392310.611     7127321.40043   5559817.77842  21392311.794    21392310.120
  20686564.812    -2496969.56544  -1933472.80442  20686567.320    20686564.092
  22813044.872    20586289.28343  16046865.52442  22813046.474    22813043.280
  20896683.487   -19690789.92144 -15301549.69742  20896685.669    20896682.756
  22403348.436   -10423220.75043  -7905415.67042  22403350.479    22403347.006
  21373440.701   -15624545.68944 -11412031.23642  21373442.129    21373439.939
 03 12 30  1 30  0.0000000  0  7G24G17G30G 5G 6G21G10
  24111067.363    29178907.00843  22739693.91642  24111069.690    24111068.129
  21401707.948     7176704.79243   5598298.35242  21401709.170    21401707.417
  20696710.442    -2443653.94044  -1891928.16842  20696712.956    20696709.782
  22832331.816    20687642.42243  16125841.97042  22832333.437    22832330.088
  20888489.152   -19733851.25644 -15335103.96642  20888491.302    20888488.402
  22391131.104   -10487422.88443  -7955443.26542  22391133.219    22391129.703
  21382695.737   -15575910.50144 -11374133.67842  21382697.115    21382694.975
 03 12 30  1 30 30.0000000  0  7G24G17G30G 5G 6G21G10
  24126773.124    29261440.16343  22804005.49542  24126775.230    24126773.442
  21411140.487     7226273.13243   5636923.04742  21411141.681    21411139.827
  20706952.773    -2389830.04844  -1849987.47742  20706955.321    20706952.177
  22851654.017    20789180.52743  16204962.56542  22851655.572    22851651.993
  20880337.295   -19776689.71344 -15368484.56142  20880339.391    20880336.472
  22378955.105   -10551407.61843  -8005301.47542  22378957.269    22378953.700
  21392055.109   -15526727.11144 -11335808.94242  21392056.538    21392054.233
 03 12 30  1 31  0.0000000  0  7G24G17G30G 5G 6G21G10
  24142474.174    29343949.89443  22868298.76742  24142476.218    24142474.607
  21420609.732     7276034.28143   5675697.98842  21420610.950    21420608.933
  20717293.307    -2335490.39544  -1807644.90042  20717295.809    20717292.682
  22871012.539    20890910.76943  16284232.87642  22871014.156    22871010.524
  20872229.889   -19819294.41044 -15401683.00742  20872231.968    20872229.021
  22366822.344   -10615165.37243  -8054982.81242  22366824.513    22366820.971
  21401520.056   -15476988.17643 -11297051.31742  21401521.577    21401519.224
 03 12 30  1 31 30.0000000  0  8G24G17G30G 5G 6G21G10G18
  24158167.215    29426419.30943  22932560.71242  24158169.722    24158168.145
  21430112.466     7325971.32543   5714609.98742  21430113.768    21430111.654
  20727728.555    -2280652.57444  -1764914.13442  20727731.070    20727727.983
  22890404.081    20992814.78543  16363638.58942  22890405.779    22890402.248
  20864164.222   -19861679.49144 -15434710.32342  20864166.316    20864163.385
  22354729.923   -10678711.62043  -8104499.34342  22354732.037    22354728.493
  21411087.428   -15426711.40643 -11257874.60742  21411088.941    21411086.628
  24773138.862    -1833539.07253  -1417909.18352  24773140.688    24773140.008
 03 12 30  1 32  0.0000000  0  8G24G17G30G 5G 6G21G10G18
  24173856.737    29508867.82543  22996806.30142  24173859.210    24173857.807
  21439652.316     7376103.61143   5753674.11342  21439653.655    21439651.535
  20738262.288    -2225297.81544  -1721780.56442  20738264.750    20738261.637
  22909832.098    21094910.33343  16443193.54142  22909833.799    22909830.368
  20856144.531   -19903822.99144 -15467549.40242  20856146.593    20856143.745
  22342681.549   -10742026.19343  -8153835.34642  22342683.779    22342680.103
  21420760.600   -15375878.36743 -11218264.43642  21420762.094    21420759.859
  24752004.528    -1944599.17143  -1504449.34542  24752006.129    24752005.824
 03 12 30  1 32 30.0000000  0  8G24G17G30G 5G 6G21G10G18
  24189541.073    29591287.22043  23061029.21242  24189543.170    24189541.898
  21449227.559     7426421.75543   5792883.06742  21449228.943    21449226.731
  20748892.435    -2169436.03144  -1678251.90942  20748894.928    20748891.780
  22929294.757    21197186.73343  16522889.41342  22929296.386    22929293.157
  20848169.604   -19945731.21144 -15500205.13642  20848171.678    20848168.899
  22330675.848   -10805116.61743  -8202996.66842  22330678.090    22330674.348
  21430537.763   -15324498.92043 -11178228.48842  21430539.251    21430537.019
  24730874.768    -2055635.97443  -1590971.38242  24730876.260    24730876.498
 03 12 30  1 33  0.0000000  0  8G24G17G30G 5G 6G21G10G18
  24205220.260    29673681.04843  23125232.16842  24205222.197    24205221.138
  21458838.791     7476928.83443   5832239.23842  21458840.224    21458837.778
  20759619.400    -2113065.19244  -1634326.59042  20759621.893    20759618.847
  22948791.915    21299645.52843  16602727.40942  22948793.673    22948790.594
  20840240.564   -19987398.64544 -15532673.25242  20840242.617    20840239.867
  22318713.500   -10867978.47943  -8251979.90442  22318715.711    22318712.036
  21440419.266   -15272570.98943 -11137765.15642  21440420.774    21440418.575
  24709750.577    -2166642.58443  -1677469.92142  24709752.274    24709752.870
 03 12 30  1 33 30.0000000  0  8G24G17G30G 5G 6G21G10G18
  24220893.202    29756044.13443  23189411.19742  24220895.389    24220894.262
  21468484.930     7527619.85143   5871738.73542  21468486.406    21468483.879
  20770442.210    -2056190.76344  -1590008.86342  20770444.724    20770441.734
  22968322.644    21402280.33243  16682702.56242  22968324.457    22968321.410
  20832356.932   -20028827.45744 -15564955.42442  20832358.984    20832356.198
  22306794.035   -10930615.79343  -8300788.15842  22306796.079    22306792.467
  21450404.014   -15220100.44043 -11096878.99842  21450405.542    21450403.329
  24688631.747    -2277620.88343  -1763946.37342  24688633.351    24688634.644
 03 12 30  1 34  0.0000000  0  8G24G17G30G 5G 6G21G10G18
  24236559.757    29838372.99643  23253563.59642  24236562.025    24236560.625
  21478165.325     7578490.53443   5911378.23742  21478166.747    21478164.298
  20781360.042    -1998817.55344  -1545302.47142  20781362.515    20781359.480
  22987885.775    21505085.82443  16762810.72142  22987887.666    22987884.812
  20824518.461   -20070018.92244 -15597052.65642  20824520.527    20824517.640
  22294916.898   -10993031.05443  -8349423.38142  22294918.872    22294915.164
  21460491.047   -15167092.30643 -11055573.94642  21460492.497    21460490.320
  24667518.874    -2388570.79243  -1850400.75642  24667520.195    24667521.567
 03 12 30  1 34 30.0000000  0  8G24G17G30G 5G 6G21G10G18
  24252220.491    29920671.38943  23317692.19742  24252222.537    24252221.280
  21487880.577     7629543.99043   5951160.15442  21487881.959    21487879.550
  20792373.070    -1940943.49144  -1500205.80542  20792375.558    20792372.496
  23007481.925    21608063.66243  16843053.18642  23007483.743    23007480.958
  20816726.268   -20110967.38644 -15628960.53442  20816728.335    20816725.361
  22283082.645   -11055220.32043  -8397882.49142  22283084.696    22283080.895
  21470680.900   -15113544.55943 -11013848.42742  21470682.218    21470680.085
  24646411.991    -2499486.29053  -1936828.26952  24646413.053    24646414.628
 03 12 30  1 35  0.0000000  0  7G24G17G30G 5G 6G21G10
  24267877.848    30002950.34043  23381805.68742  24267879.265    24267878.629
  21497632.559     7680791.16143   5991093.01342  21497634.014    21497631.535
  20803483.368    -1882558.21844  -1454710.78942  20803485.871    20803482.800
  23027112.596    21711223.12443  16923437.14842  23027114.403    23027111.665
  20808982.893   -20151658.98944 -15660668.26042  20808984.984    20808981.996
  22271293.831   -11117171.15243  -8446155.82542  22271295.873    22271291.897
  21480975.309   -15059447.20943 -10971694.63642  21480976.657    21480974.440
 03 12 30  1 35 30.0000000  0  7G24G17G30G 5G 6G21G10
  24283525.372    30085178.17143  23445879.33842  24283526.449    24283526.185
  21507415.278     7732199.45543   6031151.42342  21507416.703    21507414.196
  20814684.664    -1823695.17844  -1408843.49142  20814687.165    20814684.052
  23046771.629    21814530.31643  17003936.24442  23046773.351    23046770.499
  20801282.718   -20192123.50944 -15692199.03642  20801284.801    20801281.906
  22259544.304   -11178914.72743  -8494267.65542  22259546.435    22259542.436
  21491367.938   -15004833.63843 -10929138.59342  21491369.309    21491367.072
 03 12 30  1 36  0.0000000  0  7G24G17G30G 5G 6G21G10
  24299166.128    30167372.27343  23509926.71742  24299167.418    24299167.475
  21517231.799     7783785.63343   6071348.45042  21517233.235    21517230.788
  20825979.943    -1764338.42344  -1362591.48642  20825982.428    20825979.284
  23066461.416    21918000.66143  17084562.48042  23066463.152    23066460.218
  20793629.489   -20232341.45444 -15723537.67442  20793631.596    20793628.722
  22247837.771   -11240432.94243  -8542203.88542  22247839.828    22247835.958
  21501861.771   -14949688.07343 -10886168.01042  21501863.183    21501860.950
 03 12 30  1 36 30.0000000  0  7G24G17G30G 5G 6G21G10
  24314800.663    30249532.65143  23573947.82342  24314801.933    24314802.290
  21527082.135     7835549.57943   6111684.00342  21527083.553    21527081.172
  20837369.011    -1704488.91244  -1315955.50642  20837371.454    20837368.296
  23086181.684    22021632.77743  17165314.76842  23086183.674    23086180.752
  20786023.677   -20272310.34644 -15754682.25242  20786025.803    20786022.872
  22236174.203   -11301724.91243  -8589963.82042  22236176.227    22236172.553
  21512456.678   -14894011.80043 -10842783.89142  21512458.025    21512455.804
 03 12 30  1 37  0.0000000  0  7G24G17G30G 5G 6G21G10
  24330428.045    30331656.78343  23637940.66442  24330429.743    24330430.212
  21536965.629     7887487.89843   6152155.43042  21536967.083    21536964.627
  20848850.995    -1644150.66844  -1268938.69342  20848853.498    20848850.279
  23105931.847    22125421.88343  17246189.36942  23105933.977    23105931.088
  20778465.201   -20312030.56544 -15785633.05342  20778467.308    20778464.306
  22224553.439   -11362792.48043  -8637548.88742  22224555.405    22224551.840
  21523151.716   -14837808.77143 -10798989.30942  21523153.138    21523150.875
 03 12 30  1 37 30.0000000  0  7G24G17G30G 5G 6G21G10
  24346048.854    30413741.29443  23701902.63842  24346049.984    24346050.440
  21546881.568     7939596.78643   6192759.76842  21546883.046    21546880.584
  20860425.076    -1583328.60844  -1221544.88442  20860427.561    20860424.300
  23125711.047    22229362.58343  17327182.12142  23125713.203    23125710.240
  20770953.734   -20351503.14344 -15816390.89142  20770955.870    20770952.865
  22212974.806   -11423638.29243  -8684961.15242  22212976.793    22212973.261
  21533946.112   -14781084.07643 -10754788.24042  21533947.515    21533945.183
 03 12 30  1 38  0.0000000  0  7G24G17G30G 5G 6G21G10
  24361661.372    30495784.44843  23765832.39842  24361662.558    24361662.869
  21556829.624     7991874.31443   6233495.50542  21556831.053    21556828.664
  20872090.640    -1522025.57144  -1173776.28942  20872093.140    20872089.753
  23145518.669    22333451.18443  17408290.10742  23145520.602    23145517.684
  20763489.601   -20390727.37744 -15846955.21442  20763491.711    20763488.704
  22201438.112   -11484263.56143  -8732201.58542  22201440.093    22201436.664
  21544839.123   -14723840.76543 -10710183.06642  21544840.524    21544838.165
 03 12 30  1 38 30.0000000  0  8G24G17G30G 5G 6G21G10G18
  24377266.692    30577788.82543  23829731.92642  24377267.482    24377268.101
  21566810.235     8044322.25243   6274364.03342  21566811.590    21566809.156
  20883847.983    -1460240.52944  -1125632.10442  20883850.508    20883846.870
  23165354.425    22437688.59843  17489514.05642  23165356.303    23165353.498
  20756073.590   -20429698.61744 -15877322.39842  20756075.698    20756072.715
  22189944.179   -11544664.66743  -8779267.33742  22189946.084    22189942.767
  21555830.957   -14666077.89543 -10665173.02742  21555832.403    21555830.052
  24477835.891    -1562043.02153  -1174872.35652  24477836.427    24477834.459
 03 12 30  1 39  0.0000000  0  8G24G17G30G 5G 6G21G10G18
  24392865.085    30659758.75943  23893604.60142  24392865.902    24392866.555
  21576823.958     8096944.23243   6315368.18242  21576825.306    21576822.882
  20895697.605    -1397970.63044  -1077110.11542  20895700.164    20895696.275
  23185218.671    22542076.65943  17570855.40142  23185220.601    23185217.970
  20748706.958   -20468410.21244 -15907487.25242  20748709.085    20748706.145
  22178493.872   -11604836.77943  -8826154.65642  22178495.726    22178492.479
  21566922.334   -14607792.82343 -10619756.08142  21566923.712    21566921.227
  24456804.144    -1672560.88143  -1260990.03342  24456805.514    24456803.813
 03 12 30  1 39 30.0000000  0  8G24G17G30G 5G 6G21G10G18
  24408455.472    30741690.03043  23957447.15842  24408457.105    24408457.477
  21586869.761     8149735.54343   6356504.27342  21586871.158    21586868.896
  20907638.311    -1335221.72444  -1028214.87642  20907640.916    20907636.903
  23205110.405    22646609.62943  17652309.64842  23205112.480    23205109.939
  20741389.407   -20506864.25744 -15937451.42242  20741391.493    20741388.568
  22167086.252   -11664783.43543  -8872866.28442  22167088.161    22167085.039
  21578111.820   -14548991.53343 -10573936.88342  21578113.232    21578110.650
  24435784.141    -1783021.58143  -1347063.21142  24435785.848    24435783.801
 03 12 30  1 40  0.0000000  0  8G24G17G30G 5G 6G21G10G18
  24424038.447    30823581.96943  24021259.06242  24424040.470    24424040.921
  21596947.695     8202695.31943   6397771.64242  21596949.092    21596946.841
  20919669.752    -1271995.99644   -978948.08842  20919672.360    20919668.405
  23225029.492    22751284.98443  17733874.83542  23225031.466    23225029.052
  20734121.175   -20545059.14644 -15967213.65342  20734123.254    20734120.323
  22155721.672   -11724504.50843  -8919402.15842  22155723.580    22155720.473
  21589399.073   -14489676.29143 -10527717.19342  21589400.557    21589397.856
  24414775.530    -1893422.71243  -1433090.02042  24414777.321    24414775.289
 03 12 30  1 40 30.0000000  0  8G24G17G30G 5G 6G21G10G18
  24439613.880    30905431.26743  24085037.76142  24439615.729    24439616.030
  21607056.930     8255819.49643   6439167.11042  21607058.286    21607056.053
  20931791.078    -1208297.97244   -929313.27142  20931793.673    20931789.815
  23244974.661    22856097.03743  17815546.54242  23244976.535    23244974.126
  20726901.939   -20582995.95044 -15996774.78042  20726904.061    20726901.161
  22144399.561   -11784002.44743  -8965764.14842  22144401.484    22144398.367
  21600783.247   -14429851.80143 -10481100.70542  21600784.699    21600781.998
  24393778.005    -2003764.40843  -1519070.51342  24393780.191    24393778.061
 03 12 30  1 41  0.0000000  0  8G24G17G30G 5G 6G21G10G18
  24455181.453    30987237.59043  24148782.98042  24455183.127    24455183.353
  21617197.199     8309107.33443   6480690.10942  21617198.538    21617196.462
  20944001.834    -1144129.71544   -879312.04842  20944004.426    20944000.694
  23264945.646    22961044.10543  17897323.47242  23264947.529    23264945.032
  20719732.152   -20620672.92244 -16026133.44442  20719734.285    20719731.419
  22133119.936   -11843277.21343  -9011952.25942  22133121.862    22133118.676
  21612263.881   -14369520.31443 -10434089.15942  21612265.327    21612262.614
  24372792.060    -2114044.60543  -1605003.06942  24372794.605    24372792.489
 03 12 30  1 41 30.0000000  0  8G24G17G30G 5G 6G21G10G18
  24470741.134    31069003.89943  24212496.99942  24470742.729    24470742.852
  21627369.157     8362561.02943   6522342.35542  21627370.436    21627368.451
  20956302.334    -1079490.01844   -828943.46442  20956304.912    20956301.169
  23284942.091    23066126.62643  17979205.92742  23284944.121    23284941.617
  20712612.865   -20658084.94044 -16055285.64442  20712614.978    20712612.063
  22121883.245   -11902325.60443  -9057963.95142  22121885.187    22121882.190
  21623841.345   -14308680.92543 -10386681.83042  21623842.647    21623839.834
  24351819.082    -2224257.09743  -1690882.89242  24351821.847    24351819.370
 03 12 30  1 42  0.0000000  0  8G24G17G30G 5G 6G21G10G18
  24486292.434    31150726.22643  24276176.78842  24486293.632    24486294.148
  21637571.640     8416175.82943   6564120.13542  21637572.949    21637570.940
  20968691.527    -1014384.52544   -778211.92342  20968694.080    20968690.290
  23304963.232    23171338.48343  18061189.18442  23304965.391    23304962.711
  20705543.711   -20695233.84444 -16084232.82242  20705545.753    20705542.805
  22110689.275   -11961150.67843  -9103801.64242  22110691.074    22110688.201
  21635514.205   -14247339.19043 -10338883.05442  21635515.592    21635512.678
  24330859.177    -2334402.56843  -1776710.50042  24330861.788    24330859.121
 03 12 30  1 42 30.0000000  0  8G24G17G30G 5G 6G21G10G18
  24501835.581    31232405.23243  24339822.80742  24501836.158    24501837.181
  21647804.805     8469952.31443   6606023.89042  21647806.048    21647804.145
  20981169.184     -948814.04744   -727118.05842  20981171.724    20981167.934
  23325008.748    23276678.43843  18143272.26642  23325011.042    23325008.087
  20698525.082   -20732116.68844 -16112972.67842  20698527.127    20698524.183
  22099537.978   -12019750.63143  -9149463.91342  22099539.821    22099537.008
  21647282.534   -14185496.01743 -10290693.55042  21647283.961    21647281.021
  24309912.823    -2444477.62043  -1862483.23142  24309915.615    24309912.054
 03 12 30  1 43  0.0000000  0  8G24G17G30G 5G 6G21G10G18
  24517370.317    31314038.62743  24403433.33242  24517370.628    24517371.301
  21658068.383     8523887.54443   6648051.35442  21658069.462    21658067.597
  20993734.581     -882782.45744   -675664.88242  20993737.115    20993733.374
  23345077.762    23382142.37443  18225451.96542  23345080.177    23345076.993
  20691557.124   -20768733.48744 -16141505.23142  20691559.154    20691556.235
  22088429.182   -12078127.62743  -9194952.46842  22088431.066    22088428.169
  21659145.621   -14123155.35743 -10242116.40242  21659146.968    21659144.160
  24288979.812    -2554481.28443  -1948200.29642  24288982.332    24288978.919
 03 12 30  1 43 30.0000000  0  8G24G17G30G 5G 6G21G10G18
  24532896.059    31395626.30443  24467008.23042  24532896.410    24532896.990
  21668361.988     8577980.79343   6690201.94542  21668363.042    21668361.220
  21006387.235     -816291.73744   -623853.94142  21006389.832    21006386.129
  23365170.083    23487727.92943  18307726.41542  23365172.311    23365169.022
  20684640.166   -20805082.33044 -16169828.98842  20684642.186    20684639.298
  22077362.875   -12136281.27343  -9240266.96942  22077364.807    22077361.771
  21671102.833   -14060319.45643 -10193153.35342  21671104.166    21671101.539
  24268060.752    -2664411.09343  -2033859.82742  24268063.356    24268059.818
 03 12 30  1 44  0.0000000  0  8G24G17G30G 5G 6G21G10G18
  24548413.329    31477172.46043  24530550.75242  24548414.076    24548414.696
  21678686.393     8632235.71743   6732478.53142  21678687.484    21678685.480
  21019127.853     -749339.22644   -571683.16742  21019130.367    21019126.757
  23385285.924    23593437.45243  18390097.45942  23385287.942    23385284.784
  20677775.424   -20841156.85144 -16197938.98542  20677777.411    20677774.539
  22066339.946   -12194206.77543  -9285403.70442  22066341.944    22066338.761
  21683154.789   -13996985.83843 -10143802.46542  21683156.130    21683153.596
  24247157.430    -2774259.35243  -2119455.78942  24247159.691    24247155.991
 03 12 30  1 44 30.0000000  0  8G24G17G30G 5G 6G21G10G18
  24563922.011    31558671.43243  24594056.53242  24563922.852    24563923.496
  21689040.443     8686645.89943   6774876.09542  21689041.578    21689039.350
  21031954.941     -681932.41344   -519158.38742  21031957.397    21031953.923
  23405424.008    23699263.09543  18472558.97942  23405425.793    23405422.710
  20670962.193   -20876960.46744 -16225837.89042  20670964.221    20670961.313
  22055359.599   -12251909.25943  -9330366.65942  22055361.551    22055358.277
  21695299.874   -13933162.00543 -10094069.59242  21695301.353    21695298.874
  24226268.719    -2884029.41543  -2204990.81142  24226270.834    24226266.841
 03 12 30  1 45  0.0000000  0  8G24G17G30G 5G 6G21G10G18
  24579421.570    31640123.86143  24657526.01842  24579423.074    24579423.172
  21699423.889     8741211.58943   6817394.83642  21699425.175    21699422.833
  21044868.237     -614072.51444   -466280.54642  21044870.681    21044867.290
  23425583.672    23805203.08443  18555109.59042  23425585.501    23425582.517
  20664201.056   -20912490.60844 -16253523.69442  20664203.048    20664200.126
  22044421.830   -12309387.23943  -9375154.67642  22044423.856    22044420.497
  21707538.204   -13868849.28443 -10043955.77642  21707539.550    21707537.189
  24205395.481    -2993717.44243  -2290461.88742  24205397.819    24205393.557
 03 12 30  1 45 30.0000000  0  8G24G17G30G 5G 6G21G10G18
  24594912.664                    24720960.76542                  24594914.617
  21709837.118     8795934.23643   6860035.86342  21709838.427    21709836.187
  21057867.929     -545759.02244   -413049.25942  21057870.337    21057866.934
  23445765.587    23911258.17743  18637749.89442  23445767.442    23445764.183
  20657492.822   -20947742.80344 -16280992.92642  20657494.839    20657491.814
  22033527.149   -12366638.68343  -9419766.17942  22033529.239    22033525.875
  21719869.610   -13804047.40243  -9993460.79342  21719870.943    21719868.534
  24184539.214    -3103318.24343  -2375865.02742  24184541.366    24184536.865
 03 12 30  1 46  0.0000000  0  8G24G17G30G 5G 6G21G10G18
  24610394.710
  21720278.084     8850802.04743   6902790.01742  21720279.360    21720277.008
  21070951.343     -477005.29344   -359474.93542  21070953.755    21070950.311
  23465966.184    24017414.39943  18720468.98842  23465968.354    23465965.271
  20650835.743   -20982726.30244 -16308252.78342  20650837.782    20650834.674
  22022673.684   -12423673.91443  -9464209.18942  22022675.760    22022672.383
  21732291.496   -13738769.80943  -9942595.11842  21732292.944    21732290.400
  24163697.531    -3212840.70743  -2461207.11042  24163700.081    24163695.006
 03 12 30  1 46 30.0000000  0  8G24G17G30G 5G 6G21G10G18
  24625866.015
  21730751.147     8905838.44343   6945675.54142  21730752.357    21730749.942
  21084122.760     -407789.00744   -305540.17842  21084125.184    21084121.714
  23486190.435    24123693.59143  18803283.90342  23486192.481    23486189.609
  20644234.703   -21017415.09144 -16335282.99342  20644236.729    20644233.657
  22011866.059   -12480468.52443  -9508464.70742  22011868.112    22011864.747
  21744808.286   -13672994.36743  -9891341.51242  21744809.648    21744806.969
  24142876.274    -3322257.61343  -2546466.93842  24142878.640    24142873.425
 03 12 30  1 47  0.0000000  0  8G24G17G30G 5G 6G21G10G18
  24641329.434
  21741248.301     8961001.30543   6988659.60342  21741249.428    21741247.032
  21097374.016     -338153.34444   -251278.63042  21097376.407    21097372.959
  23506429.852    24230052.76843  18886161.18442  23506431.911    23506429.219
  20637682.186   -21051848.32044 -16362114.06042  20637684.297    20637681.264
  22001096.361   -12537063.45543  -9552564.62842  22001098.438    22001095.021
  21757411.500   -13606764.36143  -9839733.69942  21757412.773    21757410.032
  24122067.853    -3431607.71643  -2631674.64842  24122070.038    24122064.435
 03 12 30  1 47 30.0000000  0  7G17G30G 5G 6G21G10G18
  21751778.985     9016340.25243   7031780.87442  21751780.099    21751777.709
  21110714.259     -268050.21644   -196652.82042  21110716.616    21110713.221
  23526693.552    24336539.46643  18969137.81142  23526695.462    23526693.136
  20631188.385   -21085973.88644 -16388705.39742  20631190.444    20631187.381
  21990374.303   -12593408.43843  -9596469.78142  21990376.354    21990372.771
  21770110.084   -13540031.88043  -9787734.34342  21770111.520    21770108.829
  24101281.771    -3540837.58843  -2716788.72242  24101284.219    24101278.047
 03 12 30  1 48  0.0000000  0  7G17G30G 5G 6G21G10G18
  21762335.254     9071813.94743   7075007.15042  21762336.428    21762333.977
  21124135.274     -197522.20344   -141695.93242  21124137.665    21124134.277
  23546973.533    24443111.15643  19052180.67042  23546975.361    23546973.314
  20624745.756   -21119830.29744 -16415087.00142  20624747.847    20624744.691
  21979692.226   -12649543.31343  -9640211.21342  21979694.300    21979690.522
  21782896.440   -13472839.38343  -9735376.53742  21782897.874    21782895.142
  24080511.555    -3649985.13143  -2801838.68742  24080513.790    24080507.442
 03 12 30  1 48 30.0000000  0  7G17G30G 5G 6G21G10G18
  21772920.008     9127437.78843   7118350.41042  21772921.259    21772918.810
  21137639.876     -126555.19344    -86396.97742  21137642.249    21137638.918
  23567272.644    24549781.72943  19135300.59542  23567274.232    23567272.435
  20618357.734   -21153399.68144 -16441244.94742  20618359.824    20618356.599
  21969053.170   -12705451.68643  -9683776.13942  21969055.318    21969051.429
  21795772.980   -13405173.04843  -9682649.51342  21795774.364    21795771.689
  24059760.468    -3759031.94343  -2886810.12142  24059762.873    24059756.166
 03 12 30  1 49  0.0000000  0  7G17G30G 5G 6G21G10G18
  21783532.079     9183203.98643   7161804.60442  21783533.261    21783530.719
  21151226.324      -55158.36844    -30763.09542  21151228.681    21151225.320
  23587588.546    24656541.98143  19218490.39242  23587590.204    23587588.547
  20612023.357   -21186686.97744 -16467183.08742  20612025.461    20612022.173
  21958455.961   -12761140.31043  -9727169.83942  21958458.137    21958454.192
  21808737.891   -13337042.12143  -9629560.46542  21808739.285    21808736.640
  24039027.879    -3867981.79343  -2971706.04742  24039030.346    24039023.447
 03 12 30  1 49 30.0000000  0  7G17G30G 5G 6G21G10G18
  21794172.652     9239120.31043   7205375.78142  21794173.908    21794171.267
  21164895.771       16674.66444     25210.68342  21164898.144    21164894.725
  23607922.620    24763398.19143  19301754.95342  23607924.293    23607922.722
  20605744.666   -21219681.64144 -16492893.20742  20605746.770    20605743.439
  21947902.199   -12816600.78143  -9770385.75842  21947904.350    21947900.462
  21821792.360   -13268440.18043  -9576104.40242  21821793.774    21821791.214
  24018316.017    -3976823.69843  -3056517.87542  24018318.318    24018311.373
 03 12 30  1 50  0.0000000  0  7G17G30G 5G 6G21G10G18
  21804839.909     9295177.68343   7249056.86042  21804841.289    21804838.692
  21178646.158       88933.53444     81516.29442  21178648.595    21178645.188
  23628272.914    24870339.29043  19385085.68042  23628274.475    23628273.067
  20599520.350   -21252390.25844 -16518380.42242  20599522.456    20599519.176
  21937390.317   -12871840.89243  -9813429.96442  21937392.500    21937388.677
  21834934.545   -13199377.88143  -9522289.61742  21834935.928    21834933.373
  23997623.695    -4085563.43043  -3141250.09242  23997625.911    23997618.990
 03 12 30  1 50 30.0000000  0  7G17G30G 5G 6G21G10G18
  21815534.683     9351379.45443   7292850.45642  21815536.045    21815533.630
  21192477.893      161619.99844    138155.09842  21192480.357    21192477.059
  23648639.303    24977367.01843  19468483.89842  23648640.952    23648639.739
  20593351.635   -21284806.79244 -16543640.04142  20593353.742    20593350.529
  21926921.202   -12926856.34943  -9856299.11542  21926923.354    21926919.611
  21848164.675   -13129853.45843  -9468114.71942  21848166.049    21848163.396
  23976951.691    -4194194.42743  -3225897.56542  23976954.154    23976947.534
 03 12 30  1 51  0.0000000  0  7G17G30G 5G 6G21G10G18
  21826256.970     9407725.72143   7336756.64742  21826258.318    21826256.020
  21206390.781      234732.77644    195126.09342  21206393.247    21206390.117
  23669021.980    25084480.20743  19551948.71942  23669023.683    23669022.554
  20587239.032   -21316928.65844 -16568670.05642  20587241.129    20587237.948
  21916495.073   -12981646.07744  -9898992.37442  21916497.198    21916493.447
  21861482.390   -13059868.47343  -9413580.94242  21861483.825    21861481.116
  23956301.065    -4302712.89243  -3310457.38842  23956303.601    23956297.224
 03 12 30  1 51 30.0000000  0  7G17G30G 5G 6G21G10G18
  21837005.686     9464211.00943   7380771.15842  21837007.041    21837004.932
  21220383.548      308265.26644    252424.13242  21220385.997    21220383.033
  23689420.001    25191672.43443  19635475.11242  23689421.557    23689420.476
  20581182.014   -21348758.34644 -16593472.40642  20581184.099    20581180.959
  21906111.252   -13036213.80544  -9941512.65542  21906113.347    21906109.522
  21874886.406   -12989429.50643  -9358693.42042  21874887.888    21874885.196
  23935671.598    -4411120.80343  -3394931.06242  23935674.076    23935667.934
 03 12 30  1 52  0.0000000  0  7G17G30G 5G 6G21G10G18
  21847780.951     9520835.00443   7424893.76142  21847782.257    21847780.220
  21234455.735      382215.33844    310047.55942  21234458.164    21234455.346
  23709832.344    25298941.04443  19719061.02342  23709833.910    23709833.009
  20575180.999   -21380293.94044 -16618045.58042  20575183.067    20575179.874
  21895769.520   -13090560.05443  -9983860.34042  21895771.651    21895767.688
  21888376.394   -12918539.26343  -9303454.26442  21888377.816    21888375.073
  23915063.777    -4519415.40443  -3479316.42042  23915066.005    23915060.401
 03 12 30  1 52 30.0000000  0  7G17G30G 5G 6G21G10G18
  21858582.945     9577599.89143   7469126.14942  21858584.289    21858582.262
  21248607.502      456583.73744    367996.95942  21248609.965    21248607.183
  23730259.340    25406286.79843  19802707.03542  23730260.880    23730260.201
  20569236.868   -21411530.56244 -16642385.79142  20569238.951    20569235.706
  21885470.516   -13144681.39643 -10026032.77842  21885472.683    21885468.713
  21901952.485   -12847196.69843  -9247862.63942  21901953.926    21901951.049
  23894478.613    -4627590.89943  -3563608.97242  23894480.799    23894475.211
 03 12 30  1 53  0.0000000  0  7G17G30G 5G 6G21G10G18
  21869411.286     9634503.58143   7513466.71042  21869412.722    21869410.725
  21262838.303      531366.92644    426269.57042  21262840.769    21262837.942
  23750700.221    25513705.77343  19886410.11342  23750701.797    23750701.422
  20563349.757   -21442467.47344 -16666492.46342  20563351.820    20563348.611
  21875214.224   -13198578.69443 -10068030.63742  21875216.355    21875212.450
  21915613.909   -12775405.00743  -9191921.05042  21915615.401    21915612.553
  23873916.682    -4735645.59043  -3647807.36642  23873918.703    23873913.105
 03 12 30  1 53 30.0000000  0  7G17G30G 5G 6G21G10G18
  21880265.338     9691542.19943   7557912.40142  21880266.792    21880264.882
  21277147.015      606559.46844    484861.15442  21277149.455    21277146.620
  23771154.347    25621193.03943  19970166.40142  23771155.722    23771155.741
  20557519.357   -21473106.07144 -16690366.68042  20557521.435    20557518.288
  21864999.988   -13252254.87543 -10109856.19842  21865002.092    21864998.188
  21929359.685   -12703170.11543  -9135634.12142  21929361.212    21929358.417
  23853377.392    -4843580.24743  -3731912.24342  23853379.518    23853374.000
 03 12 30  1 54  0.0000000  0  7G17G30G 5G 6G21G10G18
  21891145.121     9748716.11243   7602463.51442  21891146.601    21891144.611
  21291533.394      682160.29044    543770.88842  21291535.844    21291532.989
  23791620.700    25728746.89043  20053974.55542  23791622.070    23791622.827
  20551746.417   -21503443.47444 -16714006.20342  20551748.458    20551745.296
  21854827.984   -13305708.83243 -10151508.60342  21854830.064    21854826.172
  21943189.668   -12630493.32843  -9079002.85342  21943191.142    21943188.446
  23832861.860    -4951391.12743  -3815920.68442  23832864.024    23832858.573
 03 12 30  1 54 30.0000000  0  7G17G30G 5G 6G21G10G18
  21902051.305     9806028.49743   7647122.52942  21902052.773    21902050.696
  21305997.781      758170.95244    602999.97742  21306000.276    21305997.334
  23812100.638    25836369.60543  20137836.40742  23812101.711    23812102.960
  20546031.809   -21533473.84344 -16737406.47742  20546033.910    20546030.754
  21844699.114   -13358936.57243 -10192984.72942  21844701.065    21844697.221
  21957104.136   -12557372.88343  -9022025.86042  21957105.589    21957102.855
  23812370.665    -5059072.03243  -3899827.78942  23812373.097    23812367.742
 03 12 30  1 55  0.0000000  0  7G17G30G 5G 6G21G10G18
  21912982.485     9863472.36943   7691884.01142  21912983.948    21912981.863
  21320538.531      834582.81344    662541.68442  21320541.047    21320538.000
  23832591.978    25944051.92643  20221744.69542  23832592.979    23832594.428
  20540374.832   -21563201.56644 -16760570.91842  20540376.934    20540373.792
  21834612.189   -13411943.96943 -10234289.15942  21834614.102    21834610.264
  21971101.287   -12483817.51643  -8964709.97642  21971102.793    21971100.084
  23791903.312    -5166626.35943  -3983636.31042  23791906.050    23791901.092
 03 12 30  1 55 30.0000000  0  7G17G30G 5G 6G21G10G18
  21923939.052     9921049.40443   7736749.24742  21923940.483    21923938.474
  21335155.580      911396.09044    722396.17842  21335158.142    21335155.060
  23853094.701    26051794.51543  20305699.95242  23853095.752    23853097.219
  20534776.208   -21592622.41044 -16783496.23642  20534778.297    20534775.220
  21824567.609   -13464728.31443 -10275419.78842  21824569.566    21824565.755
  21985181.253   -12409827.16643  -8907055.14142  21985182.765    21985180.040
  23771461.385    -5274048.72943  -4067341.98942  23771463.894    23771459.484
 03 12 30  1 56  0.0000000  0  7G17G30G 5G 6G21G10G18
  21934920.306     9978756.65643   7781715.96142  21934921.828    21934919.821
  21349848.223      988606.28844    782559.96742  21349850.782    21349847.626
  23873607.927    26159592.67343  20389698.48442  23873609.055    23873610.550
  20529235.870   -21621736.57344 -16806182.57542  20529237.974    20529235.017
  21814565.006   -13517291.87043 -10316378.36742  21814566.962    21814563.279
  21999342.983   -12335406.51843  -8849065.01642  21999344.522    21999341.834
  23751044.496    -5381339.11543  -4150944.79742  23751046.876    23751043.086
 03 12 30  1 56 30.0000000  0  7G17G30G 5G 6G21G10G18
  21945926.876    10036596.69143   7826786.13642  21945928.396    21945926.370
  21364616.600     1066214.25744    843033.70242  21364619.163    21364615.891
  23894132.079    26267447.18343  20473740.95842  23894133.213    23894134.607
  20523754.899   -21650538.96944 -16828625.98642  20523756.970    20523754.134
  21804605.068   -13569631.06643 -10357162.13342  21804606.950    21804603.525
  22013586.905   -12260554.95943  -8790739.10042  22013588.404    22013585.638
  23730654.071    -5488491.57943  -4234440.15242  23730656.272    23730652.841
 03 12 30  1 57  0.0000000  0  7G17G30G 5G 6G21G10G18
  21956957.857    10094564.39443   7871955.79142  21956959.338    21956957.192
  21379459.390     1144213.31344    903812.17842  21379462.023    21379458.571
  23914665.919    26375351.52643  20557822.23742  23914666.928    23914668.060
  20518332.846   -21679032.21544 -16850828.50042  20518334.876    20518332.073
  21794687.070   -13621750.26843 -10397774.47842  21794688.840    21794685.675
  22027911.395   -12185278.99743  -8732082.49042  22027912.991    22027910.130
  23710289.756    -5595507.54743  -4317829.14442  23710291.878    23710288.340
 03 12 30  1 57 30.0000000  0  7G17G30G 5G 6G21G10G18
  21968013.411    10152661.85443   7917226.55342  21968014.912    21968012.741
  21394376.569     1222603.78544    964895.65442  21394379.320    21394375.755
  23935209.215    26483306.18143  20641942.73742  23935210.351    23935211.248
  20512970.463   -21707211.73444 -16872786.55442  20512972.493    20512969.644
  21784811.547   -13673646.36643 -10438212.97042  21784813.275    21784810.158
  22042316.705   -12109578.32343  -8673094.94142  22042318.270    22042315.505
  23689952.254    -5702382.10243  -4401107.98242  23689954.420    23689950.884
 03 12 30  1 58  0.0000000  0  7G17G30G 5G 6G21G10G18
  21979093.290    10210887.40943   7962597.12542  21979094.796    21979092.731
  21409367.544     1301382.38143   1026281.56742  21409370.339    21409366.792
  23955761.431    26591307.73843  20726099.77842  23955762.719    23955763.246
  20507668.015   -21735076.39744 -16894499.26542  20507670.070    20507667.059
  21774978.324   -13725320.34543 -10478478.37142  21774979.974    21774976.859
  22056802.277   -12033456.20743  -8613778.99242  22056803.823    22056801.075
  23669641.941    -5809113.39343  -4484275.14842  23669644.059    23669640.862
 03 12 30  1 58 30.0000000  0  7G17G30G 5G 6G21G10G18
  21990197.304    10269238.62443   8008065.62542  21990198.719    21990196.651
  21424431.656     1380545.07743   1087966.77742  21424434.399    21424430.959
  23976321.991    26699352.32143  20810290.35042  23976323.422    23976323.489
  20502425.397   -21762626.31144 -16915966.71142  20502427.509    20502424.352
  21765187.023   -13776773.78143 -10518571.92842  21765188.701    21765185.500
  22071367.197   -11956917.03743  -8554138.06142  22071368.761    22071365.984
  23649358.974    -5915700.65243  -4567330.12042  23649361.017    23649358.203
 03 12 30  1 59  0.0000000  0  7G17G30G 5G 6G21G10G18
  22001325.587    10327717.56743   8053633.65342  22001326.992    22001324.886
  21439568.953     1460091.99143   1149951.38142  21439571.621    21439568.272
  23996890.655    26807440.56143  20894514.94442  23996892.325    23996892.017
  20497243.615   -21789856.91244 -16937185.34842  20497245.713    20497242.427
  21755438.176   -13828003.75543 -10558491.36042  21755439.940    21755436.597
  22086011.565   -11879960.42443  -8494171.85042  22086013.170    22086010.280
  23629104.507    -6022138.41643  -4650268.58542  23629106.632    23629103.850
 03 12 30  1 59 30.0000000  0  7G17G30G 5G 6G21G10G18
  22012477.247    10386319.79043   8099297.73542  22012478.678    22012476.594
  21454778.129     1540017.22943   1212230.78342  21454780.818    21454777.583
  24017466.452    26915566.52943  20978768.93642  24017468.145    24017467.791
  20492122.298   -21816769.97544 -16958156.55442  20492124.343    20492120.958
  21745731.209   -13879013.77343 -10598239.39242  21745733.023    21745729.607
  22100734.321   -11802592.56943  -8433885.19442  22100735.880    22100732.849
  23608878.303    -6128427.87643  -4733091.48442  23608880.504    23608877.587
 03 12 30  2  0  0.0000000  0  7G17G30G 5G 6G21G10G18
  22023652.577    10445046.63543   8145058.93242  22023654.032    22023651.912
  21470059.254     1620320.11143   1274804.45242  21470061.917    21470058.789
  24038049.338    27023729.29943  21063051.58642  24038050.914    24038050.552
  20487062.001   -21843361.82144 -16978877.46042  20487064.092    20487060.657
  21736066.431   -13929802.00543 -10637814.60742  21736068.292    21736064.827
  22115534.911   -11724814.40643  -8373278.81342  22115536.589    22115533.499
  23588681.291    -6234564.63243  -4815795.41742  23588683.433    23588680.266
 03 12 30  2  0 30.0000000  0  7G17G30G 5G 6G21G10G18
  22034851.665    10503898.09843   8190917.23042  22034853.069    22034850.944
  21485412.000     1700999.00343   1337671.11342  21485414.593    21485411.502
  24058638.761    27131927.40543  21147361.78742  24058640.445    24058640.016
  20482063.352   -21869629.84244 -16999346.03042  20482065.458    20482062.000
  21726444.048   -13980367.16843 -10677216.01042  21726445.901    21726442.558
  22130413.448   -11646627.35143  -8312353.83142  22130415.098    22130411.940
  23568513.722    -6340545.11143  -4898377.54842  23568515.906    23568512.755
 03 12 30  2  1  0.0000000  0  7G17G30G 5G 6G21G10G18
  22046073.894    10562871.08943   8236870.22842  22046075.289    22046073.138
  21500835.323     1782049.02743   1400826.96642  21500837.920    21500834.834
  24079234.089    27240155.97343  21231695.72342  24079235.863    24079235.055
  20477126.217   -21895574.72144 -17019562.80342  20477128.340    20477124.906
  21716863.797   -14030711.95843 -10716445.69542  21716865.551    21716862.184
  22145368.812   -11568036.19943  -8251113.94942  22145370.488    22145367.339
  23548375.909    -6446369.12243  -4980837.76442  23548378.043    23548375.028
 03 12 30  2  1 30.0000000  0  7G17G30G 5G 6G21G10G18
  22057319.154    10621965.06643   8282917.48642  22057320.543    22057318.491
  21516328.842     1863467.91443   1464270.23442  21516331.402    21516328.372
  24099834.748    27348413.45343  21316052.17442  24099836.636    24099835.729
  20472250.963   -21921194.48344 -17039526.23442  20472253.067    20472249.679
  21707325.470   -14080835.82043 -10755503.21542  21707327.302    21707323.893
  22160400.603   -11489043.32543  -8189561.05042  22160402.257    22160399.200
  23528268.609    -6552034.02143  -5063174.01742  23528270.550    23528267.667
 03 12 30  2  2  0.0000000  0  7G17G30G 5G 6G21G10G18
  22068586.735    10681176.55043   8329056.31742  22068588.123    22068586.160
  21531891.517     1945250.32643   1527996.77042  21531894.057    21531891.080
  24120440.241    27456694.52343  21400426.99742  24120441.835    24120440.887
  20467437.339   -21946490.05044 -17059237.04742  20467439.449    20467436.120
  21697828.691   -14130741.48643 -10794390.71742  21697830.612    21697827.137
  22175507.831   -11409654.21043  -8127699.38442  22175509.431    22175506.476
  23508191.395    -6657539.95543  -5145386.36242  23508193.436    23508190.588
 03 12 30  2  2 30.0000000  0  7G17G30G 5G 6G21G10G18
  22079877.343    10740509.30543   8375289.65542  22079878.747    22079876.757
  21547523.671     2027398.28443   1592008.15542  21547526.186    21547523.294
  24141050.287    27565001.08543  21484821.67942  24141051.790    24141050.918
  20462686.614   -21971455.29444 -17078690.46342  20462688.743    20462685.347
  21688374.288   -14180424.74543 -10833104.91242  21688376.231    21688372.707
  22190690.852   -11329866.83543  -8065527.38842  22190692.444    22190689.521
  23488145.809    -6762880.12243  -5227469.55542  23488147.936    23488145.092
 03 12 30  2  3  0.0000000  0  7G17G30G 5G 6G21G10G18
  22091190.737    10799961.34743   8421615.93442  22091192.144    22091189.988
  21563224.703     2109908.02543   1656301.44242  21563227.208    21563224.399
  24161664.966    27673329.85543  21569233.67742  24161666.129    24161665.007
  20457998.866   -21996089.51844 -17097885.94942  20458000.990    20457997.569
  21678961.966   -14229886.66343 -10871646.64042  21678963.952    21678960.417
  22205948.863   -11249684.93343  -8003047.97642  22205950.487    22205947.615
  23468131.789    -6868053.29343  -5309422.59942  23468134.052    23468131.322
 03 12 30  2  3 30.0000000  0  7G17G30G 5G 6G21G10G18
  22102526.727    10859531.81943   8468034.49642  22102528.132    22102525.802
  21578994.020     2192776.69343   1720874.41742  21578996.544    21578993.730
  24182283.205    27781677.76643  21653660.61542  24182284.289    24182282.866
  20453374.313   -22020391.40544 -17116822.46642  20453376.418    20453373.061
  21669591.751   -14279127.26143 -10910015.90742  21669593.764    21669590.164
  22221281.251   -11169111.74043  -7940263.64442  22221282.936    22221280.085
  23448149.927    -6973057.20943  -5391243.75842  23448152.279    23448149.594
 03 12 30  2  4  0.0000000  0  7G17G30G 5G 6G21G10G18
  22113884.537    10919217.30443   8514542.67742  22113885.935    22113883.450
  21594830.678     2275998.97143   1785722.94142  21594833.164    21594830.330
  24202904.056    27890040.07943  21738098.76242  24202905.232    24202903.571
  20448812.870   -22044361.96744 -17135500.81242  20448814.985    20448811.610
  21660263.093   -14328149.61643 -10948215.12042  21660265.119    21660261.405
  22236687.357   -11088152.23043  -7877178.29942  22236688.912    22236686.011
  23428200.420    -7077891.88343  -5472933.06142  23428202.694    23428200.101
 03 12 30  2  4 30.0000000  0  7G17G30G 5G 6G21G10G18
  22125263.426    10979013.84243   8561137.40042  22125264.843    22125262.260
  21610733.583     2359569.00543   1850842.43342  21610736.065    21610733.143
  24223526.487    27998411.68743  21822544.13642  24223527.798    24223526.122
  20444314.163   -22068002.77844 -17153922.20342  20444316.306    20444312.892
  21650975.512   -14376956.57944 -10986246.49442  21650977.481    21650973.660
  22252165.645   -11006812.23543  -7813796.46242  22252167.307    22252164.288
  23408283.020    -7182558.14543  -5554491.10742  23408285.149    23408282.708
 03 12 30  2  5  0.0000000  0  7G17G30G 5G 6G21G10G18
  22136664.703    11038928.13043   8607823.87542  22136666.124    22136663.582
  21626703.740     2443491.89343   1916236.87242  21626706.166    21626703.142
  24244151.494    28106797.07343  21907000.24442  24244153.037    24244151.442
  20439879.953   -22091304.46544 -17172079.34242  20439882.114    20439878.694
  21641730.163   -14425540.46443 -11024104.03242  21641732.224    21641728.377
  22267717.481   -10925086.75143  -7750114.25242  22267719.090    22267716.050
  23388399.788    -7287045.82843  -5635909.98542  23388401.828    23388399.350
 03 12 30  2  5 30.0000000  0  7G17G30G 5G 6G21G10G18
  22148088.443    11098959.69843   8654601.73042  22148089.729    22148087.183
  21642740.322     2527764.90943   1981904.14042  21642742.878    21642739.840
  24264778.810    28215194.21243  21991465.53942  24264780.448    24264778.949
  20435510.657   -22114265.24044 -17189970.84842  20435512.800    20435509.388
  21632527.445   -14473901.41544 -11061787.86142  21632529.425    21632525.528
  22283342.093   -10842978.61043  -7686133.86242  22283343.619    22283340.661
  23368550.712    -7391352.70743  -5717187.99842  23368552.938    23368550.432
 03 12 30  2  6  0.0000000  0  7G17G30G 5G 6G21G10G18
  22159533.463    11159103.23343   8701466.84142  22159534.739    22159532.038
  21658842.195     2612381.06543   2047838.78942  21658844.794    21658841.708
  24285406.973    28323596.23543  22075934.64642  24285408.757    24285407.423
  20431205.707   -22136887.86844 -17207598.85942  20431207.801    20431204.470
  21623366.273   -14522043.87444 -11099301.44242  21623368.255    21623364.334
  22299038.047   -10760494.94743  -7621860.86142  22299039.651    22299036.796
  23348735.587    -7495480.91343  -5798326.77342  23348738.033    23348735.478
 03 12 30  2  6 30.0000000  0  7G17G30G 5G 6G21G10G18
  22170999.799    11219359.77443   8748420.00642  22171001.164    22170998.415
  21675009.185     2697339.28743   2114039.98442  21675011.816    21675008.697
  24306035.967    28432002.62743  22160407.11542  24306037.730    24306036.556
  20426965.666   -22159169.12544 -17224960.86642  20426967.769    20426964.541
  21614246.885   -14569966.35843 -11136643.61342  21614248.933    21614245.052
  22314805.308   -10677636.85643  -7557296.09042  22314806.916    22314804.128
  23328955.456    -7599425.94243  -5879322.83542  23328957.903    23328955.258
 03 12 30  2  7  0.0000000  0  7G17G30G 5G 6G21G10G18
  22182487.326    11279726.47843   8795459.00642  22182488.615    22182485.694
  21691240.465     2782634.88343   2180504.07542  21691243.087    21691239.866
  24326664.962    28540408.63743  22244879.29142  24326666.661    24326665.795
  20422790.500   -22181109.56944 -17242057.30142  20422792.591    20422789.457
  21605169.009   -14617670.94843 -11173815.99642  21605171.063    21605167.151
  22330643.124   -10594408.86843  -7492443.10242  22330644.605    22330641.909
  23309210.322    -7703187.47743  -5960175.89142  23309212.673    23309210.032
 03 12 30  2  7 30.0000000  0  8G17G30G 5G 6G21G10G18G16
  22193994.599    11340198.50243   8842580.08242  22193995.966    22193993.084
  21707534.716     2868261.14643   2247225.82442  21707537.325    21707533.967
  24347292.708    28648807.81543  22329346.15742  24347294.425    24347293.628
  20418679.704   -22202711.47144 -17258889.93542  20418681.773    20418678.799
  21596131.871   -14665161.35043 -11210821.48142  21596133.888    21596129.972
  22346549.931   -10510817.66543  -7427307.06342  22346551.469    22346548.718
  23289499.679    -7806767.25243  -6040887.33142  23289502.025    23289499.369
  24639516.843    -1107697.26253   -848021.68852  24639518.955    24639515.377
 03 12 30  2  8  0.0000000  0  8G17G30G 5G 6G21G10G18G16
  22205523.332    11400782.55443   8889788.45342  22205524.687    22205521.980
  21723892.650     2954222.72843   2314208.86942  21723895.387    21723891.840
  24367919.978    28757205.53643  22413811.89242  24367921.849    24367921.034
  20414635.111   -22223965.82644 -17275451.75642  20414637.142    20414634.256
  21587136.672   -14712430.63943 -11247654.66642  21587138.669    21587134.878
  22362526.857   -10426858.52243  -7361884.33842  22362528.350    22362525.476
  23269825.482    -7910155.69343  -6121449.67342  23269827.767    23269825.117
  24622977.748    -1194611.17743   -915746.71942  24622980.073    24622976.567
 03 12 30  2  8 30.0000000  0  8G17G30G 5G 6G21G10G18G16
  22217073.063    11461476.84243   8937082.71942  22217074.410    22217071.703
  21740313.733     3040515.62343   2381450.07542  21740316.524    21740312.760
  24388546.366    28865597.80643  22498273.38742  24388548.132    24388547.313
  20410656.762   -22244872.20844 -17291742.42842  20410658.742    20410655.935
  21578183.465   -14759479.88443 -11284316.39042  21578185.467    21578181.750
  22378573.043   -10342535.59343  -7296178.13342  22378574.560    22378571.486
  23250187.984    -8013351.59143  -6201861.98842  23250190.112    23250187.594
  24606497.304    -1281215.06743   -983230.17542  24606499.644    24606496.576
 03 12 30  2  9  0.0000000  0  8G17G30G 5G 6G21G10G18G16
  22228644.023    11522282.89743   8984464.09042  22228645.464    22228642.691
  21756797.777     3127139.57543   2448949.24842  21756800.629    21756796.675
  24409171.720    28973984.58243  22582730.58942  24409173.242    24409172.429
  20406745.439   -22265426.49444 -17307758.74242  20406747.404    20406744.634
  21569272.693   -14806306.86243 -11320804.92542  21569274.586    21569270.886
  22394688.162   -10257849.04443  -7230188.60042  22394689.856    22394686.802
  23230587.885    -8116349.97543  -6282120.38642  23230589.943    23230587.711
  24590077.098    -1367503.80043  -1050468.05842  24590079.385    24590076.670
 03 12 30  2  9 30.0000000  0  8G17G30G 5G 6G21G10G18G16
  22240234.631    11583192.70743   9031926.30042  22240236.131    22240233.365
  21773342.889     3214084.51643   2516698.54142  21773345.818    21773341.694
  24429793.990    29082356.46943  22667176.20742  24429795.561    24429794.762
  20402899.967   -22285634.58944 -17323505.29442  20402901.968    20402899.167
  21560402.629   -14852919.15443 -11357126.16642  21560404.540    21560400.873
  22410870.787   -10172809.13443  -7163923.70542  22410872.450    22410869.428
  23211024.482    -8219155.84943  -6362228.77642  23211026.514    23211024.452
  24573715.994    -1453482.22343  -1117464.15142  24573718.243    24573715.586
 03 12 30  2 10  0.0000000  0  9G17G30G29G 5G 6G21G10G18G16
  22251845.653    11644208.65443   9079471.20942  22251847.003    22251844.300
  21789949.070     3301350.75643   2584698.19342  21789952.029    21789947.904
  23502200.857
  24450413.769    29190713.95443  22751610.59042  24450415.105    24450414.543
  20399121.308   -22305491.75244 -17338978.39542  20399123.301    20399120.427
  21551574.070   -14899313.69443 -11393277.73542  21551575.972    21551572.369
  22427120.616   -10087415.43943  -7097383.13942  22427122.226    22427119.343
  23191498.848    -8321763.91243  -6442183.04042  23191500.844    23191498.799
  24557414.948    -1539144.67443  -1184214.01942  24557417.184    24557414.525
 03 12 30  2 10 30.0000000  0  8G17G30G 5G 6G21G10G18G16
  22263477.010    11705333.02843   9127100.61442  22263478.449    22263475.813
  21806616.533     3388938.52143   2652948.37942  21806619.396    21806615.369
  24471030.948    29299057.67343  22836034.25342  24471032.205    24471031.734
  20395410.239   -22324993.54144 -17354174.58342  20395412.244    20395409.334
  21542787.395   -14945487.48843 -11429257.28642  21542789.311    21542785.806
  22443437.992   -10001667.51043  -7030566.55342  22443439.543    22443436.707
  23172011.691    -8424168.92643  -6521979.07842  23172013.754    23172011.730
  24541174.938    -1624485.70243  -1250713.45842  24541177.162    24541174.664
 03 12 30  2 11  0.0000000  0  8G17G30G 5G 6G21G10G18G16
  22275128.653    11766562.40043   9174811.82742  22275129.974    22275127.427
  21823343.918     3476842.43043   2721444.92642  21823346.865    21823342.937
  24491644.719    29407382.78743  22920443.40342  24491645.869    24491645.466
  20391766.551   -22344140.85544 -17369094.55842  20391768.629    20391765.691
  21534042.335   -14991442.65843 -11465066.48942  21534044.197    21534040.736
  22459821.526    -9915570.93943  -6963478.28042  22459823.133    22459820.207
  23152563.146    -8526371.25343  -6601617.19042  23152565.198    23152563.200
  24524996.294    -1709505.22243  -1316962.38142  24524998.439    24524996.332
 03 12 30  2 11 30.0000000  0  8G17G30G 5G 6G21G10G18G16
  22286799.568    11827893.90943   9222602.63042  22286800.881    22286798.496
  21840130.675     3565057.52043   2790183.95142  21840133.550    21840129.694
  24512253.982    29515684.51343  23004834.35742  24512255.246    24512254.703
  20388190.286   -22362934.27544 -17383738.76742  20388192.352    20388189.391
  21525338.398   -15037182.02343 -11500707.52442  21525340.198    21525336.710
  22476270.620    -9829130.57343  -6896122.14542  22476272.163    22476269.125
  23133153.454    -8628369.84743  -6681096.54742  23133155.536    23133153.577
  24508878.719    -1794202.53043  -1382960.23642  24508880.861    24508878.993
 03 12 30  2 12  0.0000000  0  8G17G30G 5G 6G21G10G18G16
  22298490.225    11889328.87943   9270474.04942  22298491.474    22298489.193
  21856976.532     3653582.90143   2859164.75942  21856979.274    21856975.504
  24532858.686    29623962.47043  23089206.76442  24532860.019    24532859.349
  20384681.966   -22381370.52744 -17398104.66842  20384684.044    20384681.057
  21516675.862   -15082703.94843 -11536179.12042  21516677.668    21516674.071
  22492784.931    -9742347.18443  -6828498.71042  22492786.494    22492783.309
  23113783.283    -8730161.18443  -6760414.39742  23113785.340    23113783.243
  24492823.486    -1878573.50543  -1448703.84842  24492825.415    24492823.637
 03 12 30  2 12 30.0000000  0  8G17G30G 5G 6G21G10G18G16
  22310199.917    11950864.32143   9318423.76642  22310201.221    22310199.041
  21873880.388     3742413.66143   2928383.51842  21873883.120    21873879.454
  24553458.163    29732212.47643  23173557.36942  24553459.481    24553458.710
  20381241.519   -22399450.06344 -17412192.60642  20381243.622    20381240.580
  21508054.333   -15128010.47043 -11571482.87342  21508056.150    21508052.422
  22509363.551    -9655225.67543  -6760611.81542  22509365.052    22509361.924
  23094452.627    -8831744.96643  -6839570.54242  23094454.718    23094452.378
  24476830.235    -1962617.59743  -1514192.68742  24476832.115    24476830.385
 03 12 30  2 13  0.0000000  0  9G17G30G29G 5G 6G21G10G18G16
  22321929.681    12012504.30443   9366454.94942  22321930.963    22321928.625
  21890842.763     3831551.80843   2997841.81042  21890845.483    21890841.884
  23448098.158     -939968.69253   -694713.55752  23448100.987    23448093.746
  24574052.476    29840436.35143  23257887.65042  24574053.889    24574053.206
  20377870.166   -22417166.71944 -17425997.77242  20377872.273    20377869.168
  21499474.518   -15173097.21443 -11606615.37742  21499476.401    21499472.602
  22526006.801    -9567764.25143  -6692460.04942  22526008.323    22526005.272
  23075162.673    -8933114.22543  -6918559.50342  23075164.840    23075162.385
  24460900.643    -2046327.56743  -1579421.19242  24460902.508    24460900.816
 03 12 30  2 13 30.0000000  0  9G17G30G29G 5G 6G21G10G18G16
  22333678.366    12074244.02343   9414563.83542  22333679.657    22333677.256
  21907862.407     3920990.31143   3067534.13642  21907865.005    21907861.502
  23439329.128     -986043.07653   -730615.61452  23439333.393    23439325.149
  24594640.896    29948627.71043  23342192.59842  24594642.217    24594641.427
  20374567.394   -22434523.04644 -17439522.16542  20374569.488    20374566.337
  21490935.845   -15217968.15643 -11641579.71342  21490937.732    21490933.897
  22542713.419    -9479969.60143  -6624048.61542  22542715.034    22542712.086
  23055913.103    -9034270.84843  -6997382.80542  23055915.428    23055912.873
  24445034.527    -2129705.14043  -1644390.65942  24445036.219    24445034.450
 03 12 30  2 14  0.0000000  0  9G17G30G29G 5G 6G21G10G18G16
  22345446.280    12136085.34143   9462751.88542  22345447.563    22345445.234
  21924939.106     4010728.78143   3137460.21042  21924941.689    21924938.249
  23430634.180    -1031735.08943   -766219.72542  23430638.167    23430630.813
  24615223.124    30056786.79443  23426472.40242  24615224.358    24615223.766
  20371333.840   -22451515.18144 -17452762.77342  20371335.972    20371332.795
  21482438.697   -15262621.08144 -11676374.16742  21482440.596    21482436.672
  22559483.497    -9391842.27043  -6555377.96642  22559484.964    22559482.306
  23036705.016    -9135209.90643  -7076036.57242  23036707.407    23036704.801
  24429232.586    -2212745.12143  -1709097.06842  24429234.310    24429232.339
 03 12 30  2 14 30.0000000  0  9G17G30G29G 5G 6G21G10G18G16
  22357232.807    12198024.41343   9511016.11842  22357234.139    22357231.880
  21942071.864     4100761.60343   3207615.64642  21942074.367    21942071.028
  23422012.199    -1077045.00643   -801526.07442  23422015.895    23422009.381
  24635797.818    30164908.25843  23510722.88542  24635799.350    24635798.894
  20368169.429   -22468144.28144 -17465720.50142  20368171.587    20368168.310
  21473982.449   -15307058.76744 -11711000.90642  21473984.377    21473980.428
  22576315.878    -9303388.00143  -6486452.54642  22576317.189    22576314.666
  23017538.213    -9235931.90443  -7154521.19542  23017540.631    23017538.006
  24413494.490    -2295447.82443  -1773540.67742  24413496.390    24413494.392
 03 12 30  2 15  0.0000000  0  9G17G30G29G 5G 6G21G10G18G16
  22369038.353    12260063.43743   9559358.23342  22369039.760    22369037.561
  21959260.353     4191088.32943   3278000.10342  21959262.919    21959259.795
  23413463.799    -1121967.90343   -836530.88942  23413467.336    23413461.751
  24656365.389    30272992.12243  23594944.08942  24656367.119    24656366.733
  20365074.849   -22484406.53344 -17478392.37842  20365076.994    20365073.651
  21465567.628   -15351279.13744 -11745458.30042  21465569.555    21465565.507
  22593210.504    -9214606.88143  -6417272.43742  22593211.687    22593209.105
  22998413.543    -9336432.25843  -7232833.11742  22998415.980    22998413.239
  24397821.714    -2377808.38143  -1837717.67742  24397823.547    24397821.476
 03 12 30  2 15 30.0000000  0  8G17G30G 5G 6G21G10G18G16
  22380861.753    12322195.79443   9607773.06442  22380863.107    22380860.967
  21976503.377     4281700.62743   3348607.07742  21976505.906    21976502.784
  24676924.236    30381030.33343  23679129.68742  24676926.057    24676926.016
  20362049.272   -22500305.87044 -17490781.46242  20362051.411    20362048.039
  21457192.983   -15395287.87944 -11779750.79942  21457194.981    21457190.848
  22610165.640    -9125507.14943  -6347844.06542  22610166.839    22610164.040
  22979330.466    -9436714.29743  -7310974.91442  22979332.798    22979330.025
  24382213.410    -2459829.77943  -1901630.41942  24382215.087    24382213.210
 03 12 30  2 16  0.0000000  0  8G17G30G 5G 6G21G10G18G16
  22392704.221    12384429.63643   9656266.98342  22392705.688    22392703.606
  21993801.811     4372604.16943   3419440.97542  21993804.342    21993801.128
  24697475.538    30489029.75443  23763285.04142  24697477.305    24697477.698
  20359094.675   -22515832.26944 -17502879.94042  20359096.804    20359093.404
  21448860.249   -15439076.78844 -11813871.99542  21448862.264    21448858.025
  22627182.528    -9036083.19843  -6278163.06442  22627183.731    22627180.773
  22960291.066    -9536767.13843  -7388938.12942  22960293.281    22960290.483
  24366671.654    -2541500.97043  -1965270.23242  24366673.376    24366671.410
 03 12 30  2 16 30.0000000  0  8G17G30G 5G 6G21G10G18G16
  22404565.218    12446759.17943   9704835.47142  22404566.620    22404564.431
  22011154.245     4463791.11343   3490495.73442  22011156.786    22011153.334
  24718017.858    30596982.14243  23847403.77042  24718019.432    24718020.741
  20356210.418   -22530989.20744 -17514690.52842  20356212.550    20356209.079
  21440568.505   -15482650.17344 -11847825.24242  21440570.517    21440566.287
  22644259.427    -8946342.81043  -6208235.48642  22644260.761    22644257.691
  22941294.893    -9636593.60943  -7466724.95542  22941296.949    22941294.105
  24351196.144    -2622824.54843  -2028639.17042  24351197.976    24351195.913
 03 12 30  2 17  0.0000000  0  9G17G30G29G 5G 6G21G10G18G16
  22416444.295    12509184.34643   9753478.47142  22416445.745    22416443.425
  22028560.031     4555259.05343   3561769.44542  22028562.653    22028559.096
  23380012.153     -785327.11053   -603169.88452  23380014.433    23380007.266
  24738550.857    30704886.23243  23931484.89942  24738552.299    24738554.449
  20353396.810   -22545774.74144 -17526211.70942  20353398.963    20353395.474
  21432317.745   -15526008.16744 -11881610.65742  21432319.788    21432315.550
  22661396.168    -8856288.30443  -6138063.13042  22661397.512    22661394.650
  22922342.105    -9736190.64943  -7544333.00942  22922344.246    22922341.394
  24335787.628    -2703797.28343  -2091734.78242  24335789.608    24335787.041
 03 12 30  2 17 30.0000000  0  9G17G30G29G 5G 6G21G10G18G16
  22428342.095    12571707.45743   9802197.80542  22428343.579    22428340.967
  22046019.317     4647008.29443   3633262.35842  22046022.006    22046018.410
  23371837.985     -828282.11043   -636641.31042  23371840.215    23371834.629
  24759073.651    16633962.25353  12967128.55752  24759075.066    24759078.759
  20350654.716   -22560184.32244 -17537439.93742  20350656.882    20350653.394
  21424108.520   -15569147.87944 -11915225.98042  21424110.580    21424106.339
  22678592.715    -8765919.47843  -6067645.83042  22678594.097    22678591.205
  22903434.133    -9835553.16743  -7621758.31642  22903436.331    22903433.393
  24320446.916    -2784413.93043  -2154552.89142  24320448.666    24320446.025
 03 12 30  2 18  0.0000000  0  9G17G30G29G 5G 6G21G10G18G16
  22440256.725    12634319.35543   9850986.30442  22440258.223    22440255.499
  22063529.972     4739027.08543   3704965.30242  22063532.678    22063529.023
  23363738.243     -870842.51143   -669805.18442  23363741.155    23363735.501
  24779588.026    16741759.68843  13051126.54442  24779588.443    24779591.727
  20347982.849   -22574225.27144 -17548380.92142  20347985.008    20347981.472
  21415939.117   -15612077.94744 -11948677.95042  21415941.218    21415936.969
  22695847.089    -8675247.74743  -5996992.52642  22695848.402    22695845.666
  22884569.311    -9934687.81343  -7699006.04842  22884571.708    22884568.632
  24305172.636    -2864680.54443  -2217098.23642  24305174.477    24305171.558
 03 12 30  2 18 30.0000000  0  9G17G30G29G 5G 6G21G10G18G16
  22452189.682    12697027.38243   9899849.71942  22452191.256    22452188.419
  22081092.995     4831320.91643   3776882.55342  22081095.674    22081091.998
  23355716.570     -912997.69243   -702653.34842  23355719.188    23355713.734
  24800091.098    16849504.17553  13135083.27552  24800091.675    24800094.591
  20345382.997   -22587887.93444 -17559027.13642  20345385.107    20345381.530
  21407811.177   -15654790.67544 -11981960.56742  21407813.229    21407808.959
  22713160.142    -8584267.58843  -5926098.87342  22713161.401    22713158.626
  22865750.033   -10033583.76943  -7776067.80942  22865752.483    22865749.262
  24289966.780    -2944586.40743  -2279362.45342  24289968.441    24289966.069
 03 12 30  2 19  0.0000000  0  9G17G30G29G 5G 6G21G10G18G16
  22464140.082    12759826.69143   9948784.26142  22464141.602    22464138.758
  22098706.797     4923882.58443   3849008.51742  22098709.557    22098705.857
  23347771.595     -954749.62143   -735187.30442  23347773.839    23347768.614
  24820582.893    16957189.02453  13218993.56252  24820583.079    24820586.360
  20342854.499   -22601175.22144 -17569380.84842  20342856.597    20342853.034
  21399723.661   -15697290.58044 -12015077.34042  21399725.723    21399721.469
  22730530.502    -8492986.20943  -5854970.50542  22730531.854    22730528.889
  22846975.777   -10132243.34743  -7852945.37042  22846978.175    22846974.859
  24274829.432    -3024133.39643  -2341347.01842  24274831.303    24274828.979
 03 12 30  2 19 30.0000000  0  8G17G30G29G 6G21G10G18G16
  22476108.943    12822723.53143   9997794.80042  22476110.453    22476107.681
  22116372.457     5016716.28543   3921346.44642  22116375.147    22116371.510
  23339905.271     -996088.67043   -767399.51142  23339907.760    23339902.299
  20340399.074   -22614078.60144 -17579435.42242  20340401.154    20340397.604
  21391678.091   -15739570.40444 -12048022.62042  21391680.090    21391675.865
  22747958.908    -8401399.28643  -5783604.05842  22747960.343    22747957.169
  22828248.264   -10230657.14643  -7929631.42142  22828250.678    22828247.139
  24259762.158    -3103312.19843  -2403044.70842  24259764.109    24259761.788
 03 12 30  2 20  0.0000000  0  8G17G30G29G 6G21G10G18G16
  22488094.443    12885707.40443  10046873.14142  22488095.950    22488093.160
  22134087.329     5109808.87443   3993886.11442  22134090.013    22134086.427
  23332115.649    -1037022.76843   -799296.12242  23332118.026    23332113.289
  20338015.014   -22626606.84844 -17589197.68442  20338017.092    20338013.543
  21383672.512   -15781640.31544 -12080804.33442  21383674.485    21383670.171
  22765443.031    -8309519.76943  -5712009.62142  22765444.429    22765441.054
  22809566.098   -10328833.01143  -8006132.05742  22809568.497    22809564.702
  24244763.382    -3182130.38643  -2464461.42542  24244765.544    24244763.262
 03 12 30  2 20 30.0000000  0  8G17G30G29G 6G21G10G18G16
  22500097.053    12948781.45443  10096021.77542  22500098.546    22500095.614
  22151851.676     5203161.32643   4066628.28542  22151854.361    22151850.847
  23324403.957    -1077545.81043   -830872.47742  23324406.693    23324402.377
  20335703.259   -22638754.71444 -17598663.54542  20335705.377    20335701.866
  21375707.341   -15823497.09244 -12113419.97442  21375709.350    21375705.094
  22782982.762    -8217346.60943  -5640186.35642  22782984.263    22782980.880
  22790930.159   -10426765.25343  -8082442.85842  22790932.589    22790928.743
  24229834.711    -3260581.69543  -2525592.25842  24229836.834    24229834.389
 03 12 30  2 21  0.0000000  0  9G17G30G29G 6G21G26G10G18G16
  22512116.561    13011945.67143  10145240.66542  22512118.109    22512115.265
  22169665.180     5296771.57543   4139571.32942  22169667.780    22169664.301
  23316771.359    -1117654.68743   -862126.08542  23316774.343    23316770.043
  20333464.414   -22650520.04444 -17607831.32142  20333466.480    20333462.993
  21367782.912   -15865140.14244 -12145869.07842  21367784.876    21367780.727
  23063664.277
  22800578.393    -8124881.87743  -5568135.90142  22800579.636    22800576.210
  22772341.151   -10524451.01243  -8158561.60342  22772343.553    22772339.711
  24214976.395    -3338663.11843  -2586434.85742  24214978.496    24214975.834
 03 12 30  2 21 30.0000000  0  9G17G30G29G 6G21G26G10G18G16
  22524153.803    13075201.57743  10194530.99942  22524155.115    22524152.315
  22187527.510     5390638.66443   4212714.51342  22187530.127    22187526.617
  23309218.129    -1157345.03143   -893053.58842  23309220.819    23309217.270
  20331298.983   -22661899.48644 -17616698.40242  20331301.092    20331297.536
  21359899.611   -15906566.85243 -12178149.60542  21359901.582    21359897.478
  23049256.765
  22818229.259    -8032126.39243  -5495858.87342  22818230.501    22818227.109
  22753799.821   -10621885.48643  -8234484.54342  22753802.171    22753798.506
  24200189.009    -3416369.94843  -2646985.58842  24200191.150    24200188.149
 03 12 30  2 22  0.0000000  0  8G17G30G29G 6G21G10G18G16
  22536207.053    13138542.51143  10243887.58442  22536208.260    22536205.741
  22205437.030     5484753.75643   4286050.94642  22205439.661    22205436.120
  23301744.189    -1196620.53743   -923657.84442  23301746.926    23301743.283
  20329206.146   -22672897.48744 -17625268.26442  20329208.232    20329204.664
  21352056.106   -15947784.13243 -12210266.94142  21352058.077    21352054.107
  22835933.811    -7939088.90443  -5423362.13442  22835935.074    22835931.854
  22735305.598   -10719072.50543  -8310214.66142  22735307.925    22735304.391
  24185472.281    -3493705.92043  -2707247.35942  24185474.332    24185470.945
 03 12 30  2 22 30.0000000  0  8G17G30G29G 6G21G10G18G16
  22548278.228    13201976.91943  10293317.00042  22548279.344    22548277.050
  22223394.857     5579122.82343   4359585.27542  22223397.503    22223393.950
  23294350.894    -1235469.88043   -953930.00742  23294353.978    23294349.909
  20327187.840   -22683503.72744 -17633532.84642  20327189.906    20327186.377
  21344254.240   -15988782.89144 -12242214.00342  21344256.142    21344252.300
  22853692.905    -7845763.47243  -5350641.01042  22853694.331    22853691.337
  22716860.678   -10816000.94543  -8385743.29442  22716862.945    22716859.438
  24170828.512    -3570659.80043  -2767211.38942  24170830.492    24170826.702
 03 12 30  2 23  0.0000000  0  8G17G30G29G 6G21G10G18G16
  22560365.132    13265494.52343  10342811.25242  22560366.239    22560364.114
  22241398.669     5673733.30943   4433307.72742  22241401.282    22241397.743
  23287037.725    -1273900.64243   -983876.02342  23287040.776    23287036.736
  20325242.485   -22693726.45044 -17641498.59242  20325244.587    20325241.076
  21336492.156   -16029573.28644 -12273998.69642  21336493.955    21336490.075
  22871504.536    -7752162.35143  -5277705.05442  22871506.019    22871503.121
  22698463.470   -10912678.92543  -8461076.75042  22698465.632    22698462.172
  24156255.988    -3647238.78043  -2826883.26842  24156257.933    24156253.948
 03 12 30  2 23 30.0000000  0  8G17G30G29G 6G21G10G18G16
  22572468.654    13329099.21843  10392373.37342  22572469.697    22572467.604
  22259448.655     5768586.83043   4507219.55942  22259451.323    22259447.848
  23279805.367    -1311905.92843  -1013490.51342  23279808.468    23279804.937
  20323371.241   -22703559.81244 -17649160.93942  20323373.342    20323369.851
  21328770.608   -16070150.29444 -12305617.11742  21328772.384    21328768.440
  22889368.837    -7658283.83543  -5204552.93242  22889370.335    22889367.383
  22680115.442   -11009099.29043  -8536209.47242  22680117.383    22680113.904
  24141756.195    -3723435.77343  -2886257.46542  24141758.355    24141754.204
 03 12 30  2 24  0.0000000  0  8G17G30G29G 6G21G10G18G16
  22584588.986    13392790.76243  10442003.16242  22584589.785    22584587.636
  22277544.544     5863680.82543   4581318.77642  22277547.155    22277543.698
  23272654.665    -1349483.35943  -1042771.58642  23272657.636    23272654.208
  20321574.374   -22713002.32944 -17656518.73442  20321576.459    20321573.012
  21321089.566   -16110514.06444 -12337069.37942  21321091.407    21321087.438
  22907285.573    -7564130.18343  -5131186.44942  22907286.904    22907284.099
  22661816.476   -11105259.83443  -8611139.73442  22661818.605    22661815.073
  24127329.627    -3799248.42743  -2945332.21842  24127331.951    24127327.551
 03 12 30  2 24 30.0000000  0  8G17G30G29G 6G21G10G18G16
  22596725.007    13456566.28143  10491698.36942  22596725.841    22596723.726
  22295685.105     5959009.96043   4655601.19642  22295687.681    22295684.318
  23265585.632    -1386632.89243  -1071719.23442  23265588.274    23265584.977
  20319851.691   -22722054.68944 -17663572.50742  20319853.821    20319850.412
  21313448.714   -16150667.18544 -12368357.50542  21313450.533    21313446.554
  22925253.760    -7469706.61743  -5057609.64142  22925255.021    22925252.094
  22643567.035   -11201160.75243  -8685867.69142  22643569.315    22643565.672
  24112976.288    -3874676.49743  -3004107.30942  24112978.661    24112974.269
 03 12 30  2 25  0.0000000  0  8G17G30G29G 6G21G10G18G16
  22608877.122    13520427.44143  10541460.33042  22608878.198    22608875.998
  22313870.178     6054573.62343   4730066.37942  22313872.768    22313869.502
  23258598.382    -1423350.14643  -1100330.00342  23258601.244    23258597.780
  20318203.996   -22730713.41244 -17670319.54942  20318206.149    20318202.719
  21305848.284   -16190607.77544 -12399480.01642  21305850.092    21305846.074
  22943273.314    -7375013.72243  -4983822.94242  22943274.606    22943271.386
  22625367.919   -11296797.51543  -8760389.81142  22625370.209    22625366.546
  24098696.917    -3949715.53243  -3062579.23042  24098699.342    24098694.914
 03 12 30  2 25 30.0000000  0  8G17G30G29G 6G21G10G18G16
  22621045.913    13584373.78143  10591288.65642  22621046.832    22621044.648
  22332099.408     6150369.06243   4804712.16142  22332101.932    22332098.785
  23251694.270    -1459632.85943  -1128602.16242  23251697.008    23251693.569
  20316631.460   -22738976.96544 -17676758.66442  20316633.640    20316630.184
  21298288.301   -16230335.51344 -12430436.67342  21298290.130    21298286.120
  22961343.779    -7280054.14343  -4909828.48442  22961344.990    22961341.748
  22607219.413   -11392167.77643  -8834704.25242  22607221.871    22607218.143
  24084491.915    -4024362.99343  -3120746.01742  24084494.384    24084490.058
 03 12 30  2 26  0.0000000  0  8G17G30G29G 6G21G10G18G16
  22633230.450    13648403.56843  10641182.01442  22633231.383    22633229.156
  22350371.958     6246391.98743   4879535.21042  22350374.410    22350371.392
  23244873.047    -1495480.40543  -1156535.22742  23244875.680    23244872.108
  20315134.175   -22746845.39144 -17682889.89542  20315136.288    20315132.837
  21290768.561   -16269851.96044 -12461228.69342  21290770.403    21290766.400
  22979464.053    -7184832.25843  -4835629.57442  22979465.429    22979462.075
  22589122.053   -11487270.51243  -8908810.24742  22589124.439    22589120.645
  24070361.608    -4098617.85843  -3178606.93042  24070364.001    24070359.747
 03 12 30  2 26 30.0000000  0  9G17G30G29G 6G21G26G10G18G16
  22645431.328    13712518.84443  10691141.98342  22645432.254    22645429.822
  22368687.823     6342642.44843   4954535.57142  22368690.274    22368687.286
  23238135.413    -1530887.24543  -1184124.92842  23238137.968    23238134.463
  20313712.877   -22754314.43144 -17688709.91442  20313714.973    20313711.520
  21283289.428   -16309154.32944 -12491853.89842  21283291.318    21283287.405
  22908551.092
  22997634.123    -7089347.66543  -4761226.00242  22997635.523    22997632.496
  22571076.482   -11582100.82543  -8982703.94942  22571078.883    22571074.905
  24056307.032    -4172474.76243  -3236157.72542  24056309.377    24056305.256
 03 12 30  2 27  0.0000000  0  9G17G30G29G 6G21G26G10G18G16
  22657646.908    13776712.12943  10741162.73142  22657647.932    22657645.299
  22387044.900     6439110.19843   5029705.24742  22387047.384    22387044.514
  23231480.244    -1565858.75443  -1211375.45442  23231482.978    23231479.515
  20312366.498   -22761390.03444 -17694223.35942  20312368.553    20312365.030
  21275849.764   -16348250.11344 -12522318.12442  21275851.601    21275847.743
  22894830.852
  23015852.183    -6993610.23443  -4686625.39442  23015853.754    23015850.929
  22553081.764   -11676664.17443  -9056389.62942  22553084.077    22553080.049
  24042327.414    -4245938.86343  -3293402.42342  24042329.596    24042325.301
 03 12 30  2 27 30.0000000  0  8G17G30G29G 6G21G10G18G16
  22669879.182    13840993.54943  10791252.15642  22669880.333    22669877.541
  22405444.854     6535802.95143   5105050.24442  22405447.399    22405444.566
  23224910.267    -1600382.24043  -1238276.85242  23224913.120    23224909.657
  20311097.206   -22768060.28844 -17699420.95242  20311099.230    20311095.708
  21268451.509   -16387128.63444 -12552613.05142  21268453.337    21268449.447
  23034119.925    -6897612.47443  -4611821.91342  23034121.513    23034118.666
  22535140.172   -11770947.64543  -9129857.22342  22535142.524    22535138.410
  24028424.745    -4318997.16743  -3350330.88642  24028426.848    24028422.689
 03 12 30  2 28  0.0000000  0  9G17G30G29G 6G21G26G10G18G16
  22682126.480    13905353.50643  10841402.77042  22682127.601    22682124.772
  22423885.544     6632708.91943   5180561.37642  22423888.041    22423885.148
  23218424.838    -1634464.60743  -1264834.47742  23218427.448    23218423.796
  20309903.547   -22774332.79044 -17704308.60842  20309905.609    20309902.037
  21261092.728   -16425799.33444 -12582746.04142  21261094.576    21261090.694
  22867592.908
  23052435.016    -6801365.91143  -4536824.58042  23052436.633    23052433.590
  22517250.678   -11864958.01643  -9203112.01842  22517253.001    22517248.811
  24014598.022    -4391656.38543  -3406948.43442  24014599.986    24014595.982
 03 12 30  2 28 30.0000000  0  9G17G30G29G 6G21G26G10G18G16
  22694388.300    13969790.27143  10891613.24042  22694389.568    22694386.620
  22442365.901     6729823.65043   5256235.16942  22442368.312    22442365.364
  23212023.220    -1668104.89843  -1291047.66042  23212025.674    23212022.346
  20308785.618   -22780207.55444 -17708886.33842  20308787.707    20308784.086
  21253773.091   -16464263.72244 -12612718.27442  21253774.963    21253771.125
  22854075.146     -842815.06853   -462260.15352  22854076.213    22854068.326
  23070796.666    -6704874.69143  -4461636.58042  23070798.328    23070794.911
  22499413.224   -11958694.74343  -9276153.58342  22499415.553    22499411.290
  24000847.349    -4463915.63843  -3463254.27442  24000849.312    24000845.333
 03 12 30  2 29  0.0000000  0  9G17G30G29G 6G21G26G10G18G16
  22706666.646    14034313.00043  10941890.68842  22706667.903    22706664.852
  22460887.067     6827154.19143   5332077.14042  22460889.630    22460886.725
  23205707.520    -1701291.41953  -1316907.22452  23205710.044    23205706.960
  20307745.445   -22785673.56244 -17713145.55342  20307747.550    20307743.909
  21246494.730   -16502511.75844 -12642521.91342  21246496.576    21246492.718
  22840627.301     -913484.83943   -517327.49642  22840629.194    22840623.713
  23089206.121    -6608131.69143  -4386252.42842  23089207.820    23089204.209
  22481630.098   -12052145.54643  -9348972.34042  22481632.389    22481628.259
  23987175.188    -4535762.49943  -3519238.78742  23987177.153    23987173.344
 03 12 30  2 29 30.0000000  0  8G17G30G 6G21G26G10G18G16
  22718959.992    14098915.48243  10992230.30642  22718961.429    22718958.194
  22479447.803     6924692.02643   5408080.63542  22479450.339    22479447.482
  20306782.217   -22790735.21344 -17717089.69042  20306784.332    20306780.668
  21239256.419   -16540549.34344 -12672161.55842  21239258.262    21239254.389
  22827247.894     -983790.87143   -572111.36442  22827250.250    22827245.552
  23107661.962    -6511145.21943  -4310678.52442  23107663.707    23107660.099
  22463900.683   -12145314.17343  -9421571.23542  22463902.991    22463898.850
  23973581.047    -4607200.57543  -3574904.79442  23973583.101    23973579.340
 03 12 30  2 30  0.0000000  0  8G17G30G 6G21G26G10G18G16
  22731268.260    14163595.77543  11042630.53642  22731269.639    22731266.368
  22498047.051     7022432.57443   5484242.08542  22498049.582    22498046.850
  20305895.951   -22795392.82544 -17720718.99242  20305898.036    20305894.347
  21232057.809   -16578378.29444 -12701638.63442  21232059.683    21232055.715
  22813937.814    -1053731.06943   -626610.16442  22813940.878    22813936.627
  23126163.253    -6413919.70943  -4234918.35842  23126164.949    23126161.747
  22446225.066   -12238200.04243  -9493949.78342  22446227.437    22446223.235
  23960064.947    -4678229.08543  -3630251.62942  23960067.034    23960063.218
 03 12 30  2 30 30.0000000  0  8G17G30G 6G21G26G10G18G16
  22743591.654    14228355.33543  11093092.53542  22743593.007    22743589.693
  22516684.674     7120374.75343   5560560.66142  22516687.181    22516684.510
  20305087.066   -22799643.32244 -17724031.06442  20305089.185    20305085.522
  21224899.272   -16615996.74144 -12730951.68642  21224901.162    21224897.096
  22800699.304    -1123300.47943   -680820.07542  22800701.812    22800698.315
  23144709.588    -6316455.96343  -4158972.54342  23144711.442    23144708.705
  22428604.116   -12330798.98843  -9566104.75842  22428606.460    22428602.265
  23946627.677    -4748843.98543  -3685276.14942  23946629.708    23946625.682
 03 12 30  2 31  0.0000000  0  8G17G30G 6G21G26G10G18G16
  22755929.333    14293191.02943  11143613.87142  22755930.846    22755927.588
  22535359.701     7218513.18743   5637032.15142  22535362.143    22535359.571
  20304355.438   -22803488.10844 -17727026.99542  20304357.511    20304353.902
  21217780.242   -16653407.44944 -12760102.86142  21217782.129    21217778.099
  22787531.290    -1192498.11643   -734740.23642  22787533.918    22787531.066
  23163300.787    -6218759.40943  -4082845.35442  23163302.403    23163300.226
  22411037.460   -12423111.87843  -9638036.83842  22411039.865    22411035.814
  23933268.904    -4819045.55543  -3739978.66342  23933270.938    23933266.655
 03 12 30  2 31 30.0000000  0  8G17G30G 6G21G26G10G18G16
  22768282.515    14358107.34243  11194198.01242  22768284.039    22768280.819
  22554072.583     7316849.56543   5713657.89442  22554074.889    22554072.238
  20303702.209   -22806921.05644 -17729702.01242  20303704.235    20303700.610
  21210701.621   -16690605.96144 -12789088.69542  21210703.475    21210699.449
  22774435.872    -1261315.94143   -788364.43142  22774438.402    22774435.413
  23181936.662    -6120827.94643  -4006535.13342  23181937.925    23181936.209
  22393526.663   -12515131.81943  -9709740.64942  22393528.954    22393525.104
  23919989.401    -4888827.18143  -3794353.88842  23919991.690    23919987.442
 03 12 30  2 32  0.0000000  0  8G17G30G 6G21G26G10G18G16
  22780650.308    14423099.44343  11244841.20542  22780651.713    22780648.428
  22572821.822     7415377.01143   5790432.52642  22572824.182    22572821.310
  20303126.737   -22809944.93344 -17732058.27842  20303128.769    20303125.178
  21203662.493   -16727596.52044 -12817912.48342  21203664.384    21203660.332
  22761412.118    -1329754.39943   -841693.01142  22761415.144    22761411.937
  23200615.662    -6022668.56143  -3930047.26542  23200617.055    23200615.317
  22376071.209   -12606860.90243  -9781217.81642  22376073.411    22376069.638
  23906789.659    -4958190.40243  -3848403.08042  23906791.909    23906787.849
 03 12 30  2 32 30.0000000  0  8G17G30G 6G21G26G10G18G16
  22793032.826    14488169.93143  11295545.49942  22793034.339    22793030.873
  22591607.416     7514095.39143   5867355.93142  22591609.781    22591606.776
  20302629.877   -22812555.66144 -17734092.60342  20302631.935    20302628.390
  21196663.563   -16764376.05844 -12846571.83242  21196665.472    21196661.389
  22748461.883    -1397807.37443   -894721.24642  22748465.179    22748462.220
  23219338.072    -5924280.87243  -3853381.52842  23219339.622    23219337.851
  22358672.023   -12698294.34443  -9852464.61342  22358674.151    22358670.392
  23893670.931    -5027130.11143  -3902122.31342  23893672.764    23893668.494
 03 12 30  2 33  0.0000000  0  9G17G30G 6G15G21G26G10G18G16
  22805428.517    14553309.69143  11346303.75942  22805430.043    22805426.522
  22610427.038     7612993.14343   5944419.11042  22610429.459    22610426.349
  20302210.231   -22814760.81244 -17735810.89342  20302212.299    20302208.756
  24495660.175
  21189703.072   -16800953.48844 -12875073.70042  21189705.033    21189700.869
  22735584.263    -1465480.00943   -947453.09542  22735587.148    22735584.935
  23238101.777    -5825676.64943  -3776547.05542  23238103.468    23238101.515
  22341327.826   -12789438.68543  -9923486.14742  22341329.931    22341326.058
  23880631.805    -5095652.80643  -3955516.59942  23880633.546    23880628.502
 03 12 30  2 33 30.0000000  0  9G17G30G 6G15G21G26G10G18G16
  22817840.002    14618530.86743  11397125.46142  22817841.271    22817837.630
  22629282.734     7712079.79343   6021629.49542  22629285.165    22629281.885
  20301870.393   -22816546.73744 -17737202.51842  20301872.490    20301868.921
  24480454.987
  21182783.390   -16837316.76544 -12903408.69142  21182785.320    21182781.098
  22722781.967    -1532756.55543   -999876.34942  22722784.523    22722782.470
  23256908.660    -5726845.62943  -3699535.87042  23256910.370    23256908.324
  22324041.467   -12880279.23443  -9994270.95742  22324043.558    22324039.617
  23867674.584    -5163743.91543  -4008574.56142  23867676.538    23867670.484
 03 12 30  2 34  0.0000000  0 10G17G30G29G 6G15G21G26G10G18G16
  22830264.538    14683822.36243  11448001.95542  22830265.878    22830262.205
  22648171.886     7811342.17943   6098976.79642  22648174.348    22648170.893
  23147327.955
  20301608.607   -22817922.45144 -17738274.48842  20301610.717    20301607.121
  24465268.251
  21175902.472   -16873476.18844 -12931584.84242  21175904.378    21175900.188
  22710053.971    -1599644.03443  -1051996.41942  22710056.648    22710054.136
  23275756.279    -5627800.72043  -3622358.03542  23275758.014    23275755.991
  22306811.182   -12970824.51643 -10064825.69042  22306813.279    22306809.410
  23854797.954    -5231411.37043  -4061302.44642  23854799.971    23854793.116
 03 12 30  2 34 30.0000000  0 10G17G30G29G 6G15G21G26G10G18G16
  22842703.485    14749190.10543  11498937.87342  22842704.870    22842701.292
  22667095.045     7910783.45043   6176463.49042  22667097.500    22667093.930
  23141972.977
  20301426.257   -22818880.76444 -17739021.21742  20301428.381    20301424.769
  24450098.247     -692272.38253   -411337.29652  24450098.293    24450096.483
  21169061.542   -16909425.76144 -12959597.47042  21169063.395    21169059.236
  22697401.317    -1666132.88143  -1103805.84942  22697404.430    22697401.291
  23294645.243    -5528538.83443  -3545011.08242  23294646.946    23294645.011
  22289638.629   -13061066.36243 -10135143.98442  22289640.679    22289636.976
  23842003.419    -5298647.40843  -4113694.12742  23842005.566    23841998.655
 03 12 30  2 35  0.0000000  0 10G17G30G29G 6G15G21G26G10G18G16
  22855157.856    14814637.22443  11549935.64242  22855158.949    22855155.512
  22686052.073     8010404.16743   6254090.00942  22686054.652    22686051.102
  23136709.442     -446152.78953   -329860.56352  23136713.082    23136709.497
  20301324.250   -22819416.91744 -17739438.98942  20301326.385    20301322.753
  24434945.556     -771898.77743                  24434946.297
  21162261.139   -16945162.24444 -12987444.05942  21162262.934    21162258.852
  22684825.398    -1732216.25643  -1155299.32742  22684829.019    22684825.644
  23313575.361    -5429059.30743  -3467494.56142  23313577.267    23313575.557
  22272525.065   -13150999.34443 -10205221.61142  22272526.952    22272523.281
  23829292.143    -5365445.91343  -4165744.91642  23829294.398    23829287.377
 03 12 30  2 35 30.0000000  0 10G17G30G29G 6G15G21G26G10G18G16
  22867625.843    14880157.94143  11600990.74342  22867626.962    22867623.815
  22705041.671     8110196.20243   6331850.03742  22705044.230    22705040.745
  23131536.378     -473337.56143   -351043.48642  23131538.107    23131535.449
  20301301.701   -22819535.18044 -17739531.13242  20301303.854    20301300.272
  24419808.883     -851439.22943                  24419810.813
  21155500.334   -16980690.85844 -13015128.67042  21155502.154    21155498.006
  22672327.241    -1797896.11043  -1206478.43742  22672330.377    22672326.752
  23332545.794    -5329369.81343  -3389814.42142  23332547.510    23332545.986
  22255469.655   -13240626.14443 -10275060.65342  22255471.580    22255467.884
  23816663.244    -5431810.27143  -4217457.36042  23816665.546    23816659.209
 03 12 30  2 36  0.0000000  0 10G17G30G29G 6G15G21G26G10G18G16
  22880108.044    14945752.96643  11652103.76242  22880109.177    22880106.258
  22724063.671     8210157.68343   6409742.09442  22724066.109    22724062.672
  23126453.127     -500046.97543   -371855.98642  23126455.241    23126452.166
  20301359.157   -22819233.34944 -17739295.92742  20301361.268    20301357.680
  24404689.295     -930892.58643   -597274.93442  24404691.582    24404687.519
  21148779.140   -17016010.64944 -13042650.55542  21148781.087    21148776.891
  22659906.397    -1863167.95943  -1257339.68342  22659909.320    22659906.761
  23351555.388    -5229472.16443  -3311972.04942  23351557.358    23351555.937
  22238472.976   -13329943.98543 -10344658.94142  22238474.948    22238471.173
  23804117.495    -5497737.11343  -4268828.85742  23804119.729    23804113.952
 03 12 30  2 36 30.0000000  0 10G17G30G29G 6G15G21G26G10G18G16
  22892603.129    15011414.45743  11703268.56342  22892604.184    22892601.250
  22743116.129     8310278.36343   6487758.19342  22743118.483    22743114.897
  23121459.912     -526286.53543   -392302.39642  23121461.882    23121458.251
  20301495.358   -22818517.53544 -17738738.14042  20301497.469    20301493.870
  24389584.918    -1010265.97643   -659124.25242  24389587.443    24389583.314
  21142096.339   -17051128.90544 -13070015.40142  21142098.324    21142094.104
  22647562.544    -1928035.95043  -1307886.07842  22647565.405    22647563.864
  23370603.136    -5129376.30143  -3233975.28342  23370604.958    23370603.597
  22221534.017   -13418958.51643 -10414020.88542  22221535.948    22221532.148
  23791654.233    -5563231.79643  -4319863.65842  23791656.266    23791650.837
 03 12 30  2 37  0.0000000  0 10G17G30G29G 6G15G21G26G10G18G16
  22905112.802    15077152.61843  11754493.12242  22905113.745    22905110.780
  22762200.318     8410565.59743   6565904.07642  22762202.661    22762198.983
  23116558.448     -552044.08243   -412373.16242  23116560.672    23116556.689
  20301712.499   -22817376.24944 -17737848.81842  20301714.621    20301711.045
  24374497.683    -1089548.87743   -720903.12142  24374500.190    24374496.450
  21135453.691   -17086035.74344 -13097215.51042  21135455.712    21135451.505
  22635297.469    -1992486.27643  -1358106.96842  22635300.613    22635297.492
  23389689.892    -5029074.62743  -3155818.10742  23389691.671    23389690.117
  22204655.146   -13507657.19943 -10483136.71942  22204657.050    22204653.244
  23779275.554    -5628281.83843  -4370551.96442  23779277.522    23779272.399
 03 12 30  2 37 30.0000000  0 10G17G30G29G 6G15G21G26G10G18G16
  22917635.777    15142961.57443  11805772.82942  22917636.805    22917633.738
  22781314.434     8511011.41543   6644173.52742  22781316.853    22781313.351
  23111748.103     -577323.16343   -432071.08742  23111750.388    23111746.549
  20302009.802   -22815813.60944 -17736631.17142  20302011.924    20302008.399
  24359426.988    -1168746.21243   -782615.26642  24359429.272    24359425.928
  21128850.359   -17120736.52844 -13124255.05942  21128852.320    21128848.070
  22623112.475    -2056520.91543  -1408004.04442  22623115.020    22623111.755
  23408814.408    -4928574.91643  -3077506.60342  23408815.981    23408814.208
  22187835.679   -13596043.37443 -10552009.03842  22187837.623    22187833.841
  23766980.808    -5692890.38843  -4420896.22942  23766982.788    23766977.933
 03 12 30  2 38  0.0000000  0 10G17G30G29G 6G15G21G26G10G18G16
  22930171.866    15208841.13643  11857107.58042  22930173.173    22930170.057
  22800458.261     8611612.95743   6722564.33042  22800460.605    22800457.435
  23107028.895     -602121.88043   -451394.67542  23107031.387    23107027.954
  20302387.575   -22813828.32244 -17735084.18742  20302389.679    20302386.162
  24344372.368    -1247857.84143   -844260.62542  24344374.682    24344371.449
  21122286.199   -17155231.14444 -13151133.95042  21122288.137    21122283.847
  22611007.217    -2120136.55143  -1457574.60142  22611009.677    22611006.411
  23427975.939    -4827879.83543  -2999042.85642  23427977.554    23427975.396
  22171076.019   -13684115.22443 -10620636.42142  22171078.017    22171074.327
  23754770.744    -5757055.23243  -4470894.79042  23754772.632    23754767.775
 03 12 30  2 38 30.0000000  0 10G17G30G29G 6G15G21G26G10G18G16
  22942722.679    15274795.49843  11908500.58742  22942723.722    22942720.631
  22819632.041     8712371.78143   6801077.68742  22819634.306    22819631.459
  23102402.371     -626434.04843   -470339.17242  23102404.665    23102401.366
  20302846.864   -22811414.68644 -17733203.42442  20302848.952    20302845.440
  24329334.952    -1326879.39943   -905835.82442  24329337.167    24329334.231
  21115762.213   -17189514.92344 -13177848.56142  21115764.117    21115759.773
  22598982.507    -2183325.30443  -1506812.54342  22598985.123    22598982.300
  23447175.169    -4726987.36843  -2920425.34942  23447176.622    23447174.406
  22154377.575   -13771866.16843 -10689013.74242  22154379.502    22154375.868
  23742646.331    -5820769.88543  -4520542.51942  23742648.262    23742642.877
 03 12 30  2 39  0.0000000  0 10G17G30G29G 6G15G21G26G10G18G16
  22955286.197    15340818.88543  11959947.38942  22955287.428    22955284.399
  22838834.181     8813279.54943   6879707.09942  22838836.439    22838833.822
  23097867.613     -650263.41943   -488907.51842  23097870.120    23097866.159
  20303386.720   -22808577.36744 -17730992.52242  20303388.824    20303385.356
  24314313.611    -1405816.04343   -967344.85642  24314315.682    24314313.167
  21109277.178   -17223593.90544 -13204403.58942  21109279.098    21109274.712
  22587038.673    -2246089.41243  -1555719.55442  22587041.241    22587038.513
  23466410.489    -4625905.92743  -2841660.55342  23466411.758    23466409.523
  22137739.529   -13859299.42743 -10757143.51442  22137741.483    22137737.907
  23730606.783    -5884037.77043  -4569842.16242  23730608.803    23730602.995
 03 12 30  2 39 30.0000000  0 10G17G30G29G 6G15G21G26G10G18G16
  22967863.219    15406911.52743  12011448.16642  22967864.349    22967861.461
  22858064.285     8914334.05743   6958450.86142  22858066.540    22858064.024
  23093425.178     -673607.81043   -507097.97842  23093427.805    23093423.594
  20304007.674   -22805314.58844 -17728450.08942  20304009.709    20304006.250
  24299308.611    -1484667.05543  -1028787.14742  24299310.469    24299308.538
  21102831.274   -17257467.41844 -13230798.51642  21102833.172    21102828.754
  22575176.338    -2308424.98143  -1604292.59642  22575178.911    22575176.047
  23485681.329    -4524636.99343  -2762749.65142  23485682.731    23485680.400
  22121162.302   -13946412.61443 -10825023.88242  22121164.328    22121160.681
  23718652.901    -5946856.07843  -4618791.46642  23718654.927    23718648.980
 03 12 30  2 40  0.0000000  0 10G17G30G29G 6G15G21G26G10G18G16
  22980453.644    15473074.34843  12063003.63642  22980454.673    22980451.976
  22877322.019     9015534.01643   7037307.96042  22877324.303    22877321.844
  23089075.830     -696463.65943   -524907.74342  23089078.478    23089074.096
  20304710.026   -22801623.63144 -17725574.01242  20304712.085    20304708.632
  24284320.440    -1563430.57343  -1090161.25942  24284321.963    24284320.598
  21096424.703   -17291134.00444 -13257032.19042  21096426.606    21096422.202
  22563396.433    -2370327.08543  -1652527.90642  22563399.487    22563396.110
  23504987.563    -4423181.87443  -2683693.71342  23504989.021    23504987.125
  22104646.700   -14033202.19943 -10892652.08742  22104648.732    22104645.045
  23706785.080    -6009221.41843  -4667387.79242  23706787.063    23706781.347
 03 12 30  2 40 30.0000000  0 10G17G30G29G 6G15G21G26G10G18G16
  22993056.711    15539303.76343  12114610.97442  22993057.644    22993055.118
  22896606.017     9116872.54143   7116273.04042  22896608.340    22896605.962
  23084818.953     -718833.36743   -542338.69342  23084821.606    23084817.188
  20305493.348   -22797507.27544 -17722366.45542  20305495.398    20305491.930
  24269348.034    -1642110.61143  -1151470.32842  24269349.368    24269348.219
  21090056.756   -17324597.64544 -13283107.73442  21090058.683    21090054.313
  22551699.086    -2431796.55943  -1700426.19942  22551701.932    22551698.500
  23524327.943    -4321547.33043  -2604497.94942  23524329.544    23524327.885
  22088192.326   -14119670.40143 -10960029.87742  22088194.310    22088190.648
  23695003.159    -6071135.49743  -4715632.46042  23695005.175    23694999.475
 03 12 30  2 41  0.0000000  0 10G17G30G29G 6G15G21G26G10G18G16
  23005673.993    15605606.94243  12166275.78742  23005674.629    23005672.156
  22915917.514     9218354.55543   7195349.91942  22915919.855    22915917.425
  23080655.967     -740707.68843   -559383.58742  23080658.962    23080654.168
  20306359.289   -22792956.78744 -17718820.61342  20306361.330    20306357.826
  24254393.124    -1720699.05343  -1212708.02242  24254394.382    24254393.296
  21083728.958   -17357850.43044 -13309018.97542  21083730.877    21083726.460
  22540086.391    -2492822.16643  -1747978.60342  22540088.953    22540084.655
  23543703.417    -4219727.90943  -2525158.12042  23543705.001    23543703.609
  22071801.028   -14205807.14443 -11027149.37842  22071802.906    22071799.354
  23683309.050    -6132588.57443  -4763517.93742  23683311.013    23683305.313
 03 12 30  2 41 30.0000000  0 10G17G30G29G 6G15G21G26G10G18G16
  23018303.558    15671976.65943  12217992.46842  23018304.397    23018301.825
  22935254.623     9319970.59743   7274531.23442  22935256.884    22935254.375
  23076586.698     -762091.51843   -576046.28042  23076589.333    23076584.780
  20307306.762   -22787977.68644 -17714940.78842  20307308.861    20307305.294
  24239454.242    -1799202.45843  -1273879.43342  24239455.526    24239454.648
  21077439.877   -17390899.41244 -13334771.41142  21077441.770    21077437.383
  22528557.574    -2553407.63943  -1795188.05442  22528560.098    22528554.747
  23563112.249    -4117732.96543  -2445681.53842  23563113.836    23563112.715
  22055471.759   -14291617.39143 -11094014.47242  22055473.665    22055470.209
  23671701.797    -6193585.33543  -4811047.83642  23671703.757    23671697.938
 03 12 30  2 42  0.0000000  0 10G17G30G29G 6G15G21G26G10G18G16
  23030946.079    15738414.23943  12269762.01542  23030947.092    23030944.481
  22954616.741     9421718.77243   7353815.52042  22954619.068    22954616.445
  23072611.188     -782982.22443   -592324.68742  23072613.980    23072609.347
  20308336.238   -22782567.84744 -17710725.31842  20308338.337    20308334.770
  24224531.789    -1877619.53443  -1334983.60242  24224532.916    24224532.739
  21071189.892   -17423743.34844 -13360364.06942  21071191.720    21071187.391
  22517112.959    -2613548.51243  -1842051.03542  22517115.555    22517110.229
  23582554.485    -4015564.08143  -2366069.42142  23582555.871    23582554.787
  22039205.319   -14377098.41743 -11160623.02242  22039207.130    22039203.762
  23660181.924    -6254122.69843  -4858219.77942  23660184.021    23660178.054
 03 12 30  2 42 30.0000000  0 10G17G30G29G 6G15G21G26G10G18G16
  23043601.674    15804920.61743  12321585.18442  23043602.901    23043600.207
  22974003.877     9523598.07443   7433201.96342  22974006.212    22974003.466
  23068730.556     -803376.43043   -608216.28042  23068733.078    23068728.676
  20309448.139   -22776724.50044 -17706172.04942  20309450.272    20309446.734
  24209626.183    -1955948.43043  -1396019.08642  24209627.164    24209627.400
  21064979.209   -17456380.76444 -13385795.80842  21064981.054    21064976.625
  22505754.392    -2673239.87143  -1888563.77842  22505757.068    22505751.837
  23602029.600    -3913221.98043  -2286322.32242  23602030.940    23602029.668
  22023002.267   -14462246.27643 -11226971.96342  22023004.056    22023000.607
  23648750.097    -6314196.93543  -4905030.83342  23648752.289    23648746.338
 03 12 30  2 43  0.0000000  0 10G17G30G29G 6G15G21G26G10G18G16
  23056269.868    15871492.75643  12373459.60142  23056271.201    23056268.410
  22993414.810     9625602.61243   7512686.00042  22993417.223    22993414.300
  23064943.963     -823275.48643   -623721.99342  23064946.616    23064942.316
  20310642.238   -22770449.68044 -17701282.57242  20310644.362    20310640.812
  24194737.349    -2034192.20043  -1456988.19942  24194737.954    24194738.485
  21058807.189   -17488814.84844 -13411069.10442  21058809.014    21058804.619
  22494481.234    -2732481.48643  -1934726.04042  22494483.950    22494479.762
  23621536.696    -3810712.41443  -2206444.75242  23621537.949    23621536.480
  22006862.239   -14547062.21143 -11293062.26242  22006864.098    22006860.634
  23637406.409    -6373809.16443  -4951481.91542  23637408.523    23637402.536
 03 12 30  2 43 30.0000000  0 10G17G30G29G 6G15G21G26G10G18G16
  23068950.840    15938131.54443  12425385.94642  23068952.176    23068949.183
  23012849.252     9727730.73543   7592266.33642  23012851.716    23012848.579
  23061252.158     -842676.82943   -638839.93842  23061254.513    23061250.397
  20311918.797   -22763741.23544 -17696055.20842  20311920.955    20311917.418
  24179864.459    -2112349.26943  -1517889.75742  24179864.677    24179865.357
  21052674.060   -17521044.22444 -13436182.88542  21052675.867    21052671.599
  22483294.112    -2791268.96043  -1980534.43842  22483297.108    22483293.393
  23641075.378    -3708036.37943  -2126437.45942  23641076.629    23641075.005
  21990786.133   -14631542.98943 -11358891.40842  21990787.926    21990784.414
  23626151.238    -6432956.28743  -4997570.52642  23626153.239    23626147.287
 03 12 30  2 44  0.0000000  0 10G17G30G29G 6G15G21G26G10G18G16
  23081644.883    16004839.68243  12477366.31642  23081646.215    23081643.230
  23032307.317     9829982.49643   7671943.01442  23032309.722    23032306.469
  23057655.819     -861575.95643   -653566.51042  23057658.196    23057654.055
  20313278.662   -22756595.27644 -17690486.91642  20313280.800    20313277.314
  24165008.137    -2190416.78343  -1578721.56542  24165008.236    24165009.478
  21046580.525   -17553066.03644 -13461134.92942  21046582.301    21046578.075
  22472195.202    -2849596.33343  -2025984.28942  22472197.918    22472194.319
  23660645.820    -3605193.54943  -2046300.19042  23660647.124    23660645.589
  21974774.566   -14715683.95643 -11424455.75742  21974776.395    21974772.810
  23614985.205    -6491633.31243  -5043292.86442  23614987.314    23614981.332
 03 12 30  2 44 30.0000000  0 10G17G30G29G 6G15G21G26G10G18G16
  23094351.444    16071613.75543  12529398.06842  23094352.783    23094349.842
  23051787.527     9932351.89243   7751711.35242  23051790.122    23051786.783
  23054154.590     -879974.47243   -667902.98842  23054156.990    23054152.630
  20314721.425   -22749013.71744 -17684579.20242  20314723.574    20314720.092
  24150168.108    -2268397.37753  -1639485.63052  24150168.287    24150170.148
  21040525.849   -17584883.58144 -13485927.79942  21040527.620    21040523.361
  22461183.806    -2907463.36043  -2071075.41842  22461186.292    22461182.588
  23680246.912    -3502189.63143  -1966037.38442  23680248.251    23680246.860
  21958827.630   -14799485.95343 -11489755.97942  21958829.440    21958825.750
  23603908.403    -6549841.50643  -5088649.88242  23603910.549    23603904.776
 03 12 30  2 45  0.0000000  0 10G17G30G29G 6G15G21G26G10G18G16
  23107070.516    16138453.62343  12581481.08642  23107072.004    23107069.074
  23071289.620    10034836.11443   7831569.17142  23071292.206    23071288.902
  23050748.894     -897870.93643   -681848.22142  23050751.458    23050746.769
  20316247.136   -22740995.73544 -17678331.41842  20316249.343    20316245.892
  24135346.160    -2346291.18443  -1700182.05642  24135345.618    24135347.431
  21034510.005   -17616497.08044 -13510561.67742  21034511.763    21034507.478
  22450260.546    -2964867.23643  -2115805.65442  22450263.083    22450259.171
  23699878.061    -3399027.20543  -1885651.06242  23699879.494    23699878.288
  21942945.501   -14882947.59043 -11554790.98242  21942947.248    21942943.546
  23592921.402    -6607578.99043  -5133640.08942  23592923.507    23592917.774
 03 12 30  2 45 30.0000000  0 10G17G30G29G 6G15G21G26G10G18G16
  23119801.963    16205357.36943  12633613.87542  23119803.432    23119800.433
  23090812.832    10137430.88343   7911513.13642  23090815.318    23090812.157
  23047438.437     -915265.34043   -695402.21842  23047441.011    23047436.617
  20317855.814   -22732541.79444 -17671743.92442  20317858.021    20317854.623
  24120540.347    -2424099.59543  -1760811.93742  24120539.814    24120541.026
  21028532.633   -17647907.74344 -13535037.50342  21028534.460    21028530.245
  22439425.332    -3021806.04043  -2160173.50542  22439428.033    22439424.132
  23719538.496    -3295710.42343  -1805144.48142  23719539.946    23719539.016
  21927127.978   -14966068.71543 -11619560.65142  21927129.833    21927126.184
  23582024.177    -6664845.26943  -5178263.13742  23582026.174    23582020.264
 03 12 30  2 46  0.0000000  0 10G17G30G29G 6G15G21G26G10G18G16
  23132546.268    16272328.51043  12685799.18142  23132547.710    23132544.544
  23110357.153    10240137.18243   7991543.98542  23110359.649    23110356.545
  23044224.593     -932152.47443   -708560.95642  23044227.607    23044223.206
  20319548.459   -22723647.16044 -17664813.03042  20319550.586    20319547.204
  24105750.358    -2501818.63743  -1821372.21442  24105750.603    24105751.783
  21022594.686   -17679111.77444 -13559352.31242  21022596.462    21022592.257
  22428679.390    -3078273.05143  -2204173.75242  22428682.339    22428678.729
  23739228.721    -3192237.78343  -1724516.42942  23739230.185    23739229.207
  21911376.369   -15048843.21043 -11684060.22542  21911378.327    21911374.731
  23571217.334    -6721634.93143  -5222514.79742  23571219.350    23571213.478
 03 12 30  2 46 30.0000000  0 10G17G30G29G 6G15G21G26G10G18G16
  23145303.094    16339366.07943  12738036.25142  23145304.600    23145301.297
  23129922.179    10342951.40443   8071658.97142  23129924.640    23129921.462
  23041107.880     -948531.60243   -721323.91942  23041110.529    23041106.711
  20321324.950   -22714311.78844 -17657538.71042  20321327.058    20321323.680
  24090977.524    -2579448.96843  -1881863.34842  24090978.126    24090979.189
  21016695.780   -17710110.63944 -13583507.24942  21016697.510    21016693.308
  22418024.557    -3134265.98743  -2247804.56042  22418027.215    22418022.831
  23758948.252    -3088612.94943  -1643769.79242  23758949.448    23758948.377
  21895691.097   -15131270.11743 -11748288.94442  21895693.036    21895689.360
  23560501.335    -6777946.73943  -5266394.10342  23560503.464    23560497.839
 03 12 30  2 47  0.0000000  0 10G17G30G29G 6G15G21G26G10G18G16
  23158071.538    16406465.26443  12790321.33742  23158073.064    23158069.961
  23149506.245    10445865.89743   8151852.04342  23149508.709    23149505.475
  23038087.132     -964406.17943   -733693.71942  23038089.639    23038086.223
  20323184.555   -22704539.57444 -17649923.98542  20323186.673    20323183.273
  24076220.853    -2656995.06543  -1942288.87942  24076221.840    24076222.644
  21010835.157   -17740908.40244 -13607505.48342  21010836.838    21010832.593
  22407459.474    -3189786.31643  -2291067.10742  22407462.273    22407457.128
  23778695.105    -2984843.04743  -1562910.14842  23778696.245    23778694.865
  21880071.326   -15213352.54443 -11812249.23542  21880073.325    21880069.571
  23549875.861    -6833783.65443  -5309903.33642  23549877.893    23549872.704
 03 12 30  2 47 30.0000000  0 10G17G30G29G 6G15G21G26G10G18G16
  23170851.996    16473626.92443  12842655.10242  23170853.380    23170850.367
  23169109.063    10548879.07443   8232122.02342  23169111.554    23169108.388
  23035162.770     -979773.73343   -745668.37442  23035165.459    23035162.217
  20325127.682   -22694328.30244 -17641967.13842  20325129.830    20325126.413
  24061480.764    -2734455.62143  -2002647.72342  24061481.976    24061482.146
  21005013.026   -17771504.05144 -13631346.23242  21005014.725    21005010.341
  22396985.031    -3244829.76243  -2333958.10042  22396988.003    22396982.578
  23798469.380    -2880929.29643  -1481938.35342  23798470.593    23798468.544
  21864517.777   -15295087.36543 -11875938.66142  21864519.761    21864515.887
  23539341.462    -6889142.48743  -5353040.05942  23539343.407    23539338.291
 03 12 30  2 48  0.0000000  0 10G17G30G29G 6G15G21G26G10G18G16
  23183645.821    16540857.49743  12895042.57542  23183646.953    23183643.868
  23188731.324    10651994.76343   8312471.88642  23188733.878    23188730.669
  23032336.034     -994626.09143   -757241.58342  23032338.792    23032335.926
  20327155.830   -22683670.43444 -17633662.30442  20327157.922    20327154.507
  24046758.343    -2811823.83843  -2062934.62642  24046759.990    24046759.354
  20999230.528   -17801891.18944 -13655024.50242  20999232.249    20999227.883
  22386603.145    -3299386.94343  -2376470.13642  22386606.090    22386600.672
  23818271.545    -2776867.57643  -1400851.30142  23818272.973    23818270.598
  21849031.899   -15376466.08543 -11939350.61642  21849033.941    21849029.963
  23528899.558    -6944014.96643  -5395797.79642  23528901.507    23528896.509
 03 12 30  2 48 30.0000000  0 10G17G30G29G 6G15G21G26G10G18G16
  23196451.539    16608151.15843  12947479.19942  23196452.565    23196449.363
  23208371.328    10755204.45843   8392894.99542  23208374.011    23208370.858
  23029606.906    -1008967.51543   -768416.63742  23029609.780    23029606.999
  20329268.002   -22672570.77644 -17625013.21842  20329270.080    20329266.677
  24032052.024    -2889105.38743  -2123153.97942  24032054.055    24032053.145
  20993486.593   -17832075.68644 -13678544.86042  20993488.291    20993483.960
  22376312.962    -3353460.20743  -2418605.07242  22376316.123    22376311.410
  23838100.292    -2672666.14043  -1319655.36042  23838101.872    23838099.306
  21833612.860   -15457493.01343 -12002488.45142  21833614.976    21833610.948
  23518549.417    -6998404.73143  -5438179.42242  23518551.512    23518546.537
 03 12 30  2 49  0.0000000  0 10G17G30G29G 6G15G21G26G10G18G16
  23209268.463    16675504.33643  12999962.20842  23209269.428    23209266.314
  23228028.193    10858501.98743   8473386.56042  23228030.781    23228027.734
  23026974.991    -1022800.26943   -779195.37042  23026977.611    23026974.654
  20331463.763   -22661031.90244 -17616021.88042  20331465.847    20331462.398
  24017361.545    -2966303.53243  -2183308.34642  24017363.691    24017362.492
  20987780.496   -17862060.78944 -13701909.85442  20987782.223    20987777.957
  22366115.063    -3407050.19143  -2460363.41342  22366118.004    22366113.893
  23857954.812    -2568330.72843  -1238355.01742  23857956.181    23857953.681
  21818260.689   -15538169.40343 -12065353.13342  21818262.715    21818258.696
  23508291.059    -7052313.55443  -5480186.26542  23508292.982    23508288.112
 03 12 30  2 49 30.0000000  0 10G17G30G29G 6G15G21G26G10G18G16
  23222097.965    16742924.18443  13052497.16442  23222098.981    23222095.944
  23247702.422    10961892.02943   8553950.21242  23247705.131    23247702.167
  23024441.710    -1036115.56943   -789570.88242  23024443.923    23024440.735
  20333744.750   -22649045.31644 -17606681.68242  20333746.825    20333743.289
  24002688.603    -3043410.55743  -2243391.67742  24002690.758    24002689.411
  20982113.906   -17891838.84444 -13725113.51242  20982115.631    20982111.359
  22356010.983    -3460146.12543  -2501736.86942  22356013.809    22356010.323
  23877835.551    -2463856.19643  -1156946.28942  23877836.905    23877834.687
  21802976.893   -15618486.20443 -12127937.62342  21802978.963    21802974.849
  23498125.785    -7105732.27143  -5521811.20942  23498127.636    23498122.655
 03 12 30  2 50  0.0000000  0 10G17G30G29G 6G15G21G26G10G18G16
  23234939.400    16810406.08643  13105080.47042  23234940.344    23234937.394
  23267393.318    11065367.10043   8634580.11242  23267395.780    23267392.883
  23022004.929    -1048916.76743   -799545.85442  23022007.549    23022004.780
  20336110.161   -22636615.02044 -17596995.73442  20336112.235    20336108.635
  23988031.897    -3120430.93943  -2303407.51342  23988034.180    23988032.617
  20976485.801   -17921414.79244 -13748159.68742  20976487.524    20976483.204
  22346001.189    -3512749.91243  -2542726.79142  22346003.880    22346000.221
  23897741.611    -2359249.90943  -1075434.90642  23897742.769    23897741.105
  21787760.951   -15698446.25143 -12190244.11442  21787763.088    21787758.881
  23488053.010    -7158663.72243  -5563056.46342  23488054.918    23488050.175
 03 12 30  2 50 30.0000000  0 10G17G30G29G 6G15G21G26G10G18G16
  23247792.727    16877950.61143  13157712.57242  23247793.571    23247790.811
  23287099.814    11168925.48643   8715274.94942  23287102.481    23287099.372
  23019667.198    -1061201.49143   -809118.34842  23019669.204    23019667.149
  20338560.382   -22623738.91944 -17586962.40642  20338562.440    20338558.863
  23973392.021    -3197363.49643  -2363354.94642  23973394.303    23973392.662
  20970896.326   -17950787.57644 -13771047.54742  20970898.084    20970893.769
  22336085.527    -3564857.48943  -2583330.04442  22336088.467    22336084.279
  23917672.470    -2254513.07743   -993821.79542  23917673.594    23917672.122
  21772613.536   -15778046.57043 -12252270.30142  21772615.708    21772611.340
  23478073.488    -7211105.06143  -5603919.80542  23478075.483    23478070.999
 03 12 30  2 51  0.0000000  0 10G17G30G29G 6G15G21G26G10G18G16
  23260658.091    16945558.42943  13210394.01742  23260658.862    23260656.251
  23306821.918    11272565.10543   8796033.06342  23306824.603    23306821.325
  23017427.673    -1072968.06543   -818287.09142  23017429.527    23017428.097
  20341095.749   -22610415.57844 -17576580.58242  20341097.815    20341094.226
  23958769.170    -3274207.37543  -2423233.26942  23958771.351    23958769.722
  20965345.598   -17979956.50744 -13793776.56642  20965347.404    20965343.071
  22326264.676    -3616465.22943  -2623543.85242  22326267.636    22326263.482
  23937627.732    -2149647.52543   -912108.36542  23937629.127    23937627.490
  21757534.994   -15857285.13043 -12314014.59342  21757537.158    21757532.707
  23468188.055    -7263054.23843  -5644399.65042  23468189.853    23468185.438
 03 12 30  2 51 30.0000000  0 10G17G30G29G 6G15G21G26G10G18G16
  23273535.220    17013227.38043  13263123.07642  23273535.734    23273533.112
  23326558.565    11376281.03743   8876850.65842  23326561.262    23326557.753
  23015286.349    -1084217.13143   -827052.58342  23015288.329    23015287.473
  20343716.001   -22596646.22044 -17565851.20642  20343718.051    20343714.437
  23944162.813    -3350964.66443  -2483044.09142  23944164.956    23944163.380
  20959833.378   -18008923.42944 -13816348.16842  20959835.182    20959830.783
  22316539.182    -3667572.18543  -2663367.38742  22316542.127    22316537.911
  23957606.685    -2044657.38943   -830297.85342  23957608.238    23957606.463
  21742525.160   -15936161.84843 -12375476.93742  21742527.414    21742522.980
  23458396.195    -7314511.19043  -5684495.94742  23458398.018    23458393.512
 03 12 30  2 52  0.0000000  0 10G17G30G29G 6G15G21G26G10G18G16
  23286423.443    17080956.11543  13315898.71042  23286423.946    23286421.384
  23346308.748    11480069.32343   8957724.62042  23346311.557    23346308.025
  23013244.037    -1094948.53443   -835414.69942  23013245.752    23013245.327
  20346420.975   -22582431.17544 -17554774.54842  20346423.048    20346419.420
  23929572.808    -3427636.31943  -2542788.17042  23929575.004    23929573.174
  20954359.263   -18037689.68244 -13838763.40642  20954361.130    20954356.731
  22306909.086    -3718176.65243  -2702799.41342  22306912.140    22306908.267
  23977608.599    -1939546.48543   -748393.25442  23977610.206    23977608.353
  21727584.236   -16014676.37643 -12436657.04942  21727586.467    21727582.158
  23448698.040    -7365475.55843  -5724208.42042  23448699.990    23448695.113
 03 12 30  2 52 30.0000000  0 10G17G30G29G 6G15G21G26G10G18G16
  23299324.114    17148750.42843  13368725.46542  23299324.738    23299322.285
  23366073.394    11583933.29843   9038657.56842  23366076.229    23366072.697
  23011301.985    -1105155.36343   -843368.07742  23011303.432    23011302.992
  20349212.095   -22567763.74944 -17543345.37742  20349214.138    20349210.516
  23915000.071    -3504216.10543  -2602460.66642  23915002.468    23915000.190
  20948924.500   -18066249.55544 -13861017.83342  20948926.390    20948922.012
  22297376.290    -3768269.87543  -2741833.02542  22297379.346    22297375.950
  23997634.029    -1834311.29843   -666391.80742  23997635.761    23997633.656
  21712713.659   -16092821.08243 -12497548.99242  21712715.834    21712711.740
  23439094.814    -7415939.75843  -5763531.14342  23439096.983    23439091.823
 03 12 30  2 53  0.0000000  0 10G17G30G29G 6G15G21G26G10G18G16
  23312236.268    17216604.15043  13421598.46542  23312236.831    23312234.601
  23385850.739    11687864.01543   9119642.54742  23385853.543    23385850.130
  23009458.639    -1114842.53443   -850916.52042  23009460.420    23009459.379
  20352088.237   -22552649.29644 -17531567.87742  20352090.288    20352086.731
  23900443.524    -3580709.91443  -2662066.20342  23900445.943    23900443.532
  20943527.887   -18094608.98344 -13883116.06442  20943529.804    20943525.394
  22287939.629    -3817854.73943  -2780470.59842  22287942.770    22287940.354
  24017681.738    -1728960.12243   -584299.98442  24017683.380    24017681.084
  21697912.704   -16170600.24143 -12558156.09342  21697914.800    21697910.889
  23429586.113    -7465908.11443  -5802467.47642  23429588.197    23429582.998
 03 12 30  2 53 30.0000000  0 10G17G30G29G 6G15G21G26G10G18G16
  23325159.419    17284515.97343  13474516.78342  23325160.173    23325157.996
  23405639.963    11791857.71543   9200676.57442  23405642.785    23405639.688
  23007714.431    -1124009.91743   -858059.92142  23007716.346    23007714.682
  20355049.373   -22537088.05244 -17519442.22642  20355051.437    20355047.944
  23885903.477    -3657118.70043  -2721605.45842  23885905.630    23885903.163
  20938169.306   -18122768.73344 -13905058.70442  20938171.269    20938166.797
  22278600.831    -3866929.68943  -2818710.75642  22278603.630    22278601.518
  24037750.482    -1623496.73143   -502120.74342  24037752.328    24037750.065
  21683181.438   -16248013.49143 -12618478.07042  21683183.464    21683179.689
  23420171.988    -7515380.06943  -5841017.03142  23420173.966    23420168.891
 03 12 30  2 54  0.0000000  0 10G17G30G29G 6G15G21G26G10G18G16
  23338094.692    17352491.25643  13527484.53542  23338095.668    23338093.285
  23425441.632    11895916.88143   9281761.62742  23425444.496    23425441.658
  23006070.251    -1132651.28543   -864793.42142  23006072.369    23006070.076
  20358096.688   -22521074.16444 -17506963.86542  20358098.695    20358095.282
  23871380.720    -3733437.09643  -2781074.28342  23871382.762    23871380.209
  20932849.532   -18150724.01044 -13926842.01642  20932851.578    20932847.068
  22269360.873    -3915486.60843  -2856547.27642  22269363.361    22269360.974
  24057841.666    -1517918.25543   -419851.79442  24057843.290    24057841.096
  21668521.010   -16325053.74843 -12678509.40542  21668523.097    21668519.464
  23410853.456    -7564348.84643  -5879174.47542  23410855.641    23410850.606
 03 12 30  2 54 30.0000000  0 10G17G30G29G 6G15G21G26G10G18G16
  23351041.230    17420525.56143  13580498.31242  23351042.260    23351039.773
  23445254.476    12000034.63743   9362892.35042  23445257.283    23445254.727
  23004525.550    -1140769.37743   -871119.19442  23004527.974    23004524.964
  20361229.505   -22504610.78344 -17494135.25042  20361231.564    20361228.154
  23856874.324    -3809669.02443  -2840475.71742  23856876.386    23856873.821
  20927568.040   -18178478.41844 -13948468.80042  20927570.094    20927565.558
  22260219.365    -3963526.85543  -2893981.19442  22260221.890    22260218.997
  24077953.430    -1412230.94143   -337498.07142  24077955.000    24077952.850
  21653931.050   -16401723.52143 -12738252.05242  21653933.185    21653929.651
  23401630.283    -7612816.86043  -5916941.74442  23401632.545    23401627.394
 03 12 30  2 55  0.0000000  0 10G17G30G29G 6G15G21G26G10G18G16
  23363999.193    17488620.06843  13633558.97442  23364000.225    23363997.667
  23465078.357    12104209.45543   9444067.52042  23465080.982    23465078.658
  23003080.890    -1148362.14443   -877035.62742  23003083.308    23003080.061
  20364448.301   -22487696.02544 -17480954.91142  20364450.321    20364446.910
  23842384.509    -3885813.30743  -2899808.88142  23842386.622    23842383.881
  20922324.972   -18206030.94444 -13969938.27942  20922327.054    20922322.427
  22251176.675    -4011046.15243  -2931009.20542  22251179.208    22251176.421
  24098085.918    -1306436.20643   -255060.60842  24098087.232    24098085.154
  21639412.311   -16478020.08443 -12797703.89042  21639414.331    21639410.850
  23392502.852    -7660781.43743  -5954316.69842  23392505.094    23392500.013
 03 12 30  2 55 30.0000000  0 10G17G30G29G 6G15G21G26G10G18G16
  23376968.460    17556775.60443  13686667.19142  23376969.652    23376967.107
  23484912.666    12208439.52343   9525285.73542  23484915.244    23484913.072
  23001736.294    -1155427.61743   -882541.17342  23001738.765    23001735.322
  20367753.271   -22470328.26544 -17467421.59242  20367755.276    20367751.843
  23827911.555    -3961868.63343  -2959072.69242  23827913.696    23827910.863
  20917120.408   -18233381.13844 -13991250.09742  20917122.456    20917117.798
  22242234.080    -4058041.07943  -2967628.60142  22242236.533    22242233.365
  24118238.020    -1200535.26643   -172540.37242  24118239.836    24118237.524
  21624965.145   -16553940.54843 -12856862.65442  21624967.096    21624963.612
  23383471.561    -7708240.06143  -5991297.42042  23383473.744    23383468.910
 03 12 30  2 56  0.0000000  0 10G17G30G29G 6G15G21G26G10G18G16
  23389949.624    17624990.76743  13739821.87142  23389950.622    23389947.924
  23504756.612    12312720.81343   9606543.86442  23504759.199    23504757.136
  23000492.056    -1161966.28443   -887636.20442  23000494.434    23000490.655
  20371144.293   -22452508.15344 -17453535.78042  20371146.332    20371142.863
  23813455.346    -4037836.07043  -3018268.01542  23813457.562    23813454.758
  20911954.102   -18260529.88144 -14012404.94542  20911956.137    20911951.528
  22233391.575    -4104509.92743  -3003838.03742  22233394.133    22233390.509
  24138409.812    -1094531.63043    -89940.10042  24138411.798    24138409.549
  21610589.605   -16629484.65143 -12915728.15642  21610591.490    21610588.093
  23374536.580    -7755192.49143  -6027883.71342  23374538.660    23374534.141
 03 12 30  2 56 30.0000000  0 10G17G30G29G 6G15G21G26G10G18G16
  23402942.114    17693265.86843  13793023.25142  23402943.007    23402940.435
  23524609.935    12417051.18943   9687840.25542  23524612.443    23524610.544
  22999348.592    -1167976.33443   -892319.30442  22999350.888    22999346.415
  20374621.682   -22434234.45844 -17439296.53242  20374623.718    20374620.256
  23799016.034    -4113715.10943  -3077394.47442  23799018.087    23799015.645
  20906826.393   -18287476.44444 -14033402.25042  20906828.356    20906823.703
  22224649.840    -4150449.58943  -3039635.14942  22224652.430    22224648.424
  24158600.355     -988427.09143     -7261.21742  24158602.667    24158600.284
  21596286.087   -16704650.29643 -12974298.76342  21596287.992    21596284.630
  23365698.559    -7801636.64143  -6064073.92542  23365700.512    23365696.308
 03 12 30  2 57  0.0000000  0 10G17G30G29G 6G15G21G26G10G18G16
  23415945.968    17761600.72443  13846271.19142  23415946.616    23415944.371
  23544471.869    12521427.58043   9769172.48342  23544474.254    23544472.787
  22998305.894    -1173457.01543   -896589.93842  22998308.135    22998303.006
  20378185.438   -22415506.90644 -17424703.62742  20378187.447    20378184.049
  23784593.205    -4189505.88243  -3136452.15142  23784595.314    23784593.317
  20901737.010   -18314221.16044 -14054242.27242  20901738.994    20901734.358
  22216009.245    -4195857.48943  -3075017.89742  22216011.829    22216007.681
  24178809.766     -882224.28743     75494.20842  24178812.145    24178809.512
  21582054.915   -16779435.86643 -13032573.19942  21582056.820    21582053.471
  23356957.770    -7847571.16443  -6099867.03442  23356959.553    23356955.501
 03 12 30  2 57 30.0000000  0 10G17G30G29G 6G15G21G26G10G18G16
  23428960.125    17829991.67943  13899562.83242  23428960.794    23428958.930
  23564341.431    12625843.74443   9850535.68942  23564343.715    23564342.664
  22997363.290    -1178411.04043   -900450.19542  22997365.613    22997359.885
  20381834.988   -22396328.40044 -17409759.33542  20381837.027    20381833.622
  23770186.769    -4265211.70043  -3195443.62842  23770188.759    23770186.791
  20896685.340   -18340767.68544 -14074927.86242  20896687.284    20896682.728
  22207469.384    -4240734.52243  -3109986.96842  22207472.004    22207468.020
  24199037.421     -775929.19843    158321.58042  24199039.481    24199036.235
  21567895.580   -16853843.67743 -13090553.27742  21567897.462    21567894.104
  23348313.344    -7892998.18843  -6135264.69642  23348315.220    23348311.180
 03 12 30  2 58  0.0000000  0 10G17G30G29G 6G15G21G26G10G18G16
  23441985.996    17898444.66543  13952902.84242  23441986.932    23441985.114
  23584219.486    12730303.22443   9931932.67242  23584221.635    23584220.739
  22996522.188    -1182831.33343   -903894.54742  22996524.534    22996518.412
  20385571.691   -22376691.98944 -17394458.23142  20385573.753    20385570.293
  23755797.733    -4340826.39543  -3254364.09742  23755799.595    23755797.412
  20891672.707   -18367109.54344 -14095453.96642  20891674.607    20891670.004
  22199032.308    -4285071.64143  -3144535.31642  22199035.002    22199030.920
  24219283.077     -669537.93643    241223.87142  24219284.909    24219281.144
  21553809.565   -16927866.17944 -13148233.11042  21553811.470    21553808.071
  23339766.897    -7937910.08143  -6170260.96642  23339768.860    23339764.838
 03 12 30  2 58 30.0000000  0 10G17G30G29G 6G15G21G26G10G18G16
  23455023.091    17966955.88843  14006288.21642  23455024.144    23455022.433
  23604104.447    12834799.12843  10013358.03442  23604106.579    23604105.627
  22995781.880    -1186721.02443   -906925.46142  22995784.410    22995778.017
  20389394.860   -22356601.13044 -17378803.01842  20389396.903    20389393.461
  23741425.159    -4416354.01543  -3313216.69642  23741427.091    23741424.735
  20886698.207   -18393250.90044 -14115823.83642  20886700.111    20886695.439
  22190697.198    -4328870.56543  -3178664.30142  22190699.986    22190695.985
  24239545.776     -563056.68543    324196.27842  24239548.001    24239543.260
  21539796.462   -17001505.77444 -13205614.57542  21539798.372    21539794.879
  23331318.030    -7982309.70643  -6204858.04942  23331320.009    23331315.778
 03 12 30  2 59  0.0000000  0 10G17G30G29G 6G15G21G26G10G18G16
  23468071.482    18035524.29343  14059718.15142  23468072.300    23468070.728
  23623995.922    12939328.16243  10094809.20742  23623997.891    23623996.831
  22995142.587    -1190079.91743   -909542.74742  22995144.976    22995138.651
  20393304.454   -22336055.78744 -17362793.66042  20393306.504    20393303.088
  23727069.117    -4491794.77443  -3372001.61942  23727071.182    23727068.782
  20881761.683   -18419192.23244 -14136037.84642  20881763.602    20881758.927
  22182465.485    -4372128.87643  -3212372.06042  22182467.916    22182463.827
  24259825.318     -456488.56143    407236.40142  24259827.117    24259822.272
  21525856.400   -17074761.02144 -13262696.54842  21525858.312    21525854.787
  23322966.676    -8026196.02543  -6239055.15642  23322968.711    23322964.244
 03 12 30  2 59 30.0000000  0 10G17G30G29G 6G15G21G26G10G18G16
  23481130.455    18104149.36243  14113192.18442  23481131.309    23481129.490
  23643893.106    13043887.25143  10176283.81842  23643894.991    23643893.693
  22994604.509    -1192907.54443   -911746.08242  22994606.881    22994600.744
  20397300.644   -22315055.87944 -17346430.09542  20397302.651    20397299.210
  23712729.563    -4567148.96343  -3430719.08742  23712731.462    23712729.387
  20876863.061   -18444934.35344 -14156096.62142  20876864.953    20876860.327
  22174336.946    -4414844.78643  -3245657.16542  22174339.309    22174334.975
  24280120.523     -349836.43843    490341.95042  24280122.872    24280117.617
  21511989.510   -17147631.44743 -13319478.66542  21511991.476    21511987.911
  23314713.166    -8069568.03243  -6272851.50942  23314715.226    23314710.583
 03 12 30  3  0  0.0000000  0 10G17G30G29G 6G15G21G26G10G18G16
  23494201.903    18172840.88643  14166718.06542  23494202.763    23494200.871
  23663797.088    13148483.22043  10257787.17642  23663799.153    23663797.510
  22994169.323    -1195193.46943   -913527.30942  22994171.771    22994165.852
  20401385.257   -22293591.27244 -17329704.42442  20401387.241    20401383.754
  23698408.310    -4642406.67843  -3489361.38842  23698410.131    23698408.348
  20872004.315   -18470467.38044 -14175992.47042  20872006.179    20872001.568
  22166314.124    -4457005.98543  -3278510.05042  22166316.323    22166311.842
  24300434.369    -4969352.69453  -3109281.08652  24300432.632    24300434.780
  21498198.019   -17220105.97544 -13375952.28442  21498199.972    21498196.370
  23306559.721    -8112414.69243  -6306238.50642  23306561.711    23306557.084
 03 12 30  3  0 30.0000000  0  9G17G30G29G 6G15G21G26G18G16
  23507284.149    18241585.84143  14220285.57642  23507284.493    23507282.309
  23683705.183    13253100.46143  10339307.07242  23683707.322    23683705.339
  22993834.805    -1196949.95943   -914895.97142  22993837.339    22993831.722
  20405555.893   -22271674.36444 -17312626.31742  20405557.890    20405554.380
  23684102.962    -4717580.88043  -3547938.60642  23684104.688    23684103.080
  20867182.938   -18495804.01844 -14195735.28642  20867184.771    20867180.231
  22158394.397    -4498622.65043  -3310938.57842  22158396.782    22158392.410
  21484479.816   -17292195.73344 -13432126.08342  21484481.743    21484478.069
  23298503.962    -8154747.68443  -6339225.24042  23298505.975    23298501.468
 03 12 30  3  1  0.0000000  0  9G17G30G29G 6G15G21G26G18G16
  23520376.282    18310385.87443  14273896.03442  23520376.660    23520374.341
  23703617.015    13357738.23243  10420843.00842  23703619.311    23703616.991
  22993601.812    -1198174.16543   -915849.90542  22993604.173    22993599.046
  20409813.067   -22249302.70244 -17295193.84942  20409815.078    20409811.563
  23669813.951    -4792669.46143  -3606449.12742  23669815.540    23669814.130
  20862399.195   -18520942.55844 -14215323.74242  20862401.063    20862396.577
  22150579.302    -4539690.52643  -3342939.49742  22150581.593    22150577.178
  21470835.365   -17363897.51544 -13487997.55942  21470837.345    21470833.584
  23290546.634    -8196563.69843  -6371809.14342  23290548.627    23290544.160
 03 12 30  3  1 30.0000000  0  9G17G30G29G 6G15G21G26G18G16
  23533479.239    18379246.11243  14327553.38642  23533480.237    23533478.027
  23723533.340    13462398.87743  10502396.74242  23723535.653    23723533.037
  22993471.024    -1198860.32843   -916384.58142  22993473.416    22993468.720
  20414157.847   -22226470.63744 -17277402.62242  20414159.901    20414156.332
  23655541.811    -4867667.49943  -3664889.08742  23655543.454    23655542.458
  20857654.140   -18545877.67844 -14234753.69142  20857656.014    20857651.596
  22142870.254    -4580202.01443  -3374506.84942  22142872.472    22142868.191
  21457266.035   -17435204.65344 -13543561.52242  21457268.042    21457264.199
  23282688.890    -8237856.49943  -6403985.33442  23282690.790    23282686.471
 03 12 30  3  2  0.0000000  0  9G17G30G29G 6G15G21G26G18G16
  23546592.720    18448161.04843  14381253.30242  23546594.055    23546591.978
  23743452.554    13567074.02843  10583961.79242  23743454.753    23743452.037
  22993441.895    -1199013.76743   -916504.12542  22993444.162    22993439.627
  20418589.257   -22203183.37244 -17259256.69842  20418591.275    20418587.709
  23641286.470    -4942580.27543  -3723262.61242  23641287.847    23641286.922
  20852946.668   -18570615.44144 -14254029.85242  20852948.508    20852944.146
  22135266.460    -4620160.39543  -3405643.20342  22135268.865    22135264.544
  21443770.920   -17506121.72444 -13598821.53542  21443772.941    21443768.984
  23274929.897    -8278630.45743  -6435757.22642  23274931.675    23274927.609
 03 12 30  3  2 30.0000000  0  9G17G30G29G 6G15G21G26G18G16
  23559718.793    18517136.78743  14435000.62342  23559719.381    23559717.987
  23763375.010    13671767.52743  10665541.14542  23763377.341    23763374.675
  22993515.367    -1198626.77743   -916202.54942  22993517.760    22993513.588
  20423108.657   -22179433.88344 -17240750.60042  20423110.681    20423107.080
  23627048.574    -5017400.99043  -3781564.38442  23627049.962    23627048.762
  20848278.110   -18595148.86044 -14273146.78042  20848279.919    20848275.564
  22127769.574    -4659556.40643  -3436341.38342  22127772.124    22127767.959
  21430351.537   -17576640.26144 -13653771.01242  21430353.614    21430349.587
  23267270.634    -8318877.87643  -6467118.82742  23267272.594    23267268.968
 03 12 30  3  3  0.0000000  0  9G17G30G29G 6G15G21G26G18G16
  23572855.399    18586167.04543  14488790.48142  23572855.268    23572853.655
  23783299.239    13776470.20143  10747127.62042  23783301.617    23783299.171
  22993690.876    -1197705.53243   -915484.67742  22993693.186    22993689.092
  20427714.774   -22155228.39544 -17221889.18542  20427716.826    20427713.286
  23612826.671    -5092136.38043  -3839799.68842  23612828.171    23612826.782
  20843647.254   -18619484.41544 -14292109.53642  20843649.014    20843644.623
  22120378.959    -4698394.27343  -3466604.61942  22120381.453    22120377.903
  21417007.088   -17646765.51944 -13708414.03142  21417009.107    21417005.058
  23259710.912    -8358603.84243  -6498074.09842  23259712.792    23259709.481
 03 12 30  3  3 30.0000000  0  9G17G30G29G 6G15G21G26G18G16
  23586002.134    18655253.88243  14542624.41642  23586001.928    23586000.294
  23803225.151    13881181.74843  10828721.02942  23803227.591    23803225.336
  22993968.411    -1196246.84243   -914348.01942  22993970.688    22993966.748
  20432408.259   -22130563.96144 -17202670.14642  20432410.328    20432406.831
  23598621.669    -5166783.64143  -3897966.31942  23598622.943    23598621.731
  20839054.440   -18643619.88344 -14310916.37742  20839056.209    20839051.781
  22113095.453    -4736669.19343  -3496429.18442  22113097.861    22113094.722
  21403738.271   -17716493.75244 -13762747.68442  21403740.243    21403736.102
  23252251.446    -8397804.76443  -6528620.25742  23252253.145    23252249.743
 03 12 30  3  4  0.0000000  0  9G17G30G29G 6G15G21G26G18G16
  23599159.423    18724400.72343                                  23599160.125
  23823152.783    13985902.68643  10910321.73542  23823155.323    23823153.322
  22994348.929    -1194246.87843   -912789.58642  22994351.208    22994347.349
  20437189.784   -22105436.92344 -17183090.63642  20437191.832    20437188.379
  23584434.273    -5241339.47743  -3956061.71142  23584435.431    23584434.202
  20834500.376   -18667551.82644 -14329564.63142  20834502.173    20834497.745
  22105920.427    -4774375.35343  -3525810.56742  22105922.590    22105919.387
  21390545.880   -17785820.38844 -13816768.40742  21390547.847    21390543.613
  23244892.532    -8436476.09143  -6558753.76142  23244894.334    23244890.767
 03 12 30  3  4 30.0000000  0  9G17G30G29G 6G15G21G26G18G16
  23612329.770
  23843080.369    14090621.16643  10991920.52742  23843082.804    23843080.775
  22994830.890    -1191714.34943   -910816.16742  22994833.185    22994829.345
  20442057.627   -22079856.10544 -17163157.53142  20442059.680    20442056.216
  23570262.467    -5315812.81843  -4014092.82342  23570263.711    23570262.152
  20829983.265   -18691289.68344 -14348061.64742  20829985.106    20829980.639
  22098851.993    -4811519.81243  -3554754.29242  22098854.300    22098850.737
  21377428.461   -17854753.09444 -13870482.16642  21377430.422    21377426.081
  23237632.953    -8474625.97343  -6588480.92842  23237634.829    23237631.084
 03 12 30  3  5  0.0000000  0  9G17G30G29G 6G15G21G26G18G16
  23625505.743
  23863009.566    14195350.48443  11073527.77642  23863012.232    23863010.261
  22995417.325    -1188632.50643   -908414.73342  22995419.759    22995415.876
  20447015.031   -22053805.08344 -17142858.03742  20447017.046    20447013.579
  23556109.162    -5390187.68643  -4072047.20442  23556110.590    23556108.707
  20825506.184   -18714816.94444 -14366394.55542  20825508.112    20825503.530
  22091893.954    -4848084.20943  -3583246.02742  22091896.143    22091892.671
  21364389.272   -17923274.51744 -13923875.45142  21364391.261    21364386.860
  23230475.845    -8512237.25543  -6617788.40942  23230477.661    23230473.933
 03 12 30  3  5 30.0000000  0  9G17G30G29G 6G15G21G26G18G16
  23638700.486
  23882935.632    14300062.22343  11155121.29442  23882938.411    23882936.263
  22996103.602    -1185026.90943   -905605.13942  22996105.967    22996102.137
  20452057.052   -22027309.34044 -17122212.00642  20452059.046    20452055.611
  23541969.746    -5464489.96043  -4129945.05042  23541971.142    23541969.323
  20821064.176   -18738159.75744 -14384583.74842  20821066.119    20821061.490
  22085042.057    -4884092.18343  -3611304.15242  22085044.216    22085040.554
  21351423.654   -17991409.18844 -13976967.37342  21351425.657    21351421.276
  23223416.020    -8549334.81543  -6646695.56942  23223417.882    23223414.565
 03 12 30  3  6  0.0000000  0  9G17G30G29G 6G15G21G26G18G16
  23651900.901
  23902862.853    14404778.49243  11236718.38742  23902865.623    23902863.002
  22996894.485    -1180872.01343   -902367.54642  22996896.847    22996892.989
  20457188.451   -22000343.71444 -17101199.82542  20457190.458    20457186.996
  23527848.911    -5538694.56843  -4187766.74542  23527850.399    23527848.595
  20816662.014   -18761293.18044 -14402609.77642  20816663.938    20816659.303
  22078300.915    -4919516.30043  -3638907.31942  22078303.348    22078299.615
  21338536.527   -18059131.34744 -14029737.85042  21338538.517    21338534.177
  23216459.318    -8585892.67843  -6675182.21242  23216460.969    23216457.944
 03 12 30  3  6 30.0000000  0  9G17G30G29G 6G15G21G26G18G16
  23665110.331
  23922788.878    14509489.99843  11318311.75542  23922791.830    23922788.832
  22997788.669    -1176174.12843   -898706.82842  22997790.996    22997787.099
  20462408.021   -21972914.60744 -17079826.50042  20462410.031    20462406.552
  23513745.693    -5612808.05643  -4245517.45142  23513747.132    23513745.097
  20812298.528   -18784223.73044 -14420477.71942  20812300.400    20812295.733
  22071669.779    -4954361.10843  -3666059.11642  22071672.247    22071668.886
  21325726.932   -18126446.08544 -14082190.85842  21325728.903    21325724.592
  23209604.456    -8621916.40343  -6703252.60642  23209605.930    23209602.938
 03 12 30  3  7  0.0000000  0  9G17G30G29G 6G15G21G26G18G16
  23678334.015
  23942711.879    14614186.72543  11399893.61242  23942715.073    23942711.828
  22998784.547    -1170940.09443   -894628.32942  22998786.995    22998783.287
  20467714.436   -21945028.97844 -17058097.43742  20467716.463    20467713.044
  23499658.499    -5686837.33443  -4303202.54642  23499659.709    23499657.598
  20807972.249   -18806958.95744 -14438193.46842  20807974.093    20807969.362
  22065148.172    -4988631.70643  -3692763.45542  22065150.561    22065147.243
  21312993.604   -18193359.51344 -14134331.15842  21312995.621    21312991.391
  23202849.887    -8657412.05043  -6730911.56142  23202851.625    23202848.334
 03 12 30  3  7 30.0000000  0  9G17G30G29G 6G15G21G26G18G16
  23691567.417
  23962632.068    14718869.63143  11481464.68842  23962635.260    23962632.071
  22999883.250    -1165165.89743   -890128.93842  22999885.765    22999882.165
  20473108.521   -21916682.87544 -17036009.56842  20473110.524    20473107.212
  23485588.023    -5760779.07543  -4360819.43642  23485589.190    23485586.691
  20803683.780   -18829494.83144 -14455753.87342  20803685.684    20803680.901
  22058737.192    -5022322.32543  -3719015.87742  22058739.512    22058736.271
  21300337.752   -18259866.58744 -14186154.82042  21300339.724    21300335.556
  23196196.567    -8692375.23243  -6758155.59342  23196198.491    23196195.097
 03 12 30  3  8  0.0000000  0  9G17G30G29G 6G15G21G26G18G16
  23704809.308
  23982550.391    14823541.14143  11563026.88642  23982553.309    23982550.241
  23001085.802    -1158846.05143   -885204.38942  23001088.266    23001084.796
  20478591.248   -21887870.95644 -17013558.72342  20478593.263    20478589.962
  23471535.023    -5834628.05843  -4418364.00442  23471536.301    23471533.526
  20799434.233   -18851826.31144 -14473155.02042  20799436.132    20799431.301
  22052437.753    -5055425.84443  -3744810.79642  22052440.122    22052436.806
  21287760.401   -18325961.05744 -14237656.97542  21287762.414    21287758.282
  23189645.864    -8726799.91843  -6784980.00142  23189647.699    23189644.234
 03 12 30  3  8 30.0000000  0  9G17G30G29G 6G15G21G26G18G16
  23718063.248
  24002465.764    14928196.26843  11644576.32742  24002468.338    24002465.424
  23002391.779    -1151982.52443   -879856.17742  23002394.155    23002390.896
  20484162.250   -21858595.31944 -16990746.54042  20484164.232    20484160.930
  23457499.239    -5908386.48243  -4475838.03842  23457500.531    23457497.742
  20795223.092   -18873955.92644 -14490398.86742  20795224.998    20795220.128
  22046249.815    -5087942.36343  -3770148.30042  22046252.368    22046249.038
  21275261.340   -18391643.91344 -14288838.39242  21275263.386    21275259.341
  23183196.960    -8760687.20943  -6811385.67742  23183198.966    23183195.636
 03 12 30  3  9  0.0000000  0  9G17G30G29G 6G15G21G26G18G16
  23731327.301
  24022375.897    15032828.07843  11726107.59042  24022378.574    24022376.402
  23003800.166    -1144579.36543   -874087.46842  23003802.546    23003799.492
  20489820.707   -21828860.15544 -16967576.28742  20489822.682    20489819.359
  23443479.620    -5982058.48243  -4533244.73842  23443480.972    23443478.488
  20791049.650   -18895887.63044 -14507488.49642  20791051.556    20791046.605
  22040173.282    -5119873.98943  -3795030.08242  22040175.721    22040172.657
  21262839.960   -18456918.48544 -14339701.67142  21262842.003    21262838.000
  23176850.100    -8794040.62843  -6837375.35142  23176852.047    23176848.665
 03 12 30  3  9 30.0000000  0  9G17G30G29G 6G15G21G26G18G16
  23744603.916     3734499.63153                                  23744606.246
  24042281.553    15137434.35243  11807618.97042  24042284.162    24042282.039
  23005311.562    -1136635.64243   -867897.53642  23005313.914    23005311.027
  20495566.681   -21798664.82044 -16944047.45842  20495568.658    20495565.382
  23429476.861    -6055643.48743  -4590583.63142  23429478.193    23429475.786
  20786913.919   -18917620.90344 -14524423.50042  20786915.802    20786910.839
  22034208.416    -5151218.19843  -3819454.13742  22034210.784    22034208.011
  21250496.537   -18521783.16144 -14390245.54442  21250498.630    21250494.609
  23170605.291    -8826858.79943  -6862947.92342  23170607.091    23170603.593
 03 12 30  3 10  0.0000000  0  9G17G30G29G 6G15G21G26G18G16
  23757888.013     3804315.74743   -944349.54952  23757888.518    23757886.415
  24062182.283    15242014.22343  11889109.76442  24062184.557    24062182.984
  23006926.457    -1128149.65843   -861285.06942  23006928.769    23006925.835
  20501400.586   -21768007.37144 -16920158.54242  20501402.564    20501399.355
  23415491.304    -6129139.77943  -4647853.40742  23415492.511    23415489.803
  20782816.261   -18939154.26744 -14541202.73642  20782818.087    20782813.102
  22028356.653    -5181971.43443  -3843417.67342  22028358.735    22028355.713
  21238231.800   -18586234.94444 -14440467.68942  21238233.847    21238229.763
  23164462.400    -8859139.11643  -6888101.41842  23164464.346    23164460.869
 03 12 30  3 10 30.0000000  0  9G17G30G29G 6G15G21G26G18G16
  23771183.863     3874191.31743   -889901.06242  23771186.015    23771182.590
  24082078.202    15346568.97543  11970580.98342  24082080.291    24082079.272
  23008645.252    -1119116.97743   -854246.59642  23008647.685    23008644.563
  20507323.207   -21736883.60144 -16895906.25642  20507325.163    20507322.025
  23401522.830    -6202543.29043  -4705050.89342  23401524.249    23401521.607
  20778757.421   -18960483.59044 -14557822.97642  20778759.235    20778754.214
  22022618.502    -5212127.43743  -3866915.84642  22022620.539    22022616.940
  21226046.624   -18650268.89544 -14490364.24442  21226048.629    21226044.533
  23158422.750    -8890876.70443  -6912831.98042  23158424.706    23158421.366
 03 12 30  3 11  0.0000000  0  9G17G30G29G 6G15G21G26G18G16
  23784490.648                     -835413.94442                  23784488.811
  24101967.205    15451086.11043  12052022.88042  24101969.257    24101968.446
  23010466.349    -1109546.99443   -846789.46442  23010468.728    23010465.527
  20513332.748   -21705303.04944 -16871298.03542  20513334.717    20513331.579
  23387570.351    -6275863.38543  -4762183.38842  23387571.839    23387569.470
  20774735.477   -18981618.67344 -14574291.85842  20774737.327    20774732.348
  22016992.367    -5241694.06743  -3889954.74942  22016994.610    22016990.193
  21213939.236   -18713893.52644 -14539941.85042  21213941.226    21213937.243
  23152484.920    -8922080.44643  -6937146.56942  23152486.772    23152483.429
 03 12 30  3 11 30.0000000  0  9G17G30G29G 6G15G21G26G18G16
  23797807.873
  24121849.837    15555569.68943  12133438.67042  24121851.894    24121851.234
  23012391.003    -1099433.01043   -838908.42542  23012393.327    23012390.098
  20519430.582   -21673258.87944 -16846328.55842  20519432.522    20519429.400
  23373634.993    -6349093.63843  -4819245.85942  23373636.428    23373634.515
  20770751.786   -19002552.68944 -14590604.06842  20770753.644    20770748.727
  22011479.705    -5270662.59043  -3912527.57242  22011482.129    22011477.390
  21201911.293   -18777100.62644 -14589194.11442  21201913.284    21201909.338
  23146649.900    -8952742.93643  -6961039.41542  23146651.854    23146648.408
 03 12 30  3 12  0.0000000  0  9G17G30G29G 6G15G21G26G18G16
  23811135.820     -726307.86552                                  23811133.524
  24141725.467    15660017.87743  12214826.87542  24141727.575    24141727.323
  23014419.114    -1088774.39043   -830603.02142  23014421.414    23014418.326
  20525616.652   -21640750.65444 -16820997.47442  20525618.603    20525615.508
  23359716.921    -6422233.28743  -4876237.73942  23359718.362    23359716.650
  20766806.573   -19023284.97444 -14606759.08642  20766808.383    20766803.476
  22006081.464    -5299030.60643  -3934632.49442  22006083.783    22006079.353
  21189963.197   -18839888.87044 -14638119.98842  21189965.098    21189961.055
  23140918.416    -8982862.82643  -6984509.44542  23140920.323    23140916.655
 03 12 30  3 12 30.0000000  0  9G17G30G29G 6G15G21G26G18G16
  23824471.972
  24161593.461    15764424.17643  12296182.45242  24161595.416    24161595.238
  23016550.380    -1077574.63343   -821875.92342  23016552.701    23016549.488
  20531890.369   -21607781.97844 -16795307.59842  20531892.329    20531889.184
  23345815.435    -6495285.93843  -4933161.82642  23345816.928    23345815.207
  20762898.990   -19043819.23244 -14622759.79742  20762900.803    20762895.907
  22000797.096    -5326799.92743  -3956270.91742  22000799.382    22000795.531
  21178094.252   -18902260.83444 -14686721.48642  21178096.159    21178091.978
  23135289.411    -9012442.95043  -7007558.86842  23135291.329    23135287.599
 03 12 30  3 13  0.0000000  0  9G17G30G29G 6G15G21G26G18G16
  23837821.578
  24181453.045    15868786.26143  12377503.53042  24181455.104    24181454.628
  23018784.792    -1065833.27143   -812726.78542  23018787.005    23018783.542
  20538251.725   -21574352.61644 -16769258.74742  20538253.714    20538250.489
  23331930.589    -6568251.21543  -4990017.83242  23331932.115    23331930.462
  20759029.194   -19064154.95844 -14638605.80142  20759030.971    20759026.066
  21995627.204    -5353968.51843  -3977441.21642  21995629.473    21995625.923
  21166304.645   -18964215.18844 -14734997.58642  21166306.608    21166302.412
  23129763.189    -9041482.41143  -7030187.00442  23129765.168    23129761.459
 03 12 30  3 13 30.0000000  0  9G17G30G29G 6G15G21G26G18G16
  23851181.473
  24201304.618    15973107.52943  12458792.85242  24201306.940    24201306.399
  23021123.345    -1053544.21143   -803150.88642  23021125.546    23021121.990
  20544702.046   -21540456.30644 -16742846.03842  20544704.004    20544700.702
  23318063.828    -6641122.83943  -5046800.87442  23318065.348    23318063.651
  20755198.359   -19084286.12344 -14654292.41142  20755200.103    20755195.156
  21990573.048    -5380528.37643  -3998137.19542  21990575.358    21990571.930
  21154595.900   -19025745.03144 -14782942.89342  21154597.892    21154593.670
  23124341.429    -9069974.46443  -7052388.58642  23124343.247    23124339.625
 03 12 30  3 14  0.0000000  0  9G17G30G29G 6G15G21G26G18G16
  23864553.920
  24221146.353    16077377.50143  12540042.14742  24221148.895    24221148.319
  23023564.726    -1040715.40443   -793154.37242  23023566.891    23023563.042
  20551239.639   -21506100.88144 -16716075.58442  20551241.622    20551238.290
  23304213.061    -6713908.73443  -5103517.09342  23304214.778    23304213.172
  20751404.939   -19104220.88644 -14669825.97842  20751406.649    20751401.679
  21985633.414    -5406485.49443  -4018363.48842  21985635.887    21985632.524
  21142966.689   -19086856.99844 -14830562.58142  21142968.727    21142964.374
  23119022.303    -9097926.07543  -7074169.03742  23119024.082    23119020.586
 03 12 30  3 14 30.0000000  0  9G17G30G29G 6G15G21G26G18G16
  23877927.540
  24240980.461    16181606.22443  12621259.32242  24240982.685    24240982.264
  23026111.106    -1027333.79843   -782727.12442  23026113.407    23026109.217
  20557867.118   -21471273.54144 -16688937.39142  20557869.072    20557865.680
  23290380.955    -6786595.98043  -5160156.46742  23290382.860    23290381.328
  20747651.256   -19123946.23444 -14685196.36342  20747653.020    20747648.069
  21980811.299    -5431825.54043  -4038108.94642  21980813.827    21980810.572
  21131419.472   -19147537.74644 -14877846.25442  21131421.519    21131417.132
  23113808.553    -9125324.17043  -7095518.20142  23113810.335    23113806.700
 03 12 30  3 15  0.0000000  0  8G30G29G 6G15G21G26G18G16
  24260803.061    16285775.37143  12702430.07542  24260805.297    24260804.976
  23028759.946    -1013415.25943   -771881.49842  23028762.109    23028757.767
  20564581.377   -21435990.14444 -16661443.83942  20564583.366    20564579.836
  23276564.801    -6859200.36243  -5216731.27542  23276566.551    23276565.098
  20743934.533   -19143477.74844 -14700415.71342  20743936.326    20743931.326
  21976103.980    -5456562.39643  -4057384.39342  21976106.404    21976103.296
  21119951.536   -19207801.81144 -14924805.24242  21119953.570    21119949.256
  23108697.357    -9152183.71643  -7116447.69142  23108699.084    23108695.365
 03 12 30  3 15 30.0000000  0  8G30G29G 6G15G21G26G18G16
  24280614.609    16389886.43243  12783555.56842  24280616.653    24280616.433
  23031511.504     -998956.14143   -760614.63242  23031513.699    23031509.159
  20571383.035   -21400246.73144 -16633591.82042  20571385.086    20571381.539
  23262765.189    -6931717.90743  -5273238.39542  23262766.930    23262765.438
  20740255.407   -19162811.71744 -14715481.12742  20740257.219    20740252.214
  21971512.200    -5480690.35943  -4076185.38642  21971514.636    21971511.809
  21108563.936   -19267643.89444 -14971435.41442  21108565.931    21108561.665
  23103689.522    -9178500.00643  -7136953.87942  23103691.277    23103687.343
 03 12 30  3 16  0.0000000  0  8G30G29G 6G15G21G26G18G16
  24300415.558    16493941.51143  12864637.42442  24300417.381    24300417.395
  23034366.814     -983951.05943   -748922.34442  23034369.198    23034364.475
  20578273.189   -21364038.41444 -16605377.54842  20578275.241    20578271.749
  23248983.045    -7004143.56743  -5329673.93942  23248984.838    23248983.260
  20736614.879   -19181942.80544 -14730388.45342  20736616.725    20736611.696
  21967037.518    -5504202.97743  -4094506.89642  21967039.870    21967037.566
  21097257.681   -19327058.49244 -15017732.47642  21097259.654    21097255.405
  23098786.053    -9204267.86043  -7157032.71542  23098787.819    23098783.768
 03 12 30  3 16 30.0000000  0  8G30G29G 6G15G21G26G18G16
  24320205.747      843744.02953    669678.32552  24320208.089    24320207.939
  23037327.102     -968394.61743   -736800.44442  23037329.455    23037324.694
  20585253.062   -21327359.46844 -16576796.56042  20585255.056    20585251.552
  23235219.531    -7076471.40743  -5386033.25242  23235221.231    23235219.614
  20733014.029   -19200865.38744 -14745133.31442  20733015.855    20733010.842
  21962681.565    -5527092.58743  -4112342.93542  21962683.765    21962682.117
  21086034.107   -19386038.55244 -15063690.94042  21086036.072    21086031.886
  23093988.365    -9229480.67443  -7176679.04242  23093990.093    23093985.924
 03 12 30  3 17  0.0000000  0  8G30G29G 6G15G21G26G18G16
  24339982.297      947665.26743    750655.88142  24339983.398    24339983.918
  23040387.289     -952312.90643   -724269.24042  23040389.664    23040384.925
  20592317.338   -21290236.11344 -16547869.26342  20592319.394    20592315.897
  23221469.644    -7148727.41243  -5442336.58242  23221471.435    23221469.691
  20729447.905   -19219605.41044 -14759735.92342  20729449.722    20729444.720
  21958439.526    -5549383.71543  -4129712.61842  21958441.566    21958440.425
  21074888.370   -19444609.56244 -15109330.66442  21074890.282    21074886.177
  23089291.217    -9254164.02343  -7195912.82842  23089293.106    23089288.855
 03 12 30  3 17 30.0000000  0  8G30G29G 6G15G21G26G18G16
  24359746.311     1051527.00653    831587.09052  24359747.520    24359748.167
  23043552.148     -935681.64543   -711309.79842  23043554.562    23043549.884
  20599470.958   -21252643.96044 -16518576.67742  20599472.966    20599469.466
  23207738.147    -7220887.16843  -5498564.91542  23207739.960    23207738.136
  20725921.189   -19238138.33544 -14774177.15642  20725922.970    20725918.001
  21954316.260    -5571050.36343  -4146595.70042  21954318.269    21954317.229
  21063825.202   -19502746.24744 -15154631.94642  21063827.171    21063823.127
  23084699.579    -9278292.99843  -7214714.62342  23084701.502    23084697.198
 03 12 30  3 18  0.0000000  0  8G30G29G 6G15G21G26G18G16
  24379497.521     1155322.91653    912466.95852  24379499.232    24379500.011
  23046820.880     -918504.69243   -697925.14942  23046823.226    23046818.703
  20606713.062   -21214586.70844 -16488921.68142  20606715.048    20606711.499
  23194024.057    -7292954.47743  -5554721.22642  23194025.854    23194024.220
  20722433.181   -19256467.79644 -14788459.85042  20722434.949    20722430.032
  21950311.618    -5592094.62143  -4162993.81242  21950313.531    21950312.301
  21052844.274   -19560451.29444 -15199596.89142  21052846.212    21052842.189
  23080212.798    -9301870.83843  -7233086.94642  23080214.770    23080210.400
 03 12 30  3 18 30.0000000  0  8G30G29G 6G15G21G26G18G16
  24399234.999     1259043.31153    993288.01052  24399236.657    24399237.535
  23050191.877     -900789.35843   -684120.96542  23050194.234    23050190.042
  20614042.153   -21176071.91544 -16458910.15642  20614044.173    20614040.598
  23180326.247    -7364936.10343  -5610810.77842  23180327.986    23180326.460
  20718982.509   -19274601.03044 -14802589.63042  20718984.316    20718979.393
  21946424.458    -5612522.14843  -4178911.34542  21946426.514    21946424.955
  21041944.305   -19617730.85644 -15244230.29142  21041946.204    21041942.185
  23075829.619    -9324904.28543  -7251035.05942  23075831.515    23075827.270
 03 12 30  3 19  0.0000000  0  8G30G29G 6G15G21G26G18G16
  24418959.282     1362691.16843   1074052.55642  24418960.399    24418961.345
  23053666.401     -882530.32643   -669893.14242  23053668.750    23053664.779
  20621459.396   -21137094.18544 -16428537.90142  20621461.417    20621457.787
  23166646.024    -7436826.47343  -5666829.19442  23166647.688    23166646.007
  20715570.274   -19292532.21644 -14816561.97142  20715572.119    20715567.182
  21942656.115    -5632326.04643  -4194342.93942  21942658.100    21942656.211
  21031126.500   -19674578.49544 -15288527.12742  21031128.412    21031124.369
  23071551.420    -9347387.24043  -7268554.24142  23071553.236    23071548.797
 03 12 30  3 19 30.0000000  0  8G30G29G 6G15G21G26G18G16
  24438668.202     1466260.43343   1154755.83442  24438669.132    24438670.278
  23057243.783     -863731.19543   -655244.46142  23057246.073    23057242.303
  20628964.020   -21097657.09944 -16397807.70242  20628966.040    20628962.413
  23152982.351    -7508628.93443  -5722779.11642  23152984.103    23152982.345
  20712195.864   -19310264.69744 -14830379.48342  20712197.658    20712192.804
  21939006.167    -5651507.94243  -4209289.84842  21939008.172    21939005.604
  21020390.363   -19730997.06644 -15332489.62542  21020392.317    21020388.210
  23067377.255    -9369322.86143  -7285646.93042  23067379.133    23067374.481
 03 12 30  3 20  0.0000000  0  7G29G 6G15G21G26G18G16
  23060927.532     -844372.43743   -640159.70542  23060929.848    23060926.258
  20636559.838   -21057741.04244 -16366704.28942  20636561.842    20636558.220
  23139339.303    -7580323.62743  -5778645.06442  23139340.883    23139339.259
  20708863.110   -19327778.75544 -14844026.79842  20708864.832    20708860.009
  21935478.455    -5670046.79943  -4223735.68542  21935480.573    21935477.459
  21009739.886   -19786965.69044 -15376101.51542  21009741.821    21009737.625
  23063311.082    -9390690.97243  -7302297.40342  23063312.961    23063308.166
 03 12 30  3 20 30.0000000  0  7G29G 6G15G21G26G18G16
  23064710.785     -824490.91743   -624667.62342  23064713.180    23064709.787
  20644239.828   -21017382.72844 -16335256.25342  20644241.832    20644238.167
  23125709.853    -7651947.20543  -5834455.60742  23125711.356    23125709.576
  20705564.947   -19345111.02644 -14857532.45642  20705566.671    20705561.828
  21932066.488    -5687977.77843  -4237707.87242  21932068.623    21932065.317
  20999168.152   -19842520.28444 -15419390.79242  20999170.064    20999165.851
  23059345.827    -9411527.80043  -7318533.87142  23059347.741    23059342.947
 03 12 30  3 21  0.0000000  0  7G29G 6G15G21G26G18G16
  23068598.091     -804063.49443   -608750.15342  23068600.335    23068597.094
  20652008.220   -20976559.19444 -16303445.70642  20652010.292    20652006.677
  23112098.162    -7723476.22843  -5890192.48542  23112099.745    23112097.918
  20702305.814   -19362237.96544 -14870878.11242  20702307.615    20702302.696
  21928774.799    -5705276.20843  -4251187.15142  21928777.078    21928773.440
  20988679.871   -19897636.67844 -15462338.61042  20988681.744    20988677.488
  23055486.264    -9431809.50443  -7334337.78042  23055488.163    23055483.358
 03 12 30  3 21 30.0000000  0  7G29G 6G15G21G26G18G16
  23072588.144     -783094.37143   -592410.57742  23072590.530    23072587.396
  20659864.459   -20935274.27544 -16271275.63842  20659866.527    20659862.979
  23098503.628    -7794914.23043  -5945858.42442  23098505.260    23098503.619
  20699085.070   -19379162.95944 -14884066.41342  20699086.956    20699081.963
  21925603.394    -5721944.29443  -4264175.23242  21925605.575    21925601.546
  20978274.282   -19952318.13144 -15504947.50842  20978276.200    20978271.926
  23051731.675    -9451539.64843  -7349711.91342  23051733.535    23051728.734
 03 12 30  3 22  0.0000000  0  7G29G 6G15G21G26G18G16
  23076680.895     -761587.19243   -575651.73642  23076683.097    23076680.118
  20667807.867   -20893531.63144 -16238748.91342  20667809.901    20667806.325
  23084926.220    -7866264.55743  -6001456.05042  23084927.616    23084926.135
  20695902.019   -19395889.46244 -14897100.04042  20695903.950    20695898.978
  21922551.338    -5737984.21643  -4276673.86142  21922553.631    21922549.376
  20967951.070   -20006566.88144 -15547219.24142  20967952.943    20967948.755
  23048081.307    -9470721.46943  -7364658.79742  23048083.094    23048078.381
 03 12 30  3 22 30.0000000  0  7G29G 6G15G21G26G18G16
  23080876.065     -739541.65543   -558473.40742  23080878.201    23080875.458
  20675838.346   -20851330.90444 -16205865.23642  20675840.416    20675836.869
  23071365.903    -7937526.33843  -6056984.68742  23071367.193    23071365.445
  20692757.091   -19412416.40544 -14909978.17442  20692758.952    20692753.944
  21919619.029    -5753393.67943  -4288681.24942  21919621.346    21919617.117
  20957710.459   -20060381.44044 -15589152.64942  20957712.324    20957708.219
  23044535.733    -9489353.63443  -7379177.34042  23044537.458    23044532.774
 03 12 30  3 23  0.0000000  0  8G30G29G 6G15G21G26G18G16
  24576150.921
  23085174.112     -716954.35343   -540872.90242  23085176.379    23085173.851
  20683956.695   -20808668.61844 -16172621.90242  20683958.730    20683955.270
  23057822.936    -8008695.66443  -6112441.27242  23057824.363    23057822.334
  20689650.678   -19428740.37544 -14922698.14542  20689652.560    20689647.595
  21916807.665    -5768167.93743  -4300193.66242  21916810.021    21916805.663
  20947553.328   -20113757.64244 -15630744.47542  20947555.171    20947551.124
  23041095.444    -9507432.13743  -7393264.46942  23041097.113    23041092.693
 03 12 30  3 23 30.0000000  0  7G29G 6G15G21G26G18G16
  23089574.695     -693829.80843   -522853.77242  23089576.816    23089574.268
  20692162.071   -20765549.15344 -16139022.31642  20692164.043    20692160.744
  23044296.400    -8079776.49043  -6167828.90142  23044298.050    23044296.022
  20686582.151   -19444865.30744 -14935263.01942  20686583.989    20686579.172
  21914116.618    -5782309.84043  -4311213.31342  21914119.080    21914114.476
  20937479.007   -20166698.55644 -15671997.11042  20937480.893    20937476.856
  23037759.731    -9524961.08443  -7406923.38142  23037761.474    23037757.242
 03 12 30  3 24  0.0000000  0  7G29G 6G15G21G26G18G16
  23094078.709     -670159.63843   -504409.47742  23094081.026    23094078.521
  20700456.002   -20721964.07444 -16105059.91742  20700457.999    20700454.805
  23030788.703    -8150760.02143  -6223140.69842  23030790.299    23030788.328
  20683553.304   -19460782.16444 -14947665.75742  20683555.083    20683550.336
  21911547.782    -5795809.39643  -4321732.43442  21911550.242    21911545.611
  20927489.283   -20219194.88944 -15712903.32742  20927491.187    20927487.122
  23034530.477    -9541931.54443  -7420147.09842  23034532.109    23034527.900
 03 12 30  3 24 30.0000000  0  7G29G 6G15G21G26G18G16
  23098684.630     -645955.87843   -485549.40342  23098686.769    23098684.222
  20708836.288   -20677925.18444 -16070743.91142  20708838.274    20708835.116
  23017297.196    -8221657.77443  -6278385.66842  23017298.911    23017296.975
  20680561.872   -19476502.30744 -14959915.21242  20680563.670    20680558.967
  21909099.227    -5808676.77643  -4331758.96842  21909101.625    21909097.265
  20917582.011   -20271257.65944 -15753471.69642  20917583.920    20917579.917
  23031405.097    -9558354.72943  -7432944.38542  23031406.931    23031402.578
 03 12 30  3 25  0.0000000  0  7G29G 6G15G21G26G18G16
  23103392.623     -621214.33043   -466270.28442  23103394.806    23103392.242
  20717303.642   -20633428.40544 -16036071.10042  20717305.623    20717302.615
  23003822.950    -8292464.87443  -6333559.99342  23003824.666    23003822.692
  20677608.743   -19492021.07944 -14972007.75142  20677610.557    20677605.917
  21906771.997    -5820906.25943  -4341288.43242  21906774.474    21906770.298
  20907758.351   -20322881.23944 -15793697.84542  20907760.236    20907756.312
  23028384.722    -9574225.96943  -7445311.58642  23028386.704    23028382.363
 03 12 30  3 25 30.0000000  0  7G29G 6G15G21G26G18G16
  23108203.482     -595933.70943   -446571.09442  23108205.698    23108202.831
  20725858.579   -20588472.23044 -16001040.32242  20725860.461    20725857.563
  22990366.452    -8363179.33843  -6388662.13542  22990368.107    22990365.920
  20674694.326   -19507336.36644 -14983941.73742  20674696.167    20674691.528
  21904566.720    -5832494.94243  -4350318.59042  21904569.132    21904565.065
  20898018.707   -20374063.40244 -15833580.02642  20898020.608    20898016.686
  23025469.957    -9589543.38343  -7457247.21742  23025471.882    23025467.598
 03 12 30  3 26  0.0000000  0  7G29G 6G15G21G26G18G16
  23113116.507     -570116.46043   -426453.74442  23113118.749    23113115.434
  20734500.445   -20543059.02344 -15965653.41142  20734502.312    20734499.415
  22976927.326    -8433803.03443  -6443693.55642  22976928.983    22976926.515
  20671818.260   -19522450.18944 -14995718.73842  20671820.077    20671815.443
  21902483.161    -5843443.77443  -4358850.11842  21902485.584    21902481.407
  20888362.856   -20424805.55344 -15873119.33842  20888364.735    20888360.748
  23022660.376    -9604308.73243  -7468752.66542  23022662.238    23022657.894
 03 12 30  3 26 30.0000000  0  7G29G 6G15G21G26G18G16
  23118131.015     -543765.52643   -405920.53242  23118133.339    23118129.661
  20743228.685   -20497191.60744 -15929912.57542  20743230.577    20743227.626
  22963504.876    -8504338.39043  -6498656.12742  22963506.486    22963504.119
  20668980.095   -19537364.86844 -15007340.55742  20668981.914    20668977.218
  21900521.140    -5853754.03343  -4366884.06642  21900523.573    21900519.286
  20878790.431   -20475109.25144 -15912317.00342  20878792.297    20878788.274
  23019955.356    -9618524.33543  -7479829.76442  23019957.232    23019952.805
 03 12 30  3 27  0.0000000  0  7G29G 6G15G21G26G18G16
  23123247.839     -516877.13343   -384968.52642  23123250.172    23123246.229
  20752044.196   -20450865.88544 -15893814.61542  20752046.083    20752043.027
  22950100.174    -8574780.57743  -6553546.09642  22950101.782    22950099.368
  20666180.763   -19552075.33844 -15018803.24842  20666182.576    20666177.837
  21898681.539    -5863420.06643  -4374416.02542  21898684.061    21898679.923
  20869302.485   -20524969.26744 -15951168.94442  20869304.352    20869300.252
  23017355.728    -9632185.53943  -7490474.84342  23017357.618    23017353.108
 03 12 30  3 27 30.0000000  0  7G29G 6G15G21G26G18G16
  23128466.314     -489453.69143   -363599.59542  23128468.754    23128464.576
  20760946.561   -20404084.28344 -15857361.42442  20760948.468    20760945.209
  22936712.920    -8645131.50543  -6608364.94642  22936714.558    22936711.945
  20663419.895   -19566583.73044 -15030108.47742  20663421.700    20663416.885
  21896964.414    -5872442.92843  -4381446.82642  21896966.786    21896962.862
  20859898.592   -20574387.04044 -15989676.27742  20859900.561    20859896.307
  23014860.987    -9645294.37443  -7500689.52542  23014862.942    23014858.456
 03 12 30  3 28  0.0000000  0  8G29G23G 6G15G21G26G18G16
  23133785.626     -461500.62543   -341817.97242  23133788.017    23133783.748
  24433590.038    -1251427.97353   -961343.04052  24433595.022    24433589.985
  20769934.631   -20356852.15144 -15820557.18042  20769936.595    20769933.158
  22923341.918    -8715395.95743  -6663116.42042  22923343.755    22923340.863
  20660696.707   -19580894.63744 -15041259.82942  20660698.473    20660693.598
  21895368.902    -5880826.67243  -4387979.60642  21895371.196    21895367.374
  20850578.033   -20623366.90244 -16027842.38242  20850580.009    20850575.651
  23012470.650    -9657855.87643  -7510477.68642  23012472.415    23012467.939
 03 12 30  3 28 30.0000000  0  8G29G23G 6G15G21G26G18G16
  23139206.404     -433013.83243   -319620.46342  23139208.794    23139204.456
  24415246.999    -1347823.78453  -1036456.59052  24415250.896    24415247.437
  20779009.091   -20309164.90544 -15783398.29142  20779011.164    20779007.764
  22909988.188    -8785568.69443  -6717796.43142  22909990.150    22909987.455
  20658011.985   -19595003.15144 -15052253.46342  20658013.772    20658008.902
  21893896.201    -5888565.08443  -4394009.53342  21893898.442    21893894.808
  20841341.802   -20671903.53744 -16065663.11442  20841343.801    20841339.388
  23010185.489    -9669864.84443  -7519835.33042  23010187.303    23010182.763
 03 12 30  3 29  0.0000000  0  8G29G23G 6G15G21G26G18G16
  23144729.027     -403992.69943   -297006.60342  23144731.333    23144726.903
  24396940.323    -1444030.09443  -1111422.46542  24396943.096    24396940.520
  20788170.314   -20261022.02744 -15745884.37142  20788172.415    20788169.064
  22896652.464    -8855648.72743  -6772404.21642  22896654.311    22896651.664
  20655366.008   -19608907.79844 -15063088.24242  20655367.865    20655362.999
  21892546.450    -5895656.51143  -4399535.31842  21892548.828    21892545.327
  20832190.161   -20719995.19744 -16103137.11642  20832192.200    20832187.877
  23008005.692    -9681320.67543  -7528761.94542  23008007.579    23008002.907
 03 12 30  3 29 30.0000000  0  8G29G23G 6G15G21G26G18G16
  23150353.319     -374435.36143   -273974.91142  23150355.704    23150351.523
  24378669.874    -1540042.85243  -1186237.50042  24378672.381    24378670.066
  20797418.737   -20212421.64344 -15708013.95142  20797420.797    20797417.425
  22883334.829    -8925633.55543  -6826937.79742  22883336.618    22883333.863
  20652759.247   -19622606.15444 -15073762.28142  20652761.161    20652756.310
  21891320.699    -5902097.45043  -4404554.18842  21891323.172    21891319.547
  20823123.797   -20767639.18244 -16140262.28142  20823125.774    20823121.550
  23005931.534    -9692220.52643  -7537255.33942  23005933.539    23005928.998
 03 12 30  3 30  0.0000000  0  9G 2G29G23G 6G15G21G26G18G16
  25265897.620
  23156079.299     -344345.14643   -250527.99142  23156081.580    23156077.416
  24360435.846    -1635862.94343  -1260902.36142  24360438.416    24360436.741
  20806753.544   -20163366.63844 -15669789.27942  20806755.624    20806752.238
  22870034.932    -8995525.41743  -6881398.94342  22870036.645    22870033.696
  20650191.321   -19636100.47644 -15084277.32942  20650193.223    20650188.485
  21890218.431    -5907889.30243  -4409067.30542  21890220.957    21890217.081
  20814142.316   -20814836.86244 -16177039.68142  20814144.291    20814140.095
  23003962.683    -9702567.15543  -7545317.64342  23003964.636    23003960.184
 03 12 30  3 30 30.0000000  0  9G 2G29G23G 6G15G21G26G18G16
  25257126.292
  23161905.736     -313726.81843   -226669.53742  23161908.088    23161903.860
  24342237.722    -1731492.54053  -1335418.79152  24342240.389    24342239.587
  20816173.991   -20113861.52643 -15631213.88242  20816176.045    20816172.669
  22856751.683    -9065327.86343  -6935790.41342  22856753.412    22856750.691
  20647661.572   -19649394.23144 -15094636.08742  20647663.447    20647658.773
  21889239.127    -5913035.44543  -4413077.27842  21889241.626    21889237.706
  20805245.167   -20861591.77444 -16213472.06042  20805247.120    20805242.857
  23002098.245    -9712364.45743  -7552951.90142  23002100.117    23002095.904
 03 12 30  3 31  0.0000000  0  8G 2G29G 6G15G21G26G18G16
  25248431.341    -1097517.95353   -842532.25652  25248435.412    25248428.357
  23167833.895     -282573.95743   -202394.58042  23167836.172    23167832.158
  20825681.479   -20063899.86644 -15592282.73542  20825683.466    20825680.069
  22843487.065    -9135033.80543  -6990106.70042  22843488.612    22843486.266
  20645171.406   -19662480.37044 -15104833.06742  20645173.283    20645168.513
  21888384.166    -5917528.01743  -4416577.96742  21888386.497    21888382.987
  20796433.673   -20907896.79544 -16249553.88042  20796435.599    20796431.207
  23000339.404    -9721605.74243  -7560152.90242  23000341.338    23000337.462
 03 12 30  3 31 30.0000000  0  9G 2G29G23G 6G15G21G26G18G16
  25239810.072    -1142822.58943   -877834.55942  25239812.353    25239806.640
  23173862.200     -250893.90543   -177708.80842  23173864.490    23173860.613
  24305953.733    -1922160.10953  -1483990.65052  24305956.417    24305956.180
  20835274.403   -20013488.95944 -15553001.52442  20835276.374    20835272.987
  22830239.636    -9204649.85243  -7044352.94042  22830241.047    22830238.933
  20642719.499   -19675365.31144 -15114873.27642  20642721.355    20642716.530
  21887652.319    -5921372.94143  -4419573.99942  21887654.596    21887651.420
  20787706.579   -20953757.93744 -16285289.81942  20787708.538    20787704.068
  22998685.454    -9730297.85243  -7566925.96942  22998687.272    22998683.485
 03 12 30  3 32  0.0000000  0  9G 2G29G23G 6G15G21G26G18G16
  25231262.001    -1187734.69553   -912830.96152  25231264.718    25231260.977
  23179991.739     -218683.22143   -152609.55242  23179993.984    23179990.086
  24287868.813    -2017197.17953  -1558045.39152  24287871.096    24287870.598
  20844953.467   -19962624.83544 -15513367.14442  20844955.455    20844952.180
  22817009.970    -9274171.27343  -7098525.43342  22817011.395    22817009.470
  20640306.722   -19688044.60644 -15124753.24442  20640308.552    20640303.664
  21887044.752    -5924565.04443  -4422061.33442  21887046.917    21887044.185
  20779064.865   -20999170.28344 -16320676.04042  20779066.880    20779062.378
  22997136.858    -9738436.40343  -7573267.70042  22997138.710    22997134.875
 03 12 30  3 32 30.0000000  0  9G 2G29G23G 6G15G21G26G18G16
  25222788.916    -1232258.72743   -947525.02742  25222791.405    25222788.496
  23186221.033     -185948.15343   -127101.69442  23186223.272    23186219.470
  24269821.806    -2112038.48343  -1631947.58842  24269823.646    24269822.485
  20854717.655   -19911313.76644 -15473384.50542  20854719.576    20854716.438
  22803797.347    -9343603.58643  -7152628.50142  22803798.822    22803796.981
  20637932.008   -19700523.55644 -15134477.09842  20637933.857    20637928.989
  21886560.738    -5927109.21343  -4424043.78942  21886562.793    21886560.204
  20770507.569   -21044138.83044 -16355716.44642  20770509.582    20770505.109
  22995692.275    -9746027.29243  -7579182.66642  22995694.202    22995690.468
 03 12 30  3 33  0.0000000  0  9G 2G29G23G 6G15G21G26G18G16
  25214390.708    -1276388.73953   -981911.99652  25214392.976    25214391.140
  23192550.982     -152684.45443   -101181.94342  23192553.185    23192549.436
  24251812.730    -2206677.43343  -1705692.09142  24251814.785    24251813.360
  20864567.747   -19859551.38144 -15433050.18942  20864569.643    20864566.579
  22790602.694    -9412941.52843  -7206658.03642  22790604.185    22790602.499
  20635596.479   -19712796.92144 -15144040.74842  20635598.263    20635593.436
  21886201.074    -5928999.76243  -4425516.92842  21886203.187    21886200.639
  20762035.734   -21088658.37044 -16390406.98442  20762037.690    20762033.302
  22994352.972    -9753065.58343  -7584667.06042  22994354.778    22994351.207
 03 12 30  3 33 30.0000000  0  9G 2G29G23G 6G15G21G26G18G16
  25206068.114    -1320124.97843  -1015992.13142  25206070.208    25206068.330
  23198981.161     -118894.34943    -74851.98342  23198983.337    23198979.401
  24233842.114    -2301113.85643  -1779278.84542  24233844.336    24233843.014
  20874503.396   -19807339.64244 -15392365.72242  20874505.300    20874502.202
  22777425.559    -9482186.37743  -7260615.03642  22777427.092    22777425.726
  20633299.780   -19724866.13944 -15153445.32242  20633301.521    20633296.698
  21885965.554    -5930237.31643  -4426481.24942  21885967.785    21885965.287
  20753649.114   -21132730.06644 -16424748.54842  20753651.038    20753646.716
  22993118.590    -9759553.09143  -7589722.26642  22993120.269    22993116.771
 03 12 30  3 34  0.0000000  0  9G 2G29G23G 6G15G21G26G18G16
  25197820.572    -1363466.74343  -1049764.94242  25197822.669    25197820.530
  23205511.178      -84579.35543    -48113.02942  23205513.330    23205509.304
  24215910.331    -2395346.55143  -1852706.83742  24215912.696    24215911.476
  20884524.322   -19754679.61844 -15351331.94142  20884526.280    20884523.080
  22764266.265    -9551338.11443  -7314499.47542  22764267.612    22764266.590
  20631042.013   -19736731.00444 -15162690.66842  20631043.721    20631038.868
  21885854.576    -5930821.70143  -4426936.59342  21885856.687    21885854.075
  20745347.737   -21176353.71044 -16458740.97842  20745349.623    20745345.370
  22991988.746    -9765490.41843  -7594348.75042  22991990.493    22991987.094
 03 12 30  3 34 30.0000000  0  9G 2G29G23G 6G15G21G26G18G16
  25189648.078    -1406411.96643  -1083228.73442  25189650.555    25189648.713
  23212141.192      -49738.83643    -20964.57542  23212143.399    23212139.200
  24198017.858    -2489372.84543  -1925973.99242  24198020.341    24198019.166
  20894630.637   -19701570.83544 -15309948.47342  20894632.638    20894629.316
  22751125.236    -9620395.64843  -7368310.50742  22751126.305    22751125.313
  20628823.334   -19748390.12444 -15171775.69342  20628825.028    20628820.249
  21885868.101    -5930751.28643  -4426881.69642  21885870.284    21885867.499
  20737132.015   -21219527.54144 -16492382.91242  20737133.864    20737129.643
  22990963.921    -9770876.70043  -7598545.84542  22990965.766    22990962.331
 03 12 30  3 35  0.0000000  0  9G 2G29G23G 6G15G21G26G18G16
  25181551.182    -1448962.38843  -1116384.92142  25181553.242    25181552.008
  23218870.312      -14376.59943      6590.42542  23218872.607    23218868.453
  24180164.723    -2583193.87843  -1999081.22142  24180167.052    24180165.683
  20904821.723   -19648016.58644 -15268217.90142  20904823.728    20904820.308
  22738001.552    -9689361.26643  -7422049.93642  22738002.602    22738001.605
  20626643.370   -19759846.06744 -15180702.40042  20626645.041    20626640.321
  21886005.531    -5930028.04943  -4426318.13142  21886007.861    21886005.215
  20729001.452   -21262253.99544 -16525676.23442  20729003.273    20728999.048
  22990043.424    -9775715.01643  -7602315.97242  22990045.278    22990041.574
 03 12 30  3 35 30.0000000  0  9G 2G29G23G 6G15G21G26G18G16
  25173529.955    -1491115.03443  -1149231.09742  25173531.997    25173530.813
  23225699.045       21508.45243     34552.79642  23225701.301    23225697.228
  24162350.664    -2676806.19243  -2072025.76342  24162353.440    24162351.717
  20915097.679   -19594015.71644 -15226139.30542  20915099.751    20915096.342
  22724895.564    -9758233.02943  -7475716.21142  22724896.746    22724895.850
  20624502.486   -19771096.76744 -15189469.17142  20624504.165    20624499.436
  21886267.815    -5928649.65943  -4425244.05942  21886270.000    21886267.459
  20720956.436   -21304530.94344 -16558619.29342  20720958.275    20720954.020
  22989227.304    -9780003.59743  -7605657.72442  22989229.260    22989225.390
 03 12 30  3 36  0.0000000  0  9G 2G29G23G 6G15G21G26G18G16
  25165585.423    -1532866.68343  -1181764.84742  25165587.410    25165585.681
  23232627.713       57917.50343     62923.49442  23232629.819    23232625.661
  24144577.075    -2770206.23243  -2144804.91642  24144580.085    24144578.299
  20925459.018   -19539566.76444 -15183711.55642  20925461.092    20925457.639
  22711807.909    -9827008.39843  -7529307.38142  22711809.184    22711808.368
  20622401.074   -19782139.73144 -15198074.07542  20622402.813    20622398.005
  21886655.294    -5926613.41443  -4423657.37242  21886657.481    21886654.845
  20712997.426   -21346355.81544 -16591210.08442  20712999.330    20712995.048
  22988516.089    -9783740.72243  -7608569.77442  22988518.064    22988514.124
 03 12 30  3 36 30.0000000  0  9G 2G29G23G 6G15G21G26G18G16
  25157715.730    -1574222.20843  -1213989.95842  25157718.038    25157715.956
  23239654.435       94843.78743     91697.23642  23239656.699    23239652.459
  24126842.875    -2863397.99243  -2217421.75442  24126845.987    24126844.398
  20935904.385   -19484676.11844 -15140939.62642  20935906.496    20935903.007
  22698737.643    -9895692.96643  -7582827.81142  22698738.764    22698738.135
  20620338.172   -19792980.38244 -15206521.33542  20620339.939    20620335.062
  21887167.103    -5923924.54943  -4421562.14042  21887169.194    21887166.369
  20705123.386   -21387734.16044 -16623452.94042  20705125.282    20705121.007
  22987908.826    -9786932.50943  -7611056.89442  22987910.734    22987906.677
 03 12 30  3 37  0.0000000  0  9G 2G29G23G 6G15G21G26G18G16
  25149922.624    -1615175.14543  -1245901.29042  25149925.011    25149922.718
  23246780.720      132292.16243    120877.76742  23246782.854    23246778.689
  24109150.146    -2956374.52543  -2289870.91542  24109152.929    24109151.459
  20946434.726   -19429338.84044 -15097819.67042  20946436.853    20946433.288
  22685685.730    -9964280.78943  -7636272.84542  22685686.820    22685686.252
  20618314.871   -19803612.66044 -15214806.22142  20618316.683    20618311.830
  21887804.224    -5920577.07243  -4418953.71642  21887806.330    21887803.184
  20697335.467   -21428659.88844 -16655343.10342  20697337.390    20697333.083
  22987406.210    -9789573.61543  -7613114.89042  22987408.173    22987404.149
 03 12 30  3 37 30.0000000  0  9G 2G29G23G 6G15G21G26G18G16
  25142205.042    -1655730.28843  -1277502.70242  25142207.299    25142205.174
  23254005.160      170255.89643    150459.89242  23254007.104    23254003.014
  24091497.618    -3049140.05043  -2362155.66542  24091499.996    24091498.479
  20957048.838   -19373561.51344 -15054356.82542  20957050.976    20957047.301
  22672651.250   -10032777.43243  -7689646.83942  22672652.260    22672651.665
  20616330.219   -19814042.22544 -15222933.14742  20616331.998    20616327.195
  21888565.748    -5916576.14843  -4415836.10442  21888567.927    21888564.476
  20689632.752   -21469138.25944 -16686884.67542  20689634.638    20689630.255
  22987007.162    -9791670.38043  -7614748.74142  22987009.132    22987005.065
 03 12 30  3 38  0.0000000  0  9G 2G29G23G 6G15G21G26G18G16
  25134564.751    -1695880.91343  -1308788.93142  25134566.798    25134564.586
  23261328.046      208739.55443    180447.18342  23261330.335    23261326.037
  24073886.652    -3141687.42343  -2434270.41242  24073888.872    24073887.157
  20967747.577   -19317339.15844 -15010547.20242  20967749.723    20967746.032
  22659635.151   -10101177.01243  -7742945.17842  22659636.111    22659635.508
  20614385.191   -19824263.14544 -15230897.49742  20614386.970    20614382.213
  21889452.587    -5911915.85243  -4412204.69342  21889454.890    21889451.299
  20682016.216   -21509163.32344 -16718073.01942  20682018.113    20682013.734
  22986712.643    -9793217.54543  -7615954.32842  22986714.606    22986710.502
 03 12 30  3 38 30.0000000  0  9G 2G29G23G 6G15G21G26G18G16
  25127001.060    -1735629.11543  -1339761.57442  25127002.819    25127000.866
  23268749.675      247738.88143    210836.26142  23268751.707    23268747.255
  24056316.485    -3234018.20143  -2506216.38542  24056319.064    24056316.764
  20978530.182   -19260675.70944 -14966393.87542  20978532.353    20978528.683
  22646637.047   -10169482.48143  -7796170.19642  22646638.073    22646637.220
  20612479.282   -19834278.29544 -15238701.51442  20612481.052    20612476.430
  21890464.356    -5906598.91743  -4408061.62942  21890466.745    21890463.095
  20674485.331   -21548738.28444 -16748910.64742  20674487.243    20674482.909
  22986522.072    -9794218.90343  -7616734.60642  22986523.867    22986519.815
 03 12 30  3 39  0.0000000  0  9G 2G29G23G 6G15G21G26G18G16
  25119514.322    -1774973.59643  -1370419.64442  25119515.989    25119513.909
  23276268.748      287253.55743    241626.93542  23276271.051    23276266.597
  24038787.888    -3326130.34943  -2577991.98942  24038790.597    24038788.238
  20989396.723   -19203571.42144 -14921897.03242  20989398.862    20989395.251
  22633657.347   -10237693.05743  -7849321.26342  22633658.220    22633657.192
  20610612.880   -19844086.51244 -15246344.28142  20610614.567    20610609.992
  21891601.307    -5900624.41343  -4403406.16042  21891603.741    21891600.076
  20667040.311   -21587862.33544 -16779396.90842  20667042.216    20667037.881
  22986435.414    -9794674.18743  -7617089.36242  22986437.197    22986433.126
 03 12 30  3 39 30.0000000  0  9G 2G29G23G 6G15G21G26G18G16
  25112104.370    -1813913.04743  -1400762.08442  25112105.993    25112103.987
  23283886.219      327282.91543    272818.66342  23283888.358    23283883.958
  24021301.021    -3418021.95643  -2649595.78942  24021303.652    24021301.566
  21000347.152   -19146026.61044 -14877056.92142  21000349.250    21000345.703
  22620695.637   -10305808.13643  -7902397.91642  22620696.614    22620695.467
  20608785.946   -19853687.39744 -15253825.48942  20608787.555    20608783.008
  21892863.496    -5893991.66643  -4398237.78442  21892865.969    21892862.252
  20659681.262   -21626534.41344 -16809530.97542  20659683.230    20659678.799
  22986452.670    -9794583.42643  -7617018.64542  22986454.469    22986450.538
 03 12 30  3 40  0.0000000  0  9G 2G29G23G 6G15G21G26G18G16
  25104771.416    -1852445.39143  -1430787.26142  25104773.211    25104771.362
  23291601.516      367827.00443    304411.46142  23291603.680    23291599.356
  24003856.722    -3509690.35743  -2721025.68142  24003859.348    24003857.622
  21011381.517   -19088040.85944 -14831873.21842  21011383.595    21011380.079
  22607752.323   -10373826.09243  -7955398.89042  22607753.483    22607752.210
  20606998.772   -19863079.09244 -15261143.68542  20607000.404    20606995.782
  21894251.254    -5886699.13643  -4392555.29242  21894253.714    21894249.945
  20652408.469   -21664753.00744 -16839311.68242  20652410.457    20652405.997
  22986573.912    -9793945.93443  -7616521.89642  22986575.666    22986571.883
 03 12 30  3 40 30.0000000  0  9G 2G29G23G 6G15G21G26G18G16
  25097515.332    -1890573.57853  -1460497.48452  25097517.279    25097515.750
  23299413.661      408880.78643    336401.44542  23299415.985    23299411.683
  23986454.895    -3601138.17543  -2792283.65442  23986457.030    23986455.849
  21022498.863   -19029619.15644 -14786349.81642  21022500.910    21022497.360
  22594826.691   -10441750.50743  -8008326.98842  22594828.131    22594826.650
  20605250.595   -19872265.56144 -15268301.97342  20605252.279    20605247.593
  21895763.825    -5878750.73543  -4386361.72842  21895766.316    21895762.374
  20645221.199   -21702522.14944 -16868742.17442  20645223.156    20645218.747
  22986798.060    -9792766.57943  -7615602.90742  22986799.836    22986796.168
 03 12 30  3 41  0.0000000  0  9G 2G29G23G 6G15G21G26G18G16
  25090337.064    -1928296.17543  -1489891.72642  25090338.950    25090337.259
  23307322.970      450443.76343    368788.17742  23307325.102    23307320.978
  23969095.584    -3692363.13343  -2863367.89842  23969097.615    23969096.168
  21033699.072   -18970761.62743 -14740486.80942  21033701.164    21033697.584
  22581918.906   -10509580.38443  -8061181.41642  22581920.521    22581919.043
  20603541.771   -19881245.64044 -15275299.43642  20603543.425    20603538.701
  21897401.405    -5870145.40643  -4379656.27242  21897403.914    21897399.923
  20638119.732   -21739840.70844 -16897821.55842  20638121.663    20638117.264
  22987125.745    -9791044.78543  -7614261.26142  22987127.501    22987123.509
 03 12 30  3 41 30.0000000  0  9G 2G29G23G 6G15G21G26G18G16
  25083237.182    -1965608.71743  -1518966.44842  25083238.730    25083237.053
  23315329.449      492518.51443    401573.71542  23315331.660    23315327.554
  23951779.293    -3783360.17343  -2934274.57542  23951781.376    23951779.766
  21044982.670   -18911465.53743 -14694282.07642  21044984.789    21044981.258
  22569029.951   -10577311.91243  -8113959.20842  22569031.530    22569030.181
  20601872.861   -19890015.60444 -15282133.17142  20601874.557    20601869.887
  21899164.624    -5860879.54243  -4372436.10942  21899167.105    21899163.172
  20631104.688   -21776705.23444 -16926547.14742  20631106.609    20631102.135
  22987557.180    -9788777.80843  -7612494.78742  22987558.888    22987554.650
 03 12 30  3 42  0.0000000  0  9G 2G29G23G 6G15G21G26G18G16
  25076214.373    -2002513.54543  -1547723.48342  25076215.765    25076214.398
  23323432.681      535100.70543    434754.64342  23323434.885    23323430.851
  23934506.129    -3874130.97043  -3005004.98242  23934508.205    23934505.945
  21056349.053   -18851734.66443 -14647738.54542  21056351.152    21056347.647
  22556159.338   -10644947.95343  -8166662.59742  22556160.867    22556159.442
  20600243.502   -19898578.04144 -15288805.20342  20600245.236    20600240.531
  21901052.944    -5850955.93443  -4364703.42442  21901055.433    21901051.565
  20624175.382   -21813118.73144 -16954921.28842  20624177.329    20624172.792
  22988091.662    -9785969.33043  -7610306.35842  22988093.327    22988088.987
 03 12 30  3 42 30.0000000  0  9G 2G29G23G 6G15G21G26G18G16
  25069268.719    -2039013.57443  -1576165.06142  25069269.898    25069268.794
  23331631.671      578185.63543    468327.32242  23331633.766    23331629.748
  23917275.612    -3964677.72543  -3075560.81742  23917277.667    23917274.909
  21067797.297   -18791573.65543 -14600859.84642  21067799.382    21067795.968
  22543306.282   -10712491.86243  -8219294.19742  22543307.788    22543306.256
  20598653.009   -19906936.30644 -15295318.13242  20598654.731    20598649.957
  21903065.731    -5840378.15443  -4356460.99842  21903068.195    21903064.496
  20617331.307   -21849084.49744 -16982946.54342  20617333.232    20617328.684
  22988728.321    -9782623.78443  -7607699.44642  22988730.032    22988725.741
 03 12 30  3 43  0.0000000  0  9G 2G29G23G 6G15G21G26G18G16
  25062402.082    -2075098.64253  -1604283.24352  25062403.093    25062402.035
  23339927.477      621781.33243    502297.99842  23339929.850    23339925.776
  23900090.079    -4054989.80243  -3145933.79142  23900092.028    23900088.902
  21079329.027   -18730974.08543 -14553639.41042  21079331.090    21079327.749
  22530472.593   -10779933.96443  -8271846.45242  22530474.148    22530472.441
  20597103.117   -19915080.67344 -15301664.38842  20597104.880    20597100.125
  21905204.900    -5829136.75343  -4347701.45842  21905207.311    21905203.726
  20610574.289   -21884593.00144 -17010615.49642  20610576.225    20610571.685
  22989468.922    -9778732.39743  -7604667.17942  22989470.701    22989466.307
 03 12 30  3 43 30.0000000  0  8G29G23G 6G15G21G26G18G16
  23348319.002      665878.28043    536659.23842  23348321.266    23348317.043
  23882947.821    -4145073.98943  -3216129.17342  23882949.986    23882946.446
  21090942.498   -18669945.03043 -14506084.30942  21090944.575    21090941.168
  22517656.605   -10847282.30043  -8324325.65842  22517658.307    22517656.445
  20595592.529   -19923018.93144 -15307850.03642  20595594.318    20595589.506
  21907468.704    -5817240.09343  -4338431.33342  21907471.161    21907467.553
  20603902.652   -21919652.60444 -17037934.66042  20603904.579    20603900.099
  22990311.749    -9774304.07343  -7601216.53942  22990313.616    22990308.863
